[[{"header":{"parameterUnit":"m.s-1","parameterCategory":1,"la1":30.6,"la2":28.766,"lo1":-90.7593,"lo2":-88.6598,"dy":0.0162,"dx":0.0183,"nx":116,"ny":114,"refTime":"2024-05-06T00:00:00:Z","depth":0,"parameterNumber":2,"parameterNumberName":"U-component_of_WINDS"},"data":[0.0,0.0,0.0,0.0,0.0,0.0,0.0,0.0,0.0,0.0,0.0,0.0,0.0,0.0,0.0,0.0,0.0,0.0,0.0,0.0,0.0,0.0,0.0,0.0,0.0,0.0,0.0,0.0,0.0,0.0,0.0,0.0,0.0,0.0,0.0,0.0,0.0,0.0,0.0,0.0,0.0,0.0,0.0,0.0,0.0,0.0,0.0,0.0,0.0,0.0,0.0,0.0,0.0,0.0,0.0,0.0,0.0,0.0,0.0,0.0,0.0,0.0,0.0,0.0,0.0,0.0,0.0,0.0,0.0,0.0,0.0,0.0,0.0,0.0,0.0,0.0,0.0,0.0,0.0,0.0,0.0,0.0,0.0,0.0,0.0,0.0,0.0,0.0,0.0,0.0,0.0,0.0,0.0,0.0,0.0,0.0,0.0,0.0,0.0,0.0,0.0,0.0,0.0,0.0,0.0,0.0,0.0,0.0,0.0,0.0,0.0,0.0,0.0,0.0,0.0,0.0,0.0,0.0,0.0,0.0,0.0,0.0,0.0,0.0,0.0,0.0,0.0,0.0,0.0,0.0,0.0,0.0,0.0,0.0,0.0,0.0,0.0,0.0,0.0,0.0,0.0,0.0,0.0,0.0,0.0,0.0,0.0,0.0,0.0,0.0,0.0,0.0,0.0,0.0,0.0,0.0,0.0,0.0,0.0,0.0,0.0,0.0,0.0,0.0,0.0,0.0,0.0,0.0,0.0,0.0,0.0,0.0,0.0,0.0,0.0,0.0,0.0,0.0,0.0,0.0,0.0,0.0,0.0,0.0,0.0,0.0,0.0,0.0,0.0,0.0,0.0,0.0,0.0,0.0,0.0,0.0,0.0,0.0,0.0,0.0,0.0,0.0,0.0,0.0,0.0,0.0,0.0,0.0,0.0,0.0,0.0,0.0,0.0,0.0,0.0,0.0,0.0,0.0,0.0,0.0,0.0,0.0,0.0,0.0,0.0,0.0,0.0,0.0,0.0,0.0,0.0,0.0,0.0,0.0,0.0,0.0,0.0,0.0,0.0,0.0,0.0,0.0,0.0,0.0,0.0,0.0,0.0,0.0,0.0,0.0,0.0,0.0,0.0,0.0,0.0,0.0,0.0,0.0,0.0,0.0,0.0,0.0,0.0,0.0,0.0,0.0,0.0,0.0,0.0,0.0,0.0,0.0,0.0,0.0,0.0,0.0,0.0,0.0,0.0,0.0,0.0,0.0,0.0,0.0,0.0,0.0,0.0,0.0,0.0,0.0,0.0,0.0,0.0,0.0,0.0,0.0,0.0,0.0,0.0,0.0,0.0,0.0,0.0,0.0,0.0,0.0,0.0,0.0,0.0,0.0,0.0,0.0,0.0,0.0,0.0,0.0,0.0,0.0,0.0,0.0,0.0,0.0,0.0,0.0,0.0,0.0,0.0,0.0,0.0,0.0,0.0,0.0,0.0,0.0,0.0,0.0,0.0,0.0,0.0,0.0,0.0,0.0,0.0,0.0,0.0,0.0,0.0,0.0,0.0,0.0,0.0,0.0,0.0,0.0,0.0,0.0,0.0,0.0,0.0,0.0,0.0,0.0,0.0,0.0,0.0,0.0,0.0,0.0,0.0,0.0,0.0,0.0,0.0,0.0,0.0,0.0,0.0,0.0,0.0,0.0,0.0,0.0,0.0,0.0,0.0,0.0,0.0,0.0,0.0,0.0,0.0,0.0,0.0,0.0,0.0,0.0,0.0,0.0,0.0,0.0,0.0,0.0,0.0,0.0,0.0,0.0,0.0,0.0,0.0,0.0,0.0,0.0,0.0,0.0,0.0,0.0,0.0,0.0,0.0,0.0,0.0,0.0,0.0,0.0,0.0,0.0,0.0,0.0,0.0,0.0,0.0,0.0,0.0,0.0,0.0,0.0,0.0,0.0,0.0,0.0,0.0,0.0,0.0,0.0,0.0,0.0,0.0,0.0,0.0,0.0,0.0,0.0,0.0,0.0,0.0,0.0,0.0,0.0,0.0,0.0,0.0,0.0,0.0,0.0,0.0,0.0,0.0,0.0,0.0,0.0,0.0,0.0,0.0,0.0,0.0,0.0,0.0,0.0,0.0,0.0,0.0,0.0,0.0,0.0,0.0,0.0,0.0,0.0,0.0,0.0,0.0,0.0,0.0,0.0,0.0,0.0,0.0,0.0,0.0,0.0,0.0,0.0,0.0,0.0,0.0,0.0,0.0,0.0,0.0,0.0,0.0,0.0,0.0,0.0,0.0,0.0,0.0,0.0,0.0,0.0,0.0,0.0,0.0,0.0,0.0,0.0,0.0,0.0,0.0,0.0,0.0,0.0,0.0,0.0,0.0,0.0,0.0,0.0,0.0,0.0,0.0,0.0,0.0,0.0,0.0,0.0,0.0,0.0,0.0,0.0,0.0,0.0,0.0,0.0,0.0,0.0,0.0,0.0,0.0,0.0,0.0,0.0,0.0,0.0,0.0,0.0,0.0,0.0,0.0,0.0,0.0,0.0,0.0,0.0,0.0,0.0,0.0,0.0,0.0,0.0,0.0,0.0,0.0,0.0,0.0,0.0,0.0,0.0,0.0,0.0,0.0,0.0,0.0,0.0,0.0,0.0,0.0,0.0,0.0,0.0,0.0,0.0,0.0,0.0,0.0,0.0,0.0,0.0,0.0,0.0,0.0,0.0,0.0,0.0,0.0,0.0,0.0,0.0,0.0,0.0,0.0,0.0,0.0,0.0,0.0,0.0,0.0,0.0,0.0,0.0,0.0,0.0,0.0,0.0,0.0,0.0,0.0,0.0,0.0,0.0,0.0,0.0,0.0,0.0,0.0,0.0,0.0,0.0,0.0,0.0,0.0,0.0,0.0,0.0,0.0,0.0,0.0,0.0,0.0,0.0,0.0,0.0,0.0,0.0,0.0,0.0,0.0,0.0,0.0,0.0,0.0,0.0,0.0,0.0,0.0,0.0,0.0,0.0,0.0,0.0,0.0,0.0,0.0,0.0,0.0,0.0,0.0,0.0,0.0,0.0,0.0,0.0,0.0,0.0,0.0,0.0,0.0,0.0,0.0,0.0,0.0,0.0,0.0,0.0,0.0,0.0,0.0,0.0,0.0,0.0,0.0,0.0,0.0,0.0,0.0,0.0,0.0,0.0,0.0,0.0,0.0,0.0,0.0,0.0,0.0,0.0,0.0,0.0,0.0,0.0,0.0,0.0,0.0,0.0,0.0,0.0,0.0,0.0,0.0,0.0,0.0,0.0,0.0,0.0,0.0,0.0,0.0,0.0,0.0,0.0,0.0,0.0,0.0,0.0,0.0,0.0,0.0,0.0,0.0,0.0,0.0,0.0,0.0,0.0,0.0,0.0,0.0,0.0,0.0,0.0,0.0,0.0,0.0,0.0,0.0,0.0,0.0,0.0,0.0,0.0,0.0,0.0,0.0,0.0,0.0,0.0,0.0,0.0,0.0,0.0,0.0,0.0,0.0,0.0,0.0,0.0,0.0,0.0,0.0,0.0,0.0,0.0,0.0,0.0,0.0,0.0,0.0,0.0,0.0,0.0,0.0,0.0,0.0,0.0,0.0,0.0,0.0,0.0,0.0,0.0,0.0,0.0,0.0,0.0,0.0,0.0,0.0,0.0,0.0,0.0,0.0,0.0,0.0,0.0,0.0,0.0,0.0,0.0,0.0,0.0,0.0,0.0,0.0,0.0,0.0,0.0,0.0,0.0,0.0,0.0,0.0,0.0,0.0,0.0,0.0,0.0,0.0,0.0,0.0,0.0,0.0,0.0,0.0,0.0,0.0,0.0,0.0,0.0,0.0,0.0,0.0,0.0,0.0,0.0,0.0,0.0,0.0,0.0,0.0,0.0,0.0,0.0,0.0,0.0,0.0,0.0,0.0,0.0,0.0,0.0,0.0,0.0,0.0,0.0,0.0,0.0,0.0,0.0,0.0,0.0,0.0,0.0,0.0,0.0,0.0,0.0,0.0,0.0,0.0,0.0,0.0,0.0,0.0,0.0,0.0,0.0,0.0,0.0,0.0,0.0,0.0,0.0,0.0,0.0,0.0,0.0,0.0,0.0,0.0,0.0,0.0,0.0,0.0,0.0,0.0,0.0,0.0,0.0,0.0,0.0,0.0,0.0,0.0,0.0,0.0,0.0,0.0,0.0,0.0,0.0,0.0,0.0,0.0,0.0,0.0,0.0,0.0,0.0,0.0,0.0,0.0,0.0,0.0,0.0,0.0,0.0,0.0,0.0,0.0,0.0,0.0,0.0,0.0,0.0,0.0,0.0,0.0,0.0,0.0,0.0,0.0,0.0,0.0,0.0,0.0,0.0,0.0,0.0,0.0,0.0,0.0,0.0,0.0,0.0,0.0,0.0,0.0,0.0,0.0,0.0,0.0,0.0,0.0,0.0,0.0,0.0,0.0,0.0,0.0,0.0,0.0,0.0,0.0,0.0,0.0,0.0,0.0,0.0,0.0,0.0,0.0,0.0,0.0,0.0,0.0,0.0,0.0,0.0,0.0,0.0,0.0,0.0,0.0,0.0,0.0,0.0,0.0,0.0,0.0,0.0,0.0,0.0,0.0,0.0,0.0,0.0,0.0,0.0,0.0,0.0,0.0,0.0,0.0,0.0,0.0,0.0,0.0,0.0,0.0,0.0,0.0,0.0,0.0,0.0,0.0,0.0,0.0,0.0,0.0,0.0,0.0,0.0,0.0,0.0,0.0,0.0,0.0,0.0,0.0,0.0,0.0,0.0,0.0,0.0,0.0,0.0,0.0,0.0,0.0,0.0,0.0,0.0,0.0,0.0,0.0,0.0,0.0,0.0,0.0,0.0,0.0,0.0,0.0,0.0,0.0,0.0,0.0,0.0,0.0,0.0,0.0,0.0,0.0,0.0,0.0,0.0,0.0,0.0,0.0,0.0,0.0,0.0,0.0,0.0,0.0,0.0,0.0,0.0,0.0,0.0,0.0,0.0,0.0,0.0,0.0,0.0,0.0,0.0,0.0,0.0,0.0,0.0,0.0,0.0,0.0,0.0,0.0,0.0,0.0,0.0,0.0,0.0,0.0,0.0,0.0,0.0,0.0,0.0,0.0,0.0,0.0,0.0,0.0,0.0,0.0,0.0,0.0,0.0,0.0,0.0,0.0,0.0,0.0,0.0,0.0,0.0,0.0,0.0,0.0,0.0,0.0,0.0,0.0,0.0,0.0,0.0,0.0,0.0,0.0,0.0,0.0,0.0,0.0,0.0,0.0,0.0,0.0,0.0,0.0,0.0,0.0,0.0,0.0,0.0,0.0,0.0,0.0,0.0,0.0,0.0,0.0,0.0,0.0,0.0,0.0,0.0,0.0,0.0,0.0,0.0,0.0,0.0,0.0,0.0,0.0,0.0,0.0,0.0,0.0,0.0,0.0,0.0,0.0,0.0,0.0,0.0,0.0,0.0,0.0,0.0,0.0,0.0,0.0,0.0,0.0,0.0,0.0,0.0,0.0,0.0,0.0,0.0,0.0,0.0,0.0,0.0,0.0,0.0,0.0,0.0,0.0,0.0,0.0,0.0,0.0,0.0,0.0,0.0,0.0,0.0,0.0,0.0,0.0,0.0,0.0,0.0,0.0,0.0,0.0,0.0,0.0,0.0,0.0,0.0,0.0,0.0,0.0,0.0,0.0,0.0,0.0,0.0,0.0,0.0,0.0,0.0,0.0,0.0,0.0,0.0,0.0,0.0,0.0,0.0,0.0,0.0,0.0,0.0,0.0,0.0,0.0,0.0,0.0,0.0,0.0,0.0,0.0,0.0,0.0,0.0,0.0,0.0,0.0,0.0,0.0,0.0,0.0,0.0,0.0,0.0,0.0,0.0,0.0,0.0,0.0,0.0,0.0,0.0,0.0,0.0,0.0,0.0,0.0,0.0,0.0,0.0,0.0,0.0,0.0,0.0,0.0,0.0,0.0,0.0,0.0,0.0,0.0,0.0,0.0,0.0,0.0,0.0,0.0,0.0,0.0,0.0,0.0,0.0,0.0,0.0,0.0,0.0,0.0,0.0,0.0,0.0,0.0,0.0,0.0,0.0,-6.1521,-6.1297,0.0,0.0,0.0,0.0,0.0,0.0,0.0,0.0,0.0,0.0,0.0,0.0,0.0,0.0,0.0,0.0,0.0,0.0,0.0,0.0,0.0,0.0,0.0,-5.1048,-5.1279,-5.1279,-5.2049,-5.2895,-5.378,0.0,0.0,0.0,0.0,0.0,-5.6983,-5.8242,-5.9088,-5.9511,-5.9935,-6.0358,-6.0819,-6.1243,-6.0973,-6.0127,0.0,0.0,0.0,0.0,0.0,0.0,0.0,0.0,0.0,0.0,0.0,0.0,0.0,0.0,0.0,0.0,0.0,0.0,0.0,0.0,0.0,0.0,0.0,0.0,0.0,0.0,0.0,0.0,0.0,0.0,0.0,0.0,0.0,0.0,0.0,0.0,0.0,0.0,0.0,0.0,0.0,0.0,0.0,0.0,0.0,0.0,0.0,0.0,0.0,0.0,0.0,0.0,0.0,0.0,0.0,0.0,0.0,0.0,0.0,0.0,0.0,0.0,0.0,0.0,0.0,0.0,0.0,0.0,0.0,0.0,-6.48,-6.3252,0.0,0.0,0.0,0.0,0.0,0.0,0.0,0.0,0.0,0.0,0.0,0.0,0.0,0.0,0.0,0.0,0.0,0.0,0.0,0.0,0.0,-5.0888,-5.0924,-5.151,-5.1962,-5.2115,-5.2779,-5.3587,-5.4434,-5.4626,-5.5011,-5.5665,-5.683,-5.7368,-5.7253,-5.8858,-5.9742,-5.9742,-6.0589,-6.1012,-6.105,-6.205,-6.205,-6.1243,-6.1243,0.0,0.0,0.0,0.0,0.0,0.0,0.0,0.0,0.0,0.0,0.0,0.0,0.0,0.0,0.0,0.0,0.0,0.0,0.0,0.0,0.0,0.0,0.0,0.0,0.0,0.0,0.0,0.0,0.0,0.0,0.0,0.0,0.0,0.0,0.0,0.0,0.0,0.0,0.0,0.0,0.0,0.0,0.0,0.0,0.0,0.0,0.0,0.0,0.0,0.0,0.0,0.0,0.0,0.0,0.0,0.0,0.0,0.0,0.0,0.0,0.0,0.0,0.0,-7.0573,-7.2076,-7.2422,-7.4469,-7.518,-7.4515,-7.0146,-6.7063,-6.5118,-6.4971,0.0,0.0,0.0,0.0,0.0,0.0,0.0,0.0,0.0,0.0,0.0,0.0,0.0,0.0,0.0,0.0,0.0,0.0,0.0,-5.0972,-5.1664,-5.1846,-5.2192,-5.2972,-5.3126,-5.3587,-5.4434,-5.5164,-5.5588,-5.5703,-5.7934,-5.8858,-5.8127,-5.9781,-6.0627,-6.0627,-6.1512,-6.1947,-6.1947,-6.3551,-6.382,-6.2974,-6.2974,-6.2589,-6.1908,0.0,0.0,0.0,0.0,0.0,0.0,0.0,0.0,0.0,0.0,0.0,0.0,0.0,0.0,0.0,0.0,0.0,0.0,0.0,0.0,0.0,0.0,0.0,0.0,0.0,0.0,0.0,0.0,0.0,0.0,0.0,0.0,0.0,0.0,0.0,0.0,0.0,0.0,0.0,0.0,0.0,-5.9511,-6.0512,0.0,0.0,0.0,0.0,0.0,0.0,0.0,0.0,0.0,0.0,0.0,0.0,0.0,-6.7834,-7.1482,-7.1848,-7.2829,-7.4439,-7.5814,-7.6447,-7.654,-7.8315,-7.905,-7.9029,-7.969,0.0,-6.9229,-6.8568,0.0,0.0,0.0,0.0,0.0,0.0,0.0,0.0,0.0,0.0,0.0,0.0,0.0,0.0,0.0,0.0,0.0,0.0,0.0,0.0,0.0,-5.3203,-5.4203,-5.4587,-5.5511,-5.6242,-5.6626,-5.6973,-5.7165,-5.7165,-5.8665,-5.9358,-5.8973,-6.0165,-6.1243,-6.2204,-6.3089,-6.3974,-6.4948,-6.6667,-6.7244,-6.6936,-6.7359,-6.5782,-6.2781,-6.2781,0.0,0.0,0.0,0.0,0.0,0.0,0.0,0.0,0.0,0.0,0.0,0.0,0.0,0.0,0.0,0.0,0.0,0.0,0.0,0.0,0.0,0.0,0.0,0.0,0.0,0.0,0.0,0.0,0.0,0.0,0.0,0.0,0.0,0.0,0.0,0.0,0.0,0.0,0.0,-5.9715,-6.1082,-6.0834,-6.1365,-6.1504,0.0,0.0,0.0,0.0,0.0,0.0,0.0,0.0,0.0,-7.0336,-7.0971,-7.2392,-7.462,-7.617,-7.7762,-7.9386,-8.1176,-8.2333,-8.281,-8.3985,-8.4499,-8.4535,-8.4792,-8.2113,-7.7341,-7.4221,-7.0991,-6.7834,0.0,0.0,0.0,0.0,-6.5191,-6.5632,0.0,0.0,0.0,0.0,0.0,0.0,0.0,0.0,0.0,0.0,0.0,0.0,-5.25,-5.4434,-5.5895,-5.6319,-5.755,-5.8319,-5.8319,-5.8511,-5.8511,-5.8319,-5.9281,-5.9742,-5.9511,-6.0781,-6.205,-6.3308,-6.482,-6.6205,-6.7475,-6.9667,-7.0552,-7.0398,-7.1398,-6.9052,-6.4282,-6.4282,-6.3551,-6.2397,0.0,0.0,0.0,0.0,0.0,0.0,0.0,0.0,0.0,0.0,0.0,0.0,0.0,0.0,0.0,0.0,0.0,0.0,0.0,0.0,0.0,0.0,0.0,0.0,0.0,0.0,0.0,0.0,0.0,0.0,0.0,0.0,0.0,0.0,0.0,0.0,0.0,-6.119,-6.2574,-6.1109,-6.2307,-6.2665,0.0,0.0,0.0,0.0,0.0,0.0,-6.8281,-7.0158,-7.2444,-7.5189,-7.6037,-7.7157,-7.8552,-8.0608,-8.2443,-8.4058,-8.6077,-8.7435,-8.8243,-8.8867,-8.9124,-8.9087,-8.85,-8.6995,-8.4572,-7.947,-7.4955,-7.1138,-6.9119,-6.7834,-6.721,-6.7797,-6.8421,-6.9009,0.0,0.0,0.0,0.0,0.0,0.0,0.0,0.0,0.0,0.0,0.0,-5.2538,-5.4203,-5.5164,-5.6357,-5.8011,-5.8242,-5.8319,-5.8319,-5.9011,-5.9088,-5.8319,-5.9858,-6.0358,-5.9511,-6.1897,-6.3243,-6.3308,-6.659,-6.8244,-6.8398,-7.1745,-7.286,-7.2129,-7.3783,-7.1668,-6.6898,-6.6898,-6.5474,-6.3166,-6.2397,0.0,0.0,0.0,0.0,0.0,0.0,0.0,0.0,0.0,0.0,0.0,0.0,0.0,0.0,0.0,0.0,0.0,0.0,0.0,0.0,0.0,0.0,0.0,0.0,0.0,0.0,0.0,0.0,0.0,0.0,0.0,0.0,0.0,0.0,0.0,0.0,0.0,0.0,-6.156,-6.3643,0.0,0.0,0.0,0.0,-6.5141,-6.8207,-7.0856,-7.2781,-7.4476,-7.6986,-8.0488,-8.0645,-8.2186,-8.527,-8.6187,-8.7472,-8.9015,-8.9968,-9.0776,-9.1546,-9.1583,-9.162,-9.162,-9.1583,-9.0629,-8.8648,-8.3067,-7.8369,-7.4588,-7.367,-7.2863,-7.2129,-7.2165,-7.2239,-7.2275,0.0,0.0,0.0,0.0,0.0,-4.6929,-4.7995,-4.8603,-4.9548,-5.1241,-5.2202,-5.3395,-5.5088,-5.6973,-5.8627,-5.9819,-6.0435,-6.0742,-6.0742,-6.0473,-6.0204,-5.9935,-6.0473,-6.0666,-6.0319,-6.2281,-6.4089,-6.5743,-6.8629,-7.1129,-7.3322,-7.513,-7.6053,-7.6284,-7.6861,-7.5553,-7.2668,-7.0475,-6.8398,-6.6474,-6.5089,-6.3563,0.0,0.0,0.0,0.0,0.0,0.0,0.0,0.0,0.0,0.0,0.0,0.0,0.0,0.0,0.0,0.0,0.0,0.0,0.0,0.0,0.0,0.0,0.0,0.0,0.0,0.0,0.0,0.0,0.0,0.0,0.0,0.0,0.0,0.0,0.0,0.0,0.0,-6.6466,-6.9614,0.0,-6.8278,-6.878,-6.9337,-6.9635,-7.2381,-7.5024,-7.7304,-7.9479,-8.1934,-8.4756,-8.5894,-8.7215,-8.8867,-8.9674,-9.0372,-9.0959,-9.1253,-9.151,-9.1803,-9.1803,-9.1803,-9.1803,-9.1803,-9.1179,-8.9968,-8.6885,-8.3251,-7.936,-7.6974,-7.5542,-7.4808,-7.4808,-7.5139,-7.5689,0.0,0.0,0.0,-4.5881,-4.6229,-4.6793,-4.7566,-4.8432,-4.9586,-5.1279,-5.2741,-5.4395,-5.6357,-5.8588,-6.0396,-6.155,-6.1897,-6.2101,-6.2101,-6.1293,-6.0781,-6.0781,-6.1089,-6.1358,-6.1627,-6.4166,-6.6436,-6.8359,-7.1514,-7.4207,-7.6476,-7.7592,-7.8438,-7.8938,-7.9246,-7.8746,-7.7515,-7.4668,-7.1822,-6.909,-6.7436,-6.5551,-6.3678,0.0,0.0,0.0,0.0,0.0,0.0,0.0,0.0,0.0,0.0,0.0,0.0,0.0,0.0,0.0,0.0,0.0,0.0,0.0,0.0,0.0,0.0,0.0,0.0,0.0,0.0,0.0,0.0,0.0,0.0,0.0,0.0,0.0,0.0,-6.7994,-7.1558,-7.0884,-7.468,-7.6343,-7.3728,-7.4185,-7.4719,-7.5014,-7.748,-8.0057,-8.248,-8.4425,-8.6407,-8.8573,-8.9674,-9.0482,-9.0996,-9.1546,-9.1803,-9.1803,-9.1803,-9.1803,-9.1803,-9.1803,-9.1803,-9.1803,-9.1803,-9.1326,-9.0519,-8.916,-8.6885,-8.3875,-8.0351,-7.8479,-7.7708,-7.7451,-7.7708,-7.8185,0.0,-4.5992,-4.5881,-4.5815,-4.5704,-4.5941,-4.6826,-4.7625,-4.8779,-5.0558,-5.2933,-5.5472,-5.805,-5.9858,-6.1512,-6.3166,-6.2589,-6.2139,-6.2101,-6.1293,-6.0781,-6.0781,-6.1678,-6.2551,-6.3346,-6.759,-7.0206,-7.1014,-7.5245,-7.7323,-7.7438,-7.9092,-7.9862,-7.9977,-8.0785,-8.117,-8.1054,-7.9361,-7.5745,-7.1014,-6.9244,-6.7975,-6.6859,0.0,0.0,0.0,0.0,0.0,0.0,0.0,0.0,0.0,0.0,0.0,0.0,0.0,0.0,0.0,0.0,0.0,0.0,0.0,0.0,0.0,0.0,0.0,0.0,0.0,0.0,0.0,0.0,0.0,0.0,0.0,0.0,0.0,-6.6166,-7.1503,-7.5162,-7.4515,-7.8489,-8.0309,-7.7824,-7.9066,-8.0351,-8.1122,-8.3398,-8.5783,-8.8133,-8.905,-9.0188,-9.173,-9.1803,-9.1803,-9.1803,-9.1803,-9.1803,-9.1803,-9.1803,-9.1803,-9.1803,-9.1803,-9.1803,-9.1803,-9.1803,-9.1363,-9.0592,-8.9748,-8.894,-8.7839,-8.3838,-8.1819,-8.1012,-8.0204,-7.9874,-7.969,-4.6138,-4.5992,-4.5909,-4.5877,-4.625,-4.6831,-4.7751,-4.8579,-4.9894,-5.2202,-5.3664,-5.5703,-5.8819,-6.0704,-6.2166,-6.3205,-6.3089,-6.2704,-6.2139,-6.1293,-6.0781,-6.0781,-6.2781,-6.432,-6.5166,-6.9321,-7.2206,-7.3668,-7.6092,-7.8246,-8.0054,-8.0516,-8.14,-8.2554,-8.2785,-8.2901,-8.2824,-8.1708,-7.9746,-7.6976,-7.2822,-6.9898,-6.7821,0.0,0.0,0.0,0.0,0.0,0.0,0.0,0.0,0.0,0.0,0.0,0.0,0.0,0.0,0.0,0.0,0.0,0.0,0.0,0.0,0.0,0.0,0.0,0.0,0.0,0.0,0.0,0.0,0.0,0.0,0.0,-6.9261,-7.2188,-7.1762,-7.6352,-8.0443,-8.2291,-8.5179,-8.6323,-8.4529,-8.4756,-8.5123,-8.5343,-8.7068,-8.8647,-8.9858,-9.0702,-9.1326,-9.1803,-9.1803,-9.1803,-9.1803,-9.1803,-9.1803,-9.1803,-9.1803,-9.1803,-9.1803,-9.1803,-9.1803,-9.1803,-9.1803,-9.1657,-9.1363,-8.9968,-8.9235,-8.8793,-8.593,-8.4315,-8.3508,-8.27,-8.1672,-8.0461,-4.6138,-4.5992,-4.5879,-4.5879,-4.644,-4.708,-4.7671,-4.869,-5.0164,-5.2356,-5.4049,-5.6165,-5.9165,-6.105,-6.2397,-6.3243,-6.2974,-6.2589,-6.2139,-6.1293,-6.1281,-6.2358,-6.4474,-6.6551,-6.8513,-7.236,-7.4976,-7.6284,-7.8361,-8.0131,-8.1631,-8.2362,-8.3208,-8.417,-8.4478,-8.4632,-8.4593,-8.3747,-8.2824,-8.1554,-7.7169,-7.386,-7.136,-6.9321,-6.7667,-6.6359,-6.5282,-6.4782,-6.4474,-6.3577,0.0,0.0,0.0,0.0,0.0,0.0,0.0,0.0,0.0,0.0,0.0,0.0,0.0,0.0,0.0,0.0,0.0,0.0,0.0,0.0,0.0,0.0,0.0,0.0,-7.2946,-7.7246,-7.9381,-8.2236,-8.485,-8.69,-8.9061,-9.0006,-8.9086,-8.9014,-8.916,-8.9528,-9.0078,-9.0776,-9.162,-9.173,-9.1803,-9.1803,-9.1803,-9.1803,-9.1803,-9.1803,-9.1803,-9.1803,-9.1803,-9.1803,-9.1803,-9.1803,-9.1803,-9.1803,-9.1803,-9.1436,-9.0739,-8.9821,-8.8978,-8.8243,0.0,0.0,0.0,0.0,-8.2113,-8.0828,-4.6138,-4.5998,-4.5939,-4.5939,-4.6487,-4.6992,-4.7164,-4.8453,-5.0038,-5.1818,-5.4164,-5.6665,-5.9204,-6.105,-6.2397,-6.3089,-6.2512,-6.2062,-6.1947,-6.1512,-6.2281,-6.4628,-6.6705,-6.936,-7.2706,-7.6015,-7.8207,-7.9208,-8.1477,-8.267,-8.2901,-8.4555,-8.5401,-8.5478,-8.6209,-8.6517,-8.6478,-8.5478,-8.5093,-8.4901,-8.1554,-7.8631,-7.6015,-7.3437,-7.1937,-7.0898,-6.8513,-6.6782,-6.5436,-6.4282,0.0,0.0,0.0,0.0,0.0,0.0,0.0,0.0,0.0,0.0,0.0,0.0,0.0,0.0,0.0,0.0,0.0,0.0,0.0,0.0,0.0,0.0,0.0,0.0,-7.6685,-8.182,-8.7131,-8.8205,-8.8719,-8.9529,-9.0974,-9.195,-9.195,-9.195,-9.2281,-9.3161,-9.2354,-9.217,-9.3051,-9.2281,0.0,0.0,0.0,-9.1803,-9.1803,-9.1803,-9.1803,-9.1803,-9.1803,-9.1803,-9.1803,-9.1803,-9.1803,-9.1803,-9.1803,-9.0959,-8.9564,-8.9419,-8.8463,-8.6921,-8.6004,-8.5159,-8.4278,-8.2663,-8.1562,-8.0755,-4.6138,-4.608,-4.6072,-4.6072,-4.6648,-4.7372,-4.8116,-4.8968,-5.0378,-5.2646,-5.4549,-5.6665,-5.9204,-6.105,-6.2178,-6.2332,-6.2178,-6.1793,-6.1089,-6.282,-6.4397,-6.559,-6.9898,-7.3514,-7.6245,-7.8977,-8.1439,-8.367,-8.417,-8.5093,-8.644,-8.7478,-8.8325,-8.894,-8.9094,-8.9171,-8.9017,-8.6824,-8.6286,-8.6671,-8.3939,-8.09,-7.7746,-7.5207,-7.3707,-7.286,-7.1629,-7.1475,-7.1321,-6.8385,-6.7423,-6.7051,-6.5013,-6.3782,0.0,0.0,0.0,0.0,0.0,0.0,0.0,0.0,0.0,0.0,0.0,0.0,0.0,0.0,0.0,0.0,0.0,0.0,0.0,-7.6827,-8.2278,-8.6668,-8.8766,-9.1268,-9.2702,-9.2305,-9.2631,-9.2868,-9.2868,-9.2868,-9.3198,-9.4006,-9.2648,-9.217,-9.3051,-9.2281,-9.1803,-9.1803,-9.1803,-9.1803,-9.1803,-9.1803,-9.1803,-9.1803,-9.1803,0.0,-9.1803,-9.1803,-9.1803,-9.1803,-9.1803,-9.1253,-9.0335,-8.9674,-8.8463,-8.6885,-8.5416,-8.4352,-8.3434,-8.1819,-8.0718,-7.991,-4.6945,-4.6459,-4.6255,-4.6744,-4.7421,-4.8136,-4.9017,-4.9795,-5.0967,-5.2925,-5.4318,-5.5895,-5.8011,-5.9435,-6.0204,-6.0204,-6.055,-6.1166,-6.2012,-6.3666,-6.5936,-6.8898,-7.2706,-7.6169,-7.9131,-8.1285,-8.317,-8.4901,-8.5747,-8.6786,-8.8094,-8.9787,-9.0825,-9.121,-9.1633,-9.1787,-9.1672,-8.9556,-8.8902,-8.9056,-8.6055,-8.3593,-8.14,-7.8861,-7.7092,-7.5822,-7.4553,-7.386,-7.3168,-7.1014,-7.0014,-6.936,-6.7667,-6.6244,-6.5128,0.0,0.0,0.0,0.0,0.0,0.0,0.0,0.0,0.0,0.0,0.0,0.0,0.0,0.0,-6.7546,-7.0188,0.0,-7.7684,-8.1613,-8.5688,-8.9226,-9.1494,-9.2435,-9.2975,-9.3026,-9.3086,-9.3088,-9.3088,-9.3455,-9.3712,-9.3712,-9.2905,-9.2648,-9.3088,-9.2281,-9.1803,-9.1803,-9.1803,-9.1803,-9.1803,-9.1803,-9.1803,-9.1803,-9.1803,-9.1803,-9.1803,-9.1803,-9.1803,-9.1767,-9.1363,-9.0739,-8.9895,-8.828,-8.6885,-8.5673,-8.4462,-8.4022,-8.3801,-8.2186,-8.0828,-7.979,-4.8008,-4.7218,-4.6897,-4.7695,-4.84,-4.9052,-4.9725,-5.0464,-5.1494,-5.3041,-5.3964,-5.5126,-5.683,-5.778,-5.8357,-5.8511,-5.9127,-6.0589,-6.3115,-6.4743,-6.7628,-7.2245,-7.5207,-7.8169,-8.1285,-8.2978,-8.4362,-8.5401,-8.7055,-8.8402,-8.9479,-9.171,-9.2826,-9.3018,-9.3672,-9.3941,-9.3826,-9.2172,-9.1441,-9.1171,-8.7902,-8.6017,-8.4863,-8.2477,-8.0516,-7.8746,-7.6899,-7.5284,-7.3745,-7.2245,-7.136,-7.0744,-6.9744,-6.859,-6.7436,-6.6628,-6.5282,0.0,0.0,0.0,0.0,0.0,0.0,0.0,0.0,0.0,-6.5601,-6.8547,-7.0402,-7.2416,-7.5349,-7.9415,-8.3193,-8.6002,-8.841,-9.092,-9.3807,-9.2952,-9.242,-9.3408,-9.3414,-9.3271,-9.3088,-9.3823,-9.4044,-9.3382,-9.3198,-9.3159,-9.3343,-9.2637,-9.2157,-9.2055,-9.2202,-9.2095,-9.1803,-9.195,-9.195,-9.1803,-9.1803,-9.1803,-9.1803,-9.1657,-9.1583,-9.151,-9.0697,-9.0062,-8.9421,-8.7132,-8.5705,-8.4948,-8.4115,-8.412,-8.4363,-8.2619,-8.0938,-7.9632,-4.8789,-4.8672,-4.8632,-4.8711,-4.9452,-4.9991,-4.9989,-5.0603,-5.1635,-5.3197,-5.4034,-5.5126,-5.683,-5.778,-5.8588,-5.9319,-5.9435,-6.0589,-6.3115,-6.6974,-7.0398,-7.3245,-7.7207,-8.0246,-8.2131,-8.3862,-8.5517,-8.7132,-8.8786,-9.0479,-9.2095,-9.3095,-9.398,-9.4711,-9.4788,-9.4826,-9.4749,-9.3056,-9.2364,-9.2133,-8.9479,-8.744,-8.5786,-8.3978,-8.2285,-8.0477,-7.8015,-7.6553,-7.513,-7.1283,-7.0398,-7.0629,-6.9052,-6.8936,-6.9244,-6.8359,-6.7436,-6.6359,-6.4859,-6.382,-6.3166,-6.3166,-6.382,-6.5051,0.0,0.0,-7.1,-7.4379,-7.6585,-7.8713,-8.1109,-8.4097,-8.6995,-8.9451,-9.128,-9.2833,-9.402,-9.3412,-9.3413,-9.4892,-9.4466,-9.3826,-9.3162,-9.3766,-9.42,-9.419,-9.3467,-9.3309,-9.4053,-9.392,-9.353,-9.2858,-9.357,-9.3276,-9.1803,-9.2574,-9.2574,-9.1803,-9.1803,-9.1803,-9.1767,-9.1069,-9.0739,-9.0701,-8.9827,-8.9728,-9.006,-8.8291,-8.7221,-8.655,-8.5569,-8.4843,-8.4146,-8.196,-8.0131,-7.8823,-4.9766,-5.0039,-5.0351,-5.0351,-5.0273,-5.031,-5.0664,-5.0943,-5.171,-5.3204,-5.3666,-5.4486,-5.6071,-5.6549,-5.7126,-5.7973,-5.8511,-6.0512,-6.4551,-6.7898,-7.1514,-7.5553,-7.8823,-8.1323,-8.3016,-8.4286,-8.5709,-8.7401,-8.9094,-9.0517,-9.1787,-9.3095,-9.4172,-9.498,-9.498,-9.5288,-9.5672,-9.448,-9.3941,-9.371,-9.1171,-8.8825,-8.6555,-8.3862,-8.0862,-7.7977,-7.6938,-7.5361,0.0,-7.0629,-6.9937,-6.9975,-6.8783,-6.8667,-6.8783,-6.7898,-6.7051,-6.6128,-6.4936,-6.4705,0.0,0.0,-6.6936,-6.8475,-7.2014,-7.336,-7.4864,-7.8407,-8.0894,-8.3213,-8.5793,-8.8416,-9.067,0.0,-9.344,-9.4396,-9.4774,-9.4144,-9.351,-9.3124,-9.2771,-9.2899,-9.3675,-9.4066,-9.4068,-9.3575,-9.3615,-9.3812,-9.4114,-9.4123,-9.3764,-9.3019,-9.3322,-9.2933,-9.1803,-9.2631,-9.2835,-9.2502,-9.2502,-9.2728,-9.3102,-9.2361,-9.1725,-9.1117,-9.0284,-8.9506,-8.8756,-8.7587,-8.6677,-8.595,-8.5034,-8.423,-8.3457,-8.3012,-8.1819,-8.048,-5.0664,-5.1016,-5.1406,-5.1406,-5.0937,-5.0702,-5.119,-5.1447,-5.2019,-5.3351,-5.3659,-5.4246,-5.5542,-5.5703,-5.6049,-5.6907,-5.778,-6.0165,-6.4551,-6.7898,-7.1668,-7.6053,-7.9131,-8.14,-8.2862,-8.4209,-8.5593,-8.7055,-8.8748,-9.0248,-9.1595,-9.2556,-9.3595,-9.4634,-9.4634,-9.5134,-9.5903,-9.5249,-9.4864,-9.4441,-9.2133,-8.9402,-8.6324,-8.2631,-7.8631,-7.4899,-7.4668,-7.2976,-7.0552,-6.8859,-6.8436,-6.859,-6.8167,-6.8052,-6.7975,-6.7552,-6.6705,-6.582,-6.5397,0.0,0.0,-6.9052,-7.0629,-7.2822,-7.6823,-7.8092,-7.9537,-8.3332,-8.5448,-8.7417,-8.9884,-9.1947,-9.3568,-9.4458,-9.4984,-9.5371,-9.5545,-9.4136,-9.2662,-9.1558,-9.0604,-9.0764,-9.2538,-9.3386,-9.3611,-9.3062,-9.3917,-9.4461,-9.4409,-9.4579,-9.4372,-9.3618,-9.4039,-9.3713,-9.2431,-9.3461,-9.3744,-9.3295,-9.3295,-9.3559,-9.4102,-9.308,-9.2062,-9.1143,-9.0512,-8.9665,-8.8658,-8.7847,-8.6919,-8.5981,-8.5334,-8.4416,-8.3619,-8.4423,-8.3278,-8.1443,-5.1367,-5.1367,-5.1406,-5.1406,-5.1367,-5.1367,-5.1406,-5.2015,-5.2762,-5.3688,-5.4319,-5.492,-5.5619,-5.5703,-5.6049,-5.6907,-5.778,-5.9396,-6.2062,-6.6898,-7.086,-7.3514,-7.763,-8.0246,-8.117,-8.3632,-8.5324,-8.6132,-8.7863,-9.0017,-9.2441,-9.1633,-9.2172,-9.3749,-9.3749,-9.421,-9.5018,-9.5018,-9.4518,-9.3595,-9.1902,-8.8709,-8.4516,-8.0246,-7.5976,-7.2206,-7.136,-6.9436,-6.7013,-6.532,-6.532,-6.6128,-6.6898,-6.7128,-6.7282,-6.8129,-6.7205,-6.6051,0.0,0.0,-6.9975,-7.1668,-7.4591,-7.7938,-8.1323,-8.3439,-8.5824,-9.0038,-9.0962,-9.1547,-9.3409,-9.4382,-9.5284,-9.6274,-9.5743,-9.5471,-9.6248,-9.2948,-9.0611,-9.1163,-8.8501,-8.7248,0.0,-9.1187,-9.2734,-9.2965,-9.4356,-9.518,-9.5166,-9.5841,-9.5882,-9.5142,-9.6643,-9.635,-9.4047,-9.5593,-9.5621,-9.4075,-9.4075,-9.4075,-9.4027,-9.2377,-9.108,-9.0111,-9.0133,-9.0467,-9.1041,-9.0157,-8.8941,-8.7624,-8.7384,-8.6354,-8.5123,-8.5811,-8.3715,-8.0597,-5.1406,-5.1406,-5.1562,-5.2148,-5.1797,-5.1797,-5.2969,-5.285,-5.2917,-5.3699,-5.4786,0.0,0.0,0.0,0.0,0.0,-5.7473,-5.9396,-6.1947,-6.5282,-6.8552,-7.1629,-7.5322,-7.7938,-7.9323,-8.1362,-8.3054,-8.4439,-8.6132,-8.7401,-8.8286,-8.9133,-9.0133,-9.121,-9.1787,-9.2518,-9.3364,-9.3903,-9.3326,-9.1825,-8.9594,-8.6478,-8.267,-7.7823,-7.336,-6.9436,0.0,-6.5782,-6.432,-6.2627,-6.2666,-6.3447,-6.3717,-6.4128,-6.4743,-6.5628,-6.6667,-6.7744,-6.859,0.0,-7.3707,-7.6515,-7.8938,-8.1785,-8.6324,-8.7825,-8.8786,-9.0787,-8.9863,-8.8696,-8.8709,-8.8472,-8.8978,-9.1049,-9.2962,-9.4324,-9.47,-9.4468,-9.2886,-8.9137,-8.8251,0.0,0.0,0.0,0.0,-9.2607,-9.3712,-9.4774,-9.5864,-9.6155,-9.5981,-9.5212,-9.5723,-9.564,-9.4884,-9.5413,-9.564,-9.564,-9.557,-9.5318,-9.4766,-9.3546,-9.2789,-9.2431,-9.1318,-9.0625,-9.0287,-8.944,-8.8469,-8.7461,-8.6795,-8.6223,-8.5793,-8.6026,-8.46,-8.2604,0.0,-5.1875,-5.2148,-5.3008,-5.2695,0.0,0.0,0.0,0.0,0.0,0.0,0.0,0.0,0.0,0.0,0.0,0.0,-5.8511,-6.0177,-6.3205,-6.6051,-6.8552,-7.1937,-7.4399,-7.5745,-7.7169,-7.8592,-7.9977,-8.1054,-8.2054,-8.2978,-8.4093,-8.5401,-8.6786,-8.7632,-8.8825,-9.021,-9.0133,-8.9633,-8.8671,-8.5517,-8.2362,-7.9015,-7.3937,-6.9937,0.0,-6.4166,-6.2897,-6.2243,-6.1166,-6.1166,-6.1755,-6.232,-6.332,-6.4359,-6.4897,-6.709,-6.9629,-7.1091,-7.4399,-7.8169,-8.1285,-8.3785,-8.6401,-9.0017,-9.0364,-8.9979,-9.0248,-8.7786,-8.5401,-8.4863,-8.4093,-8.4477,-8.737,-8.961,-9.1449,-9.2748,-9.2776,-9.1364,-8.7825,-8.7363,-8.6628,0.0,0.0,0.0,-9.1979,-9.3191,-9.4536,-9.6192,-9.6288,-9.6098,-9.5598,-9.5844,-9.5898,-9.5651,-9.5898,-9.6112,-9.6363,-9.6328,-9.5886,-9.51,-9.4446,-9.3826,-9.321,-9.2133,-9.1171,-9.0325,-8.9825,-8.9094,-8.8209,-8.7363,-8.6824,-8.6517,-8.6209,-8.5055,-8.3593,0.0,0.0,-5.3047,0.0,0.0,0.0,0.0,0.0,0.0,0.0,0.0,0.0,0.0,0.0,0.0,0.0,0.0,0.0,-5.6983,-6.0781,-6.3474,-6.4359,-6.7628,-6.986,-7.0706,-7.1591,-7.2514,-7.336,-7.3399,-7.4668,-7.7015,-7.7092,-7.84,-8.0746,-8.1554,-8.3247,-8.544,-8.3862,-8.3632,-8.3939,-7.9785,-7.6592,-7.386,-6.8859,-6.5974,-6.4205,-6.1743,-6.0819,-6.0819,-6.0858,-6.0896,0.0,0.0,0.0,0.0,0.0,0.0,-7.1783,-7.4399,-7.8823,-8.3285,-8.5747,-8.8825,-9.1479,-9.2249,-9.1056,-8.9517,-8.8556,-8.4939,-8.1862,0.0,0.0,-8.1823,-8.5286,-8.6055,-8.744,-9.0864,-8.8594,-8.6863,0.0,0.0,0.0,0.0,0.0,0.0,-9.125,-9.2814,-9.4403,-9.6211,-9.6288,-9.6288,-9.6288,-9.7057,-9.7096,-9.6365,-9.7134,-9.7096,-9.6288,-9.6288,-9.5865,-9.5057,-9.5037,-9.4095,-9.2556,-9.2518,-9.2018,-9.121,-9.1095,-9.0594,-8.9748,-8.8902,-8.8055,-8.7209,-8.6401,-8.5055,-8.3593,0.0,0.0,0.0,0.0,0.0,0.0,0.0,0.0,0.0,0.0,0.0,0.0,0.0,0.0,0.0,0.0,0.0,0.0,-5.6983,-5.8627,-6.0242,-6.1704,-6.4436,-6.659,-6.8052,-6.9552,-7.0744,-7.1552,-7.2206,-7.286,-7.3514,-7.4168,-7.4822,-7.5476,-7.6284,-7.7015,-7.763,-7.7823,-7.7361,-7.6207,-7.3783,-7.1706,-6.9667,-6.6436,-6.4589,-6.3474,-6.2204,-6.137,-6.0896,0.0,0.0,0.0,0.0,0.0,-6.6397,0.0,0.0,-7.6361,-7.9515,-8.4093,-8.8286,-8.9594,-9.1056,-9.2056,-9.1633,-8.971,-8.7248,-8.4478,-8.0054,-7.6245,0.0,0.0,0.0,-8.1631,-8.5555,0.0,-9.2595,-9.3441,0.0,-9.0517,0.0,-8.9902,-8.8209,-8.8786,0.0,0.0,-9.2561,-9.3826,-9.6172,-9.6288,-9.6288,-9.6288,-9.6519,-9.6788,-9.7211,-9.7403,-9.7096,-9.6288,-9.6288,-9.6172,-9.5942,-9.5288,-9.4403,-9.3364,-9.2749,-9.2018,-9.1095,-8.9863,-8.921,-8.8863,-8.7363,-8.6632,-8.6401,-8.617,-8.5055,-8.3593,0.0,0.0,0.0,0.0,0.0,0.0,0.0,0.0,0.0,0.0,0.0,0.0,0.0,0.0,0.0,0.0,0.0,0.0,0.0,-5.7819,-5.8896,-6.0165,-6.1973,-6.3358,-6.432,-6.5282,-6.6205,-6.7051,-6.7128,-6.7552,-6.8282,-6.8783,-6.9436,-7.0206,-7.1014,-7.1783,-7.2476,-7.2206,-7.1783,0.0,0.0,-6.7244,-6.6513,-6.432,-6.3435,-6.3205,-6.2397,-6.2012,0.0,0.0,0.0,-6.5615,-6.6128,-6.8129,-7.086,-7.3476,0.0,-8.1285,-8.4286,-8.8286,-9.1787,-9.2633,-9.2672,-9.2095,-9.0479,-8.7286,-8.3555,-7.9746,-7.5515,0.0,-7.0783,0.0,0.0,0.0,0.0,0.0,-9.0941,-9.2364,-9.2672,0.0,-9.221,0.0,-9.0517,-9.0787,-9.1748,0.0,-9.3249,-9.398,-9.6172,-9.6288,-9.6288,-9.6288,-9.6288,-9.6519,-9.698,-9.698,-9.6749,-9.6288,-9.6288,-9.6288,-9.6288,-9.5403,-9.4518,-9.3672,-9.2864,-9.2018,-9.1095,-8.9787,-8.9248,-8.9056,-8.7325,-8.6671,-8.6594,-8.5863,-8.4747,-8.3555,0.0,0.0,0.0,0.0,0.0,0.0,0.0,0.0,0.0,0.0,-5.668,-5.6793,0.0,0.0,0.0,0.0,0.0,0.0,0.0,0.0,-5.855,-5.9473,-6.0204,-6.0666,-6.0781,-6.0781,-6.1166,-6.1947,-6.1166,-6.155,-6.2974,-6.2974,-6.3782,-6.5243,-6.5936,-6.709,-6.8436,-6.6898,-6.6705,-6.7128,-6.4166,-6.3474,-6.4128,0.0,-6.2589,-6.3205,-6.2512,0.0,0.0,0.0,-6.8013,-6.9013,-6.9552,-7.2937,-7.7092,-7.9208,-8.2631,-8.6324,-8.8979,-9.1902,-9.4403,-9.5134,-9.371,-9.1441,-8.8786,-8.417,-7.9208,-7.4938,0.0,-6.9244,-6.8398,-6.9783,-7.2245,-7.5745,0.0,-8.3247,-8.8479,-8.9286,-9.0248,-9.271,-9.2979,-9.2979,-9.2979,-9.2979,-9.3595,-9.5057,-9.448,-9.4711,-9.6211,-9.6288,-9.6288,-9.6288,-9.6288,-9.6288,-9.6288,-9.6288,-9.6288,-9.6288,-9.6288,-9.6288,-9.6288,-9.5403,-9.4518,-9.3672,-9.2864,-9.2018,-9.1133,-9.0133,-8.9748,-8.9594,-8.7902,-8.7209,-8.7055,-8.5478,-8.4362,-8.3478,0.0,0.0,0.0,0.0,0.0,0.0,0.0,0.0,0.0,0.0,-5.7031,-5.6598,0.0,0.0,0.0,0.0,0.0,0.0,0.0,0.0,0.0,-5.9435,-5.9627,-6.005,-6.0781,-6.0781,-6.0858,-6.1012,-6.0858,-6.0935,-6.1243,-6.1243,-6.1396,-6.1704,-6.182,-6.205,-6.232,-6.2012,-6.1973,-6.205,-6.1473,-6.1743,-6.2524,-6.2216,0.0,0.0,0.0,0.0,0.0,0.0,-6.9667,-7.2129,-7.563,-7.8323,-8.1093,-8.5593,-8.844,-9.0825,-9.4095,-9.5903,-9.6865,-9.7019,-9.3672,-8.9517,-8.6286,-8.1054,0.0,0.0,-6.9552,-6.8359,-6.7475,-6.986,-7.3322,-7.74,0.0,0.0,0.0,0.0,-9.3518,0.0,0.0,0.0,0.0,0.0,0.0,0.0,-9.5942,-9.598,-9.6288,-9.6288,-9.6288,-9.6288,-9.6288,-9.6288,-9.6288,-9.6288,-9.6288,-9.6288,-9.6288,-9.6288,-9.6288,-9.5403,-9.4518,-9.3672,-9.2864,-9.2018,-9.1095,-8.9556,-8.8902,-8.8748,-8.7017,-8.6324,-8.6209,-8.5247,-8.4362,-8.3478,0.0,0.0,0.0,0.0,0.0,0.0,0.0,-5.7265,-5.7578,-5.8476,-5.8203,-5.7772,-5.7254,-5.6785,-5.6454,0.0,0.0,0.0,0.0,0.0,0.0,-6.01,-6.0165,-6.0358,-6.0781,-6.0781,-6.1012,-6.1485,0.0,-6.1012,-6.1485,-6.1012,-6.0781,-6.0781,-6.0781,-6.0781,-6.0819,-6.1293,-6.1485,-6.1524,-6.1935,-6.2627,-6.3397,0.0,0.0,0.0,0.0,0.0,0.0,0.0,-7.0667,-7.4168,-7.7977,-8.217,-8.6324,-8.9671,-9.2479,-9.4941,-9.7019,-9.8211,-9.8519,-9.7211,-9.271,-8.7594,-8.3785,0.0,0.0,0.0,-6.8013,-6.7744,-6.7782,0.0,0.0,0.0,0.0,0.0,0.0,0.0,0.0,0.0,0.0,0.0,0.0,0.0,-9.6288,-9.6288,-9.6288,-9.6288,-9.6288,-9.6288,-9.6288,-9.6288,-9.6288,-9.6288,-9.6288,-9.6288,-9.6288,-9.6288,-9.6288,-9.6057,-9.5595,-9.4711,-9.3864,-9.3018,-9.2172,-9.1595,-9.1056,-8.9402,-8.8709,-8.8517,-8.6786,-8.6094,-8.594,-8.467,-8.3939,-8.3401,0.0,0.0,0.0,0.0,0.0,0.0,-5.7773,-5.789,-5.8359,-5.957,-5.9414,-5.8984,-5.8476,-5.75,-5.6833,0.0,0.0,0.0,0.0,0.0,0.0,0.0,0.0,0.0,0.0,0.0,0.0,-6.1831,-6.1127,0.0,0.0,0.0,0.0,0.0,-6.0781,-6.0896,-6.1127,-6.1831,-6.2216,0.0,0.0,-6.382,0.0,0.0,0.0,0.0,0.0,0.0,0.0,0.0,-7.1129,-7.4745,-7.7977,-8.3901,-8.9979,-9.171,-9.4864,-9.798,-9.8827,-9.9558,-9.9519,-9.7134,-9.1672,-8.5863,-8.1977,-7.5822,0.0,0.0,-6.7513,-6.7859,-6.8552,0.0,0.0,0.0,0.0,0.0,0.0,0.0,0.0,0.0,0.0,0.0,0.0,0.0,0.0,-9.6288,-9.6288,-9.6288,-9.6288,-9.6288,-9.6288,-9.6288,-9.6288,-9.6288,-9.6288,-9.6288,-9.6288,-9.6288,-9.6288,-9.5826,-9.498,-9.4095,-9.3249,-9.2441,-9.1595,-9.121,-9.1056,-8.9402,-8.8709,-8.8517,-8.6786,-8.6094,-8.5901,-8.4209,-8.3593,-8.3362,0.0,0.0,0.0,0.0,0.0,0.0,-5.7773,-5.789,-5.875,-6.1172,-6.0156,-5.9453,-6.0117,-5.875,-5.7773,0.0,0.0,0.0,0.0,0.0,0.0,0.0,0.0,0.0,0.0,0.0,0.0,-6.0935,-6.0819,0.0,0.0,0.0,0.0,0.0,0.0,-6.1243,-6.1985,-6.2062,0.0,0.0,0.0,0.0,0.0,0.0,0.0,0.0,0.0,0.0,0.0,0.0,0.0,-7.2899,-7.5515,-8.2093,-8.9133,-9.0825,0.0,0.0,-9.975,-9.9981,-9.9635,-9.7827,-9.121,-8.4439,-8.1708,0.0,0.0,-6.8629,-6.8898,-6.9475,-6.959,-7.036,-7.1822,0.0,0.0,-7.74,0.0,0.0,0.0,0.0,0.0,0.0,0.0,0.0,0.0,-9.6288,-9.6288,-9.6288,-9.6288,-9.6288,-9.6288,-9.6288,-9.6288,-9.6288,-9.6288,-9.6288,-9.6288,-9.6288,-9.6288,-9.5826,-9.498,-9.4095,-9.3249,-9.2441,-9.1595,-9.121,-9.1056,-8.9402,-8.8709,-8.8517,-8.6786,-8.6094,-8.5901,-8.4209,-8.3593,-8.3362,0.0,0.0,0.0,0.0,0.0,0.0,-5.8476,-5.8672,-5.9414,-6.1445,-6.1133,-6.082,-6.1133,-6.0117,-5.8984,-5.8008,-5.7848,0.0,0.0,0.0,0.0,0.0,0.0,0.0,0.0,0.0,-6.0781,-6.0781,-6.0781,0.0,0.0,0.0,0.0,0.0,0.0,0.0,-6.2139,-6.2627,0.0,0.0,0.0,0.0,0.0,0.0,0.0,0.0,0.0,0.0,0.0,0.0,0.0,0.0,-7.0475,-7.5053,0.0,0.0,-9.2133,-9.6249,-9.8673,-10.0404,-10.0712,-9.6942,-9.0787,-8.4555,-8.0477,0.0,-6.986,-6.8667,-6.909,-6.9706,-6.9706,-7.036,-7.1245,-7.2245,-7.2399,0.0,0.0,0.0,0.0,0.0,0.0,0.0,0.0,0.0,-9.6288,-9.6288,-9.6288,-9.6288,-9.6288,-9.6288,-9.6288,-9.6288,-9.6288,-9.6288,-9.6288,-9.6288,-9.6288,-9.6288,-9.6288,-9.5557,-9.421,-9.3864,-9.2979,-9.171,-9.1364,-9.0902,-9.0325,-8.9171,-8.8402,-8.7786,-8.6594,-8.6094,-8.5901,-8.4209,-8.3593,-8.3362,0.0,0.0,0.0,0.0,0.0,-5.7187,-5.8945,-5.9219,-5.9883,-6.1836,-6.1875,-6.1719,-6.1719,-6.0937,-5.9922,-5.875,-5.8633,0.0,0.0,0.0,0.0,0.0,0.0,0.0,0.0,0.0,-6.0781,-6.0781,-6.0781,-6.0935,0.0,0.0,0.0,0.0,0.0,0.0,0.0,0.0,0.0,0.0,0.0,0.0,0.0,0.0,0.0,0.0,0.0,0.0,0.0,0.0,0.0,0.0,0.0,0.0,0.0,0.0,-8.7902,-9.2864,-9.5749,-9.8788,-9.9981,-9.5403,-8.9787,-8.417,0.0,-7.413,-6.9898,-6.9283,-6.9629,-7.0052,-7.0052,-7.0514,-7.0898,-7.0898,0.0,-7.2322,0.0,0.0,0.0,0.0,0.0,0.0,0.0,-9.5711,-9.6288,-9.6288,-9.6288,-9.6288,-9.6288,-9.6288,-9.6288,-9.6288,-9.6288,-9.6288,-9.6288,-9.6288,-9.6288,-9.6288,-9.6288,-9.5403,-9.371,-9.371,-9.2787,-9.121,-9.0941,-9.0479,-8.9825,-8.8748,-8.794,-8.7325,-8.644,-8.594,-8.5555,-8.4132,-8.3593,-8.3362,0.0,0.0,0.0,0.0,0.0,-5.7187,-5.8945,-5.9219,-6.0117,-6.2656,-6.2226,-6.1719,-6.1719,-6.0937,-6.039,-6.039,-6.0351,0.0,0.0,0.0,0.0,0.0,0.0,0.0,-6.0793,-6.0781,-6.0781,-6.0781,-6.0781,-6.1243,-6.2062,-6.1204,-6.1243,-6.2101,0.0,0.0,0.0,0.0,-6.5089,0.0,0.0,0.0,-6.5897,0.0,0.0,0.0,0.0,0.0,0.0,0.0,0.0,0.0,0.0,-6.709,-6.9475,0.0,-8.2131,-8.9133,-9.0825,-9.4364,-9.6749,-9.3364,-8.8017,-8.2708,0.0,-7.4553,-7.0898,-7.0898,-7.0898,-7.0898,-7.0898,-7.0898,-7.0898,-7.0898,-7.0898,0.0,0.0,0.0,0.0,0.0,0.0,0.0,0.0,-9.4326,-9.6288,-9.6288,-9.6288,-9.6288,-9.6288,-9.6288,-9.6288,-9.6288,-9.6288,-9.6288,-9.6288,-9.6288,-9.6288,-9.6288,-9.6288,-9.5403,-9.371,-9.371,-9.2787,-9.1171,-9.0287,-8.9902,-8.9787,-8.8094,-8.7401,-8.7325,-8.644,-8.5632,-8.4824,-8.3901,-8.3593,-8.3362,0.0,0.0,0.0,0.0,0.0,0.0,-5.8125,-5.8828,-5.9687,-6.1055,-6.1484,-6.1719,-6.1719,-6.1445,-6.1289,-6.1289,-6.0742,0.0,0.0,0.0,0.0,0.0,0.0,0.0,-6.0925,-6.0856,-6.1089,-6.1678,-6.1678,-6.2089,-6.2897,-6.2627,-6.2666,-6.2935,-6.2935,-6.3397,0.0,-6.4474,-6.5089,0.0,0.0,-6.5897,-6.5897,0.0,0.0,0.0,0.0,0.0,0.0,0.0,0.0,0.0,0.0,0.0,0.0,-7.1052,-7.6476,-8.2477,-8.594,-8.8286,-8.9325,-8.7709,-8.4132,-8.0246,-7.7438,-7.4207,-7.1629,-7.1014,-7.0898,-7.0898,-7.0898,-7.0898,-7.0898,-7.0898,-7.0898,0.0,0.0,0.0,0.0,0.0,0.0,0.0,0.0,0.0,-9.6288,-9.6288,-9.6288,-9.6288,-9.6288,-9.6288,-9.6288,-9.6288,-9.6288,-9.6019,-9.5403,-9.5403,-9.5095,-9.4518,-9.4518,-9.3941,-9.2864,-9.2864,-9.2287,-9.1171,-9.0287,-8.9594,-8.8979,-8.7863,-8.7055,-8.644,-8.5593,-8.5132,-8.4709,-8.3247,-8.2708,-8.2554,0.0,0.0,0.0,0.0,0.0,0.0,-5.8203,-5.8867,-5.9609,-6.0742,-6.1367,-6.1719,-6.1719,-6.1719,-6.1719,-6.1719,-6.1211,0.0,0.0,0.0,0.0,0.0,0.0,0.0,-6.1006,-6.086,-6.1235,-6.2165,-6.2429,-6.2995,-6.388,-6.3792,-6.3782,-6.3782,-6.3782,-6.4089,0.0,-6.5282,-6.5667,-6.5974,-6.659,-6.6474,-6.5974,0.0,0.0,0.0,0.0,0.0,0.0,0.0,0.0,0.0,0.0,0.0,0.0,0.0,-7.2514,-7.6553,-8.0862,-8.3324,-8.4401,-8.3247,-8.09,-7.8207,-7.563,-7.3322,-7.1552,-7.1014,-7.0898,-7.0898,-7.0898,-7.0898,-7.0898,-7.0898,-7.0898,0.0,0.0,0.0,0.0,0.0,0.0,0.0,0.0,-9.5557,-9.6288,-9.6288,-9.6288,-9.6288,-9.6288,-9.598,-9.5942,-9.6288,-9.598,-9.5557,-9.5018,-9.4672,-9.4249,-9.371,-9.371,-9.3287,-9.2479,-9.2479,-9.2018,-9.1133,-8.9979,-8.9171,0.0,-8.7401,-8.6594,-8.6017,-8.5209,-8.4709,-8.4247,-8.2824,-8.2285,-8.217,0.0,0.0,0.0,0.0,0.0,0.0,0.0,-5.914,-5.9765,-6.1406,-6.164,-6.1719,-6.1719,-6.1719,-6.1719,-6.1719,-6.1719,0.0,0.0,0.0,0.0,0.0,0.0,-6.1214,-6.1031,-6.0892,-6.1345,-6.2379,-6.3031,-6.3852,-6.4909,-6.4783,-6.4705,-6.4705,-6.4705,-6.4705,-6.4782,-6.6359,-6.6628,-6.6128,-6.7667,-6.7398,0.0,0.0,0.0,0.0,0.0,0.0,0.0,0.0,0.0,0.0,0.0,0.0,0.0,0.0,0.0,0.0,0.0,-7.9131,-8.1131,-7.9708,-7.813,-7.6322,-7.3937,-7.2168,0.0,-7.0898,-7.0937,-7.0975,-7.0898,-7.0937,-7.0975,-7.0898,0.0,0.0,0.0,0.0,0.0,0.0,0.0,0.0,-9.1325,-9.4326,-9.6288,-9.6288,-9.6288,-9.6288,-9.6288,-9.548,-9.5365,-9.6172,-9.5288,-9.4826,-9.4903,-9.4057,-9.3595,-9.3518,-9.3518,-9.3133,-9.2402,-9.2326,-9.1864,-9.1018,-8.9325,-8.8594,-8.8479,-8.6786,-8.6055,-8.594,-8.5132,-8.4286,-8.3401,-8.2516,-8.2208,-8.2093,0.0,0.0,0.0,0.0,0.0,0.0,0.0,0.0,0.0,0.0,-6.1289,-6.1719,-6.1719,-6.1719,-6.1719,0.0,0.0,0.0,0.0,0.0,0.0,0.0,-6.1413,-6.1271,-6.1227,-6.1031,-6.1726,-6.3291,-6.3449,-6.43,-6.5799,-6.567,-6.559,-6.559,-6.559,-6.559,-6.5628,-6.6013,-6.6436,-6.6859,-6.7244,-6.759,0.0,0.0,0.0,0.0,-6.8282,-6.8821,0.0,0.0,0.0,0.0,0.0,0.0,0.0,0.0,-7.0744,-7.1129,-7.2129,0.0,-7.3783,-7.4745,-7.4168,-7.3245,0.0,-7.2168,-7.1706,-7.1052,0.0,-7.1668,-7.1014,-7.1437,-7.1668,0.0,0.0,0.0,0.0,0.0,0.0,0.0,0.0,-9.4326,-9.2364,-9.4672,-9.6288,-9.6288,-9.6288,-9.6288,-9.6288,-9.548,-9.5095,-9.5288,-9.3864,-9.3364,-9.398,-9.3172,-9.2441,-9.1787,-9.1787,-9.171,-9.1479,-9.0825,-9.0402,-9.0133,-8.844,-8.7709,-8.7632,-8.6555,-8.5747,-8.5093,-8.4247,-8.3362,-8.2516,-8.167,-8.1362,-8.1362,0.0,0.0,0.0,0.0,0.0,0.0,0.0,0.0,0.0,0.0,-6.1406,-6.1719,-6.1719,-6.1719,-6.1719,0.0,0.0,0.0,0.0,0.0,0.0,-6.1719,-6.1424,-6.1283,-6.1283,-6.1112,-6.1871,-6.3682,-6.3985,-6.507,-6.6803,-6.6962,-6.6821,-6.6436,-6.6051,-6.5897,-6.5936,-6.6705,-6.7051,-6.7205,-6.8359,0.0,0.0,0.0,0.0,0.0,-6.9283,-6.9629,0.0,-7.0129,-7.0821,-7.1437,0.0,0.0,0.0,0.0,-7.0898,-7.0898,-7.0898,-7.0898,-7.1129,-7.2091,-7.1937,-7.1591,-7.1591,0.0,0.0,0.0,0.0,0.0,0.0,0.0,0.0,0.0,0.0,0.0,0.0,0.0,0.0,0.0,0.0,-9.448,0.0,-9.5134,-9.5711,-9.5711,-9.5326,-9.5095,-9.5095,-9.4287,-9.4018,-9.4403,-9.2787,-9.2287,-9.3133,-9.1902,-9.1056,-9.0594,-9.0594,-9.0594,-9.0594,-9.0133,-8.9902,-8.9825,-8.8132,-8.7171,-8.6748,-8.5901,-8.5055,-8.4209,-8.3324,-8.2708,-8.2208,-8.14,-8.1093,-8.1093,0.0,0.0,0.0,0.0,0.0,0.0,0.0,0.0,0.0,0.0,0.0,0.0,0.0,0.0,0.0,0.0,0.0,0.0,0.0,0.0,-6.1719,-6.1719,-6.1478,-6.1312,-6.1289,-6.1289,-6.2111,-6.3792,-6.4621,-6.5924,-6.7578,-6.8127,-6.7936,-6.7051,-6.6397,-6.6013,-6.6013,-6.7552,-6.7859,-6.7513,-6.9783,0.0,0.0,0.0,0.0,0.0,0.0,0.0,0.0,-7.0821,-7.1591,-7.2091,-7.1475,0.0,0.0,0.0,0.0,0.0,-7.1052,-7.1014,-7.0898,-7.0898,-7.1014,-7.1091,-7.1091,0.0,0.0,0.0,0.0,0.0,0.0,-7.3091,0.0,0.0,0.0,0.0,0.0,0.0,0.0,0.0,0.0,0.0,-9.5365,-9.5211,-9.4941,-9.4788,-9.4095,-9.371,-9.371,-9.2941,-9.2826,-9.348,-9.2018,-9.1479,-9.2095,-9.0633,-8.9863,-8.971,-8.971,-8.971,-8.971,-8.9594,-8.9517,-8.944,-8.7748,-8.6594,-8.5863,-8.5055,-8.417,-8.3324,-8.2593,-8.2208,-8.2016,-8.1362,-8.1093,-8.1093,0.0,0.0,0.0,0.0,0.0,0.0,0.0,0.0,0.0,0.0,0.0,0.0,0.0,0.0,0.0,0.0,0.0,0.0,0.0,-6.1719,-6.1719,-6.1719,-6.1568,-6.1404,-6.1289,-6.2089,-6.2946,-6.378,-6.5375,-6.6571,-6.7434,-6.8111,-6.7936,-6.709,-6.6974,-6.6551,-6.5974,-6.6898,-6.7667,-6.8321,-6.9436,0.0,0.0,0.0,0.0,0.0,0.0,0.0,0.0,-7.1706,-7.2091,-7.2322,-7.2899,0.0,0.0,0.0,0.0,0.0,-7.1783,-7.1475,-7.0898,-7.0898,-7.1437,-7.2014,-7.2014,-7.2552,0.0,0.0,0.0,0.0,0.0,-7.3976,-7.4284,0.0,0.0,0.0,0.0,0.0,0.0,-8.9902,0.0,-9.4749,-9.2249,-9.3787,-9.4672,-9.3941,-9.3787,-9.371,-9.371,-9.2941,-9.2556,-9.2672,-9.171,-9.0902,-9.0325,-9.0056,-8.9556,-8.8863,-8.8863,-8.8863,-8.8863,-8.8132,-8.7786,-8.7671,-8.6017,-8.5209,-8.5016,-8.4132,-8.3285,-8.2477,-8.2362,-8.1862,-8.1285,-8.1131,-8.1093,-8.1093,0.0,0.0,0.0,0.0,0.0,0.0,0.0,0.0,0.0,0.0,0.0,0.0,0.0,0.0,0.0,0.0,0.0,0.0,0.0,-6.1719,-6.1874,-6.2288,-6.2291,-6.223,-6.2102,-6.2478,-6.3497,-6.5219,-6.6384,-6.7549,-6.8761,-6.8511,-6.8205,-6.7744,-6.6859,-6.6244,-6.5974,-6.7244,-6.8052,-6.85,0.0,0.0,0.0,0.0,0.0,0.0,0.0,0.0,0.0,0.0,-7.2514,-7.2976,-7.336,0.0,0.0,0.0,0.0,0.0,-7.2091,-7.1552,-7.1014,-7.1475,-7.1898,-7.2322,-7.2783,-7.3206,0.0,0.0,0.0,0.0,0.0,0.0,-7.6284,-7.6823,0.0,-8.0977,-8.3785,-8.5978,-8.794,0.0,0.0,-9.3287,-9.2633,-9.321,-9.3287,-9.2402,-9.1902,-9.1672,-9.1672,-9.0864,-9.0633,-9.1095,-9.0287,-8.944,-8.8556,-8.8556,-8.8363,-8.7979,-8.7979,-8.7979,-8.7979,-8.7594,-8.7132,-8.6632,-8.544,-8.4362,-8.3478,-8.3054,-8.2401,-8.1631,-8.1631,-8.1439,-8.1093,-8.1093,-8.1093,-8.1093,0.0,0.0,0.0,0.0,0.0,0.0,0.0,0.0,0.0,0.0,0.0,0.0,0.0,0.0,0.0,0.0,0.0,0.0,0.0,-6.1719,-6.195,-6.2508,-6.2847,-6.3119,-6.3383,-6.3453,-6.4627,-6.7003,-6.7868,-6.902,-7.0397,-6.9245,-6.859,-6.8346,-6.6821,-6.609,-6.6013,-6.7705,-6.8385,-6.8552,0.0,0.0,0.0,0.0,0.0,0.0,0.0,0.0,0.0,0.0,0.0,0.0,0.0,0.0,0.0,-7.3976,-7.3014,-7.2206,-7.2206,-7.1552,-7.1168,-7.2245,-7.2514,-7.2783,-7.386,-7.4245,-7.4399,0.0,0.0,0.0,0.0,0.0,0.0,-7.9785,-8.1516,-8.3131,-8.4593,-8.6247,-8.8094,-9.0248,-9.1248,-9.221,-9.3326,-9.2672,-9.1825,-9.0979,-9.0094,-8.9633,-8.9633,-8.8825,-8.8786,-8.9594,-8.8825,-8.8055,-8.7401,-8.7401,-8.7209,-8.6824,-8.7017,-8.7017,-8.6824,-8.7017,-8.6632,-8.5786,-8.4939,-8.3708,-8.2285,-8.2093,-8.167,-8.1093,-8.1093,-8.1093,-8.1093,-8.1093,-8.1093,-8.1093,0.0,0.0,0.0,0.0,0.0,0.0,0.0,0.0,0.0,0.0,0.0,0.0,0.0,0.0,0.0,0.0,0.0,0.0,-6.1719,-6.1719,-6.1719,-6.1796,-6.2578,-6.3705,-6.5181,-6.5943,-6.7092,-6.8741,-7.0195,-7.129,-7.2017,-7.0373,-6.9167,-6.8359,-6.7436,-6.659,-6.6013,-6.7705,-6.8385,-6.8552,-7.0244,0.0,0.0,0.0,0.0,0.0,0.0,0.0,0.0,0.0,0.0,0.0,0.0,0.0,-7.4707,-7.463,-7.3476,-7.2206,-7.2206,-7.1552,-7.1283,-7.3014,-7.3399,-7.3822,-7.5438,-7.6438,-7.7015,-7.7015,0.0,0.0,0.0,-7.6669,0.0,0.0,-8.2401,-8.4632,-8.7863,0.0,-9.121,-9.2172,-9.3018,-9.3249,-9.2633,-9.1787,-9.0941,-9.0056,-8.9248,-8.8786,-8.8786,-8.794,-8.7902,-8.8748,-8.794,-8.744,-8.7401,-8.7401,-8.6632,-8.5093,-8.5824,-8.5786,-8.5132,-8.5863,-8.5747,-8.4939,-8.4055,-8.317,-8.2247,-8.1477,-8.1131,-8.1093,-8.1093,-8.1093,-8.1093,-8.1093,-8.1093,-8.1093,0.0,0.0,0.0,0.0,0.0,0.0,0.0,0.0,0.0,0.0,0.0,0.0,0.0,0.0,0.0,0.0,0.0,0.0,-6.1719,-6.1719,-6.2187,-6.3281,-6.3633,-6.4843,-6.7101,-6.7204,-6.8235,-7.0329,-7.134,-7.1673,-7.136,-7.0244,-6.9244,-6.8359,-6.7475,-6.7244,-6.7513,-6.8129,-6.8706,-6.9321,-7.0437,-7.0898,0.0,0.0,0.0,0.0,0.0,0.0,0.0,0.0,-7.3808,-7.4437,-7.563,-7.5784,-7.5515,-7.5515,-7.4322,-7.3014,-7.3014,-7.236,-7.2014,-7.3206,-7.3899,-7.4707,-7.6399,-7.7438,-7.8054,-7.8054,-7.8477,0.0,0.0,0.0,-7.9515,-8.1516,-8.417,-8.6594,-8.844,-9.0594,-9.1941,-9.171,-9.1979,-9.1825,-9.0979,-9.0133,-8.9286,-8.8402,-8.7555,-8.7094,-8.7094,-8.5786,-8.544,-8.6324,-8.5478,-8.5016,-8.5016,-8.5016,-8.4439,-8.3285,-8.4709,-8.4901,-8.4093,-8.4401,-8.4093,-8.3247,-8.2939,-8.2324,-8.1516,-8.1246,-8.1093,-8.1093,-8.1093,-8.1093,-8.1093,-8.1093,-8.1093,-8.1093,0.0,0.0,0.0,0.0,0.0,0.0,0.0,0.0,0.0,0.0,0.0,0.0,0.0,0.0,0.0,0.0,0.0,0.0,-6.1719,-6.1953,-6.2656,-6.3828,-6.414,-6.5349,-6.7592,-6.8148,-6.936,-7.128,-7.1877,-7.1745,-7.0898,-7.009,-6.9244,-6.8359,-6.7782,-6.7859,-6.8436,-6.8706,-6.9167,-6.9783,-7.0591,-7.0898,0.0,0.0,0.0,0.0,0.0,0.0,0.0,0.0,-7.386,-7.4514,-7.5668,-7.6015,-7.5938,-7.5668,-7.4591,-7.3437,-7.3168,-7.2437,-7.2052,-7.3206,-7.3899,-7.4899,-7.7169,-7.8323,-7.9054,-7.9592,-7.9746,-7.9631,-7.9015,0.0,0.0,0.0,-8.4901,-8.7094,-8.8479,-9.0402,-9.1364,-9.0517,-9.0633,-9.0479,-8.9594,-8.8517,-8.7632,-8.7017,-8.594,-8.5324,-8.5324,-8.3939,-8.3593,-8.4478,-8.3632,-8.3324,-8.3593,-8.3593,-8.317,-8.2324,-8.3516,-8.3785,-8.3208,-8.3478,-8.3131,-8.2285,-8.2285,-8.1823,-8.1093,-8.1093,-8.1093,-8.1093,-8.1093,-8.1093,-8.1093,-8.1093,-8.1093,-8.1093,0.0,0.0,0.0,0.0,0.0,0.0,0.0,0.0,-6.1719,-6.1719,-6.1719,0.0,0.0,0.0,0.0,0.0,0.0,0.0,-6.1758,-6.2539,-6.3008,-6.3008,-6.3867,-6.4972,-6.6381,-6.8889,-7.0594,-7.1496,-7.1947,-7.1745,-7.086,-7.0052,-6.9244,-6.8436,-6.8436,-6.8436,-6.8513,-6.936,-6.9706,-6.9783,-7.0591,-7.0898,-7.0898,0.0,0.0,0.0,0.0,0.0,0.0,0.0,-7.3514,-7.3822,-7.5476,-7.5976,-7.5822,-7.4976,-7.413,-7.3322,-7.2476,-7.1591,-7.1321,-7.3091,0.0,0.0,-7.7746,-7.9169,-8.0285,-8.1939,-8.0977,-7.9823,-7.9823,-7.9092,0.0,-8.3016,-8.4324,-8.5786,-8.8325,-8.9363,-8.9594,-8.8786,-8.9363,-8.9556,-8.8748,-8.7094,-8.6094,-8.6094,-8.4516,-8.3593,-8.3593,-8.2747,-8.267,-8.3555,-8.2747,-8.2708,-8.3555,-8.3555,-8.3131,-8.2285,-8.2285,-8.2285,-8.2324,-8.317,-8.3093,-8.2285,-8.2285,-8.1823,-8.1093,-8.1093,-8.1093,-8.1093,-8.1093,-8.1093,-8.1093,-8.1093,-8.1093,-8.1093,0.0,0.0,0.0,0.0,0.0,0.0,0.0,0.0,-6.1719,-6.1719,-6.1719,0.0,0.0,0.0,0.0,0.0,0.0,0.0,-6.2578,-6.2851,-6.3555,-6.4765,-6.4948,-6.5496,-6.6533,-6.7641,-6.9178,-7.1074,-7.1223,-7.0552,-6.9167,-6.9513,-6.986,-7.0129,-6.959,-6.9975,-7.1014,-7.009,-7.0014,-7.0552,-7.0783,-7.0898,-7.0898,0.0,0.0,0.0,0.0,0.0,0.0,0.0,0.0,0.0,-7.513,-7.5515,-7.5938,-7.5707,-7.463,-7.3591,-7.386,-7.336,0.0,-7.4091,0.0,0.0,0.0,-7.9169,0.0,0.0,-8.1439,-8.0516,-7.99,-7.9592,0.0,-8.1593,-8.3555,-8.5363,-8.6709,-8.8132,-8.8748,-8.7902,-8.7478,-8.6901,-8.6094,-8.5016,-8.4324,-8.4324,-8.3324,-8.267,-8.267,-8.19,-8.1554,-8.1823,-8.1593,-8.1593,-8.1823,-8.1823,-8.1708,-8.1477,-8.1477,-8.1477,-8.1477,-8.1708,-8.1708,-8.1477,-8.1477,-8.1323,-8.1093,-8.1093,-8.1093,-8.1093,-8.1093,-8.1093,-8.1093,-8.1093,-8.1093,-8.1093,0.0,0.0,0.0,0.0,0.0,0.0,0.0,0.0,-6.1719,-6.1719,-6.1719,-6.1719,0.0,0.0,0.0,0.0,0.0,0.0,-6.3515,-6.3828,-6.4492,-6.5547,-6.5403,-6.5796,-6.6902,-6.7172,-6.7981,-6.9398,-6.9744,-6.9398,-6.8436,-6.9629,-7.0437,-7.0898,-7.1129,-7.1591,-7.2129,-7.1129,-7.0975,-7.1398,-7.1398,-7.1629,-7.1898,0.0,0.0,0.0,0.0,0.0,0.0,0.0,0.0,0.0,-7.5168,-7.5592,-7.6015,-7.6015,-7.5053,-7.4091,-7.4591,-7.413,0.0,-7.4938,-7.6015,-7.7169,-7.8669,0.0,0.0,0.0,-8.2439,-8.1823,-8.0939,-8.0516,0.0,-8.1439,-8.2862,-8.417,-8.4978,-8.6324,-8.6863,-8.5978,-8.5747,-8.5286,-8.4478,-8.3593,-8.3093,-8.3093,-8.2285,-8.1823,-8.1823,-8.1362,-8.1093,-8.1093,-8.1093,-8.1093,-8.1093,-8.1093,-8.1093,-8.1093,-8.1093,-8.1093,-8.1093,-8.1093,-8.1093,-8.1093,-8.1093,-8.1093,-8.1093,-8.1093,-8.1093,-8.1093,-8.1093,-8.1093,-8.1093,-8.1093,-8.1093,-8.1093,0.0,0.0,-6.1719,-6.1719,0.0,0.0,0.0,0.0,-6.1719,-6.1719,-6.1719,-6.1719,0.0,0.0,0.0,0.0,0.0,0.0,0.0,-6.5156,-6.5625,-6.5703,-6.5516,-6.6018,-6.7319,-6.7135,-6.6974,-6.6974,-6.7859,-6.8321,-6.8423,-7.0052,-7.0898,-7.1206,-7.2706,-7.2976,-7.2322,-7.2129,-7.2129,-7.2206,-7.2206,-7.2706,-7.3399,-7.2514,0.0,0.0,0.0,0.0,0.0,0.0,0.0,0.0,-7.5438,-7.5938,-7.6015,-7.6015,-7.5399,-7.4707,-7.4822,0.0,0.0,-7.5707,-7.6245,0.0,-7.9361,-8.1708,-8.3362,-8.3362,0.0,-8.3208,-8.2362,-8.1593,-8.1323,-8.2054,-8.2247,-8.2593,-8.3362,-8.4247,-8.4478,-8.3593,-8.417,-8.4324,-8.3439,-8.267,-8.217,-8.217,-8.1516,-8.1093,-8.1093,-8.1093,-8.1093,-8.1093,-8.1093,-8.1093,-8.1093,-8.1093,-8.1093,-8.1093,-8.1093,-8.1093,-8.1093,-8.1093,-8.1093,-8.1093,-8.1093,-8.1093,-8.1093,-8.1093,-8.1093,-8.1093,-8.1093,-8.1093,-8.1093,-8.1093,-8.1093,-8.1093,0.0,0.0,-6.1719,-6.1719,0.0,0.0,0.0,0.0,0.0,-6.1719,-6.1719,0.0,0.0,0.0,0.0,0.0,0.0,0.0,0.0,-6.5508,-6.5898,-6.6601,-6.6323,-6.6462,-6.7138,-6.6512,-6.6167,-6.6167,-6.6974,-6.7744,-6.8436,-6.9475,-7.1014,-7.2937,-7.2629,-7.2745,-7.3129,-7.1745,-7.1552,-7.2206,-7.2206,-7.2706,-7.3399,-7.2514,-7.2206,0.0,0.0,0.0,0.0,0.0,0.0,0.0,-7.5091,-7.5438,-7.6015,-7.6015,-7.5399,-7.4861,-7.5515,-7.5592,0.0,0.0,-7.8015,-7.9323,-8.0554,-8.1246,-8.1631,-8.1631,-8.2131,-8.2324,-8.1516,-8.1208,-8.117,-8.1323,-8.19,-8.2362,-8.2554,-8.3324,-8.3555,-8.267,-8.2747,-8.2554,-8.1708,-8.1477,-8.1362,-8.1362,-8.1208,-8.1093,-8.1093,-8.1093,-8.1093,-8.1093,-8.1093,-8.1093,-8.1093,-8.1093,-8.1093,-8.1093,-8.1093,-8.1093,-8.1093,-8.1093,-8.1093,-8.1093,-8.1093,-8.1093,-8.1093,-8.1093,-8.1093,-8.1093,-8.1093,-8.1093,-8.1093,-8.1093,-8.1093,-8.1093,0.0,0.0,0.0,0.0,0.0,0.0,0.0,0.0,0.0,0.0,0.0,0.0,0.0,0.0,0.0,0.0,-6.4648,-6.5234,-6.6172,-6.6211,-6.6362,-6.6664,-6.6473,-6.6437,-6.6526,-6.609,-6.5897,-6.5897,-6.6705,-6.7552,-6.8436,-6.9706,-7.1437,-7.3462,-7.3014,-7.3091,-7.3399,-7.2091,-7.1783,-7.2245,-7.2629,-7.3322,-7.3976,-7.3129,-7.3053,-7.3283,-7.2476,0.0,0.0,0.0,0.0,0.0,0.0,0.0,-7.6015,-7.6015,-7.5668,-7.5438,0.0,0.0,0.0,0.0,0.0,0.0,-8.1016,-8.1093,-8.1093,-8.1093,-8.1747,-8.2054,-8.1246,-8.14,-8.1554,-8.117,-8.1439,-8.1747,-8.1747,-8.2131,-8.2208,-8.1785,-8.1747,-8.1554,-8.1131,-8.1093,-8.1093,-8.1093,-8.1093,-8.1093,-8.1093,-8.1093,-8.1093,-8.1093,-8.1093,-8.1093,-8.1093,-8.1093,-8.1093,-8.1093,-8.1093,-8.1093,-8.1093,-8.1093,-8.1093,-8.1093,-8.1093,-8.1093,-8.1093,-8.1093,-8.1093,-8.1093,-8.1093,-8.1093,-8.1093,-8.1093,-8.1093,-8.1093,0.0,0.0,0.0,0.0,0.0,0.0,0.0,0.0,0.0,0.0,0.0,0.0,0.0,0.0,-6.4492,0.0,0.0,0.0,-6.6875,0.0,0.0,-6.6588,-6.6418,-6.6278,-6.6102,-6.5974,-6.5897,-6.5897,-6.6859,-6.7782,-6.8667,-7.0206,-7.1822,-7.35,-7.336,-7.336,-7.3423,-7.2399,-7.2129,-7.2476,-7.3206,-7.4091,-7.4861,-7.4014,-7.413,-7.4514,-7.3129,-7.3091,-7.3808,-7.4668,0.0,0.0,0.0,0.0,-7.6015,-7.6015,-7.6015,-7.6015,0.0,0.0,0.0,0.0,0.0,0.0,-8.1093,-8.1093,-8.1093,-8.1093,-8.1631,-8.19,-8.1208,-8.1631,-8.1862,-8.1208,-8.1093,-8.1093,-8.1093,-8.1093,-8.1093,-8.1093,-8.1093,-8.1093,-8.1093,-8.1093,-8.1054,-8.09,-8.1016,-8.0977,-8.0669,-8.0785,-8.0823,-8.0669,-8.0785,-8.0785,-8.0631,-8.0939,-8.1016,-8.09,-8.1016,-8.1093,-8.1093,-8.1093,-8.1093,-8.1093,-8.1093,-8.1093,-8.1093,-8.1093,-8.1093,-8.1093,-8.1093,-8.1093,-8.1093,-8.1093,-8.1093,-8.1093,0.0,0.0,0.0,0.0,0.0,0.0,0.0,0.0,0.0,0.0,-6.1719,-6.2031,0.0,-6.3086,-6.3828,-6.5469,-6.5703,-6.6094,-6.6836,0.0,0.0,-6.7259,-6.6543,-6.6407,-6.691,-6.6244,-6.5897,-6.5897,-6.7475,-6.8667,-6.9552,-7.0475,-7.1822,-7.3476,-7.2706,-7.2783,-7.3399,-7.1745,-7.1937,-7.336,-7.3437,-7.4437,-7.5745,-7.4861,-7.463,-7.4668,-7.4437,-7.4437,-7.4668,-7.5553,-7.5822,0.0,0.0,0.0,-7.6015,-7.6015,-7.6015,-7.6015,0.0,0.0,0.0,0.0,0.0,0.0,0.0,0.0,-8.1093,0.0,-8.1208,-8.1246,-8.1131,-8.1208,-8.1246,-8.1131,-8.1093,-8.1093,-8.1093,-8.1093,-8.1093,-8.1093,-8.1093,-8.1093,-8.1093,-8.1093,-8.0785,-8.0054,-8.0669,-8.0439,-7.8938,-7.9554,-7.9631,-7.8861,-7.9592,-7.9592,-7.8861,-8.0362,-8.0708,-7.9977,-8.0746,-8.1093,-8.1093,-8.1093,-8.1093,-8.1093,-8.1093,-8.1093,-8.1093,-8.1093,-8.1093,-8.1093,-8.1093,-8.1093,-8.1093,-8.1093,-8.1093,-8.1093,0.0,0.0,0.0,0.0,0.0,0.0,0.0,0.0,0.0,0.0,0.0,-6.2773,-6.3633,-6.3711,-6.4219,-6.5508,-6.5586,-6.5936,-6.6662,-6.6592,-6.6543,-6.667,-6.6303,-6.6211,-6.641,-6.609,-6.5897,-6.5897,-6.759,-6.909,-7.0398,-7.1745,-7.3014,-7.413,-7.3283,-7.3399,-7.4091,-7.286,-7.2514,-7.286,-7.3783,-7.4361,-7.463,-7.4668,-7.5014,-7.5361,-7.4899,-7.5014,-7.5476,-7.5861,-7.6015,-7.6015,-7.6015,0.0,0.0,0.0,-7.5322,0.0,-7.5745,0.0,0.0,0.0,0.0,0.0,0.0,0.0,-8.1093,-8.1093,-8.1093,-8.1093,-8.1093,-8.1093,-8.1093,-8.1093,-8.1093,-8.1093,-8.1093,-8.0669,-8.0362,-8.0362,-8.0362,-8.0169,-7.9669,-8.0092,-8.0015,-7.9131,-7.9438,-7.9323,-7.8515,-7.8861,-7.89,-7.8515,-7.8861,-7.89,-7.8477,-7.9746,-8.0439,-8.0516,-8.0939,-8.1093,-8.1093,-8.1093,-8.1093,-8.1093,-8.1093,-8.1093,-8.1093,-8.1093,-8.1093,-8.1093,-8.1093,-8.1093,-8.1093,-8.1093,-8.1093,-8.1093,0.0,0.0,0.0,0.0,0.0,0.0,0.0,0.0,0.0,0.0,0.0,-6.3242,-6.3906,0.0,0.0,0.0,-6.5233,-6.5485,-6.6117,-6.6276,-6.6228,-6.6059,-6.6049,-6.5992,-6.591,-6.5897,-6.5897,-6.5897,-6.759,-6.936,-7.1283,-7.3014,-7.4476,-7.563,-7.4591,-7.4476,-7.4976,-7.3937,-7.336,-7.3245,-7.4053,-7.4168,-7.3899,-7.4707,-7.5284,-7.563,-7.5168,-7.5438,-7.6015,-7.6015,-7.6015,-7.6015,-7.6015,-7.5553,0.0,0.0,0.0,0.0,0.0,0.0,0.0,0.0,0.0,0.0,0.0,0.0,-8.0439,0.0,-8.0439,-8.0439,-8.0439,-8.0785,-8.1016,-8.0823,-8.0785,-8.0708,-8.0477,-7.9862,-7.9477,-7.9477,-7.9477,-7.9208,-7.8554,-7.9092,-7.9131,-7.8246,-7.8361,-7.8284,-7.79,-7.8054,-7.8092,-7.7861,-7.8092,-7.8092,-7.7861,-7.8938,-7.99,-8.0785,-8.0977,-8.1093,-8.1093,-8.1093,-8.1093,-8.1093,-8.1093,-8.1093,-8.1093,-8.1093,-8.1093,-8.1093,-8.1093,-8.1093,-8.1093,-8.1093,-8.1093,-8.1093,0.0,0.0,0.0,0.0,0.0,0.0,0.0,0.0,0.0,0.0,0.0,-6.3008,-6.3047,-6.3828,-6.4336,-6.4375,-6.4239,-6.4398,-6.4864,-6.5672,-6.6049,-6.5909,-6.5923,0.0,-6.5897,-6.5897,-6.5897,-6.5897,-6.759,-6.9667,-7.2168,-7.386,-7.5938,-7.8207,-7.6592,-7.5899,-7.5822,-7.4207,-7.4399,-7.5668,-7.4168,-7.4014,-7.4745,-7.5592,-7.5438,-7.4861,-7.5668,-7.5976,-7.6015,-7.6015,-7.6015,-7.6015,-7.6015,-7.5976,-7.5938,0.0,0.0,0.0,0.0,0.0,0.0,0.0,0.0,0.0,0.0,0.0,0.0,-7.8631,-7.8631,-7.8631,-7.8631,-7.9977,-8.0823,-8.0015,-7.9862,-7.9592,-7.8746,-7.8592,-7.8554,-7.8554,-7.8554,-7.8554,-7.8477,-7.8515,-7.8207,-7.74,-7.8054,-7.7823,-7.6207,-7.6899,-7.6976,-7.6169,-7.6938,-7.6976,-7.613,-7.7746,-7.9015,-7.99,-8.0708,-8.1093,-8.1093,-8.1093,-8.1093,-8.1093,-8.1093,-8.1093,-8.1093,-8.1093,-8.1093,-8.1093,-8.1093,-8.1093,-8.1093,-8.1093,-8.1093,-8.1093,0.0,0.0,0.0,0.0,0.0,0.0,0.0,0.0,0.0,0.0,0.0,0.0,0.0,-6.4101,-6.4531,-6.5078,-6.5406,-6.5602,-6.5634,-6.5831,-6.5943,-6.591,-6.5897,-6.5897,-6.5897,-6.5897,-6.5897,-6.5897,-6.7013,-6.8859,-7.1398,-7.3129,-7.5284,-7.7707,-7.7092,-7.6823,-7.6746,-7.5592,-7.513,-7.5168,-7.513,-7.4938,-7.4822,-7.5668,-7.5822,-7.5592,-7.5899,-7.6015,-7.6015,-7.6015,-7.6015,-7.6015,-7.6015,-7.563,-7.4938,-7.386,-7.3322,-7.3014,0.0,0.0,0.0,0.0,0.0,0.0,0.0,0.0,-7.7861,-7.84,-7.8477,-7.8477,-7.8477,-7.9015,-7.9323,-7.9015,-7.8977,-7.8861,-7.8515,-7.8054,-7.7707,-7.7707,-7.7707,-7.7515,-7.6938,-7.74,-7.7361,-7.6515,-7.6746,-7.663,-7.6015,-7.6284,-7.6322,-7.6015,-7.6284,-7.6592,-7.6823,-7.7438,-7.8438,-7.9823,-8.0131,-8.0554,-8.1093,-8.1093,-8.1093,-8.1093,-8.1093,-8.1093,-8.1093,-8.1093,-8.1093,-8.1093,-8.1093,-8.1093,-8.1093,-8.1093,-8.1093,-8.1093,0.0,0.0,0.0,0.0,0.0,-6.1719,-6.1719,-6.1719,-6.1914,-6.25,0.0,0.0,0.0,0.0,-6.449,-6.4976,-6.5522,-6.5777,-6.5603,-6.5843,-6.599,-6.599,-6.599,-6.599,-6.599,-6.5921,-6.5897,-6.5897,-6.6705,-6.8398,-7.0937,-7.2399,-7.4591,-7.7284,-7.6976,-7.7323,-7.8092,-7.7207,-7.6669,-7.6399,-7.6438,-7.6092,-7.5668,-7.6515,-7.6669,-7.6476,-7.6746,-7.6823,-7.6823,-7.6823,-7.6669,-7.6438,-7.6438,-7.563,-7.4361,-7.2668,-7.2206,-7.2129,-7.1822,0.0,0.0,0.0,0.0,0.0,0.0,0.0,-7.6592,-7.7092,-7.7438,-7.7669,-7.7669,-7.7669,-7.7746,-7.8054,-7.8092,-7.79,-7.7323,-7.6746,-7.6322,-7.6053,-7.6015,-7.5899,-7.5592,-7.6092,-7.6322,-7.6015,-7.6015,-7.6015,-7.6015,-7.6015,-7.6015,-7.6015,-7.6015,-7.6284,-7.6861,-7.713,-7.7977,-7.9361,-7.9669,-8.0246,-8.1093,-8.1093,-8.1093,-8.1093,-8.1093,-8.1093,-8.1093,-8.1093,-8.1093,-8.1093,-8.1093,-8.1093,-8.1093,-8.1093,-8.1093,-8.1093,0.0,0.0,-6.1719,-6.1719,-6.1719,-6.1719,-6.1719,-6.1719,-6.1758,-6.1758,0.0,0.0,0.0,0.0,0.0,-6.3893,-6.4466,-6.4801,-6.4677,-6.5554,-6.6119,-6.6119,-6.6109,-6.6109,-6.6109,-6.599,-6.5897,-6.5897,-6.6667,-6.8359,-7.086,-7.1706,-7.3937,-7.713,-7.6361,-7.7361,-7.9631,-7.8784,-7.8938,-7.9592,-7.7938,-7.7323,-7.74,-7.8207,-7.8015,-7.7438,-7.8207,-7.8477,-7.8477,-7.8477,-7.7977,-7.7323,-7.7323,-7.6092,-7.4361,-7.2745,-7.2245,-7.2014,0.0,0.0,0.0,0.0,0.0,0.0,-7.3476,0.0,-7.463,-7.4668,-7.5361,-7.5938,-7.5938,-7.5938,-7.6207,-7.7053,-7.7207,-7.663,-7.4938,-7.4668,-7.4361,-7.3577,-7.3514,-7.3822,-7.4591,-7.4707,-7.5053,-7.5899,-7.5976,-7.6015,-7.6015,-7.6015,-7.6015,-7.6015,-7.6015,-7.6015,-7.6015,-7.6861,-7.7707,-7.8515,-7.9361,-8.0246,-8.1093,-8.1093,-8.1093,-8.1093,-8.1093,-8.1093,-8.1093,-8.1093,-8.1093,-8.1093,-8.1093,-8.1093,-8.1093,-8.1093,-8.1093,-8.1093,0.0,-6.1719,-6.1719,-6.1719,-6.1719,-6.1719,-6.1719,-6.2226,-6.2656,0.0,0.0,0.0,-6.4805,-6.5664,-6.6086,-6.5847,-6.6,-6.6034,-6.5895,-6.6166,-6.6312,-6.6312,-6.6161,-6.6109,-6.6109,-6.599,-6.5897,-6.5897,-6.6128,-6.7205,-6.9129,-6.9975,-7.1898,-7.4591,-7.5553,-7.6399,-7.7053,-7.6784,-7.7207,-7.7938,-7.7476,-7.763,-7.8169,-7.84,-7.8361,-7.8207,-7.84,-7.8477,-7.8477,-7.8477,-7.8361,-7.8054,-7.7476,-7.5707,-7.386,-7.3976,-7.3129,-7.2129,-7.1898,0.0,0.0,0.0,0.0,0.0,-7.2437,-7.2745,-7.3053,-7.3707,-7.4014,-7.4207,-7.4207,-7.4207,-7.4284,-7.4514,-7.5053,-7.5245,-7.4784,-7.4207,-7.3745,-7.3553,-7.3514,-7.3591,-7.3822,-7.4361,-7.4822,-7.5053,-7.563,-7.6015,-7.6015,-7.6015,-7.6015,-7.6015,-7.6015,-7.6015,-7.6015,-7.6861,-7.7707,-7.8515,-7.9361,-8.0246,-8.1093,-8.1093,-8.1093,-8.1093,-8.1093,-8.1093,-8.1093,-8.1093,-8.1093,-8.1093,-8.1093,-8.1093,-8.1093,-8.1093,-8.1093,-8.1093,-6.1719,-6.1719,-6.1719,-6.1719,-6.1992,-6.2226,-6.2226,-6.2969,-6.3555,0.0,0.0,0.0,-6.6015,-6.7183,-6.7674,-6.7169,-6.7087,-6.6873,-6.6432,-6.6452,-6.6457,-6.6393,-6.6283,-6.6364,-6.6651,-6.6144,-6.6244,-6.6936,-6.659,-6.7282,-6.8936,-6.9475,-7.086,-7.3014,-7.3976,-7.463,-7.4976,-7.5322,-7.6361,-7.7861,-7.8592,-7.9361,-8.0092,-8.0092,-8.0092,-8.0092,-8.0092,-7.9862,-7.9592,-7.9592,-7.9092,-7.8207,-7.6707,-7.5207,-7.4053,-7.4168,-7.3514,-7.2745,-7.2745,-7.2745,-7.2514,-7.1668,0.0,0.0,-7.1629,-7.1937,-7.2322,0.0,-7.3245,-7.3514,-7.3514,-7.3514,-7.3514,-7.3514,-7.3591,-7.3668,-7.3668,-7.3245,-7.2822,-7.2476,-7.2437,-7.2552,-7.2937,-7.3399,-7.3937,-7.4668,-7.5168,-7.563,-7.5976,-7.6015,-7.6015,-7.6015,-7.6015,-7.6015,-7.6015,-7.6515,-7.7323,-7.8515,-7.9015,-7.99,-8.1093,-8.1093,-8.1093,-8.1093,-8.1093,-8.1093,-8.1093,-8.1093,-8.1093,-8.1093,-8.1093,-8.1093,-8.1093,-8.1093,-8.1093,-8.1093,0.0,-6.1719,-6.1719,-6.1836,-6.25,-6.3086,-6.3242,-6.3945,-6.4492,0.0,-6.4687,-6.539,-6.7148,-6.8458,-6.8976,-6.827,-6.7998,-6.7492,-6.6612,-6.6685,-6.665,-6.6393,-6.6484,-6.678,-6.7387,-6.6607,-6.6898,-6.8385,-6.7628,-6.809,-6.9706,-6.9706,-7.0552,-7.2052,-7.2168,-7.2591,-7.3283,-7.4399,-7.6169,-7.8361,-8.0092,-8.1362,-8.217,-8.217,-8.2208,-8.2285,-8.2285,-8.1785,-8.1093,-8.1093,-7.9939,-7.8092,-7.5822,-7.4938,-7.4591,-7.3976,-7.3707,-7.363,-7.3672,-7.3658,-7.3413,-7.2623,-7.2378,0.0,-7.1287,-7.1711,-7.2212,-7.2019,-7.2661,-7.3239,-7.3162,-7.3201,-7.3278,-7.3278,-7.2596,-7.2107,-7.2182,-7.2129,-7.1783,-7.0975,-7.0898,-7.1206,-7.1975,-7.2129,-7.286,-7.4437,-7.4745,-7.5168,-7.5976,-7.6015,-7.6015,-7.6015,-7.6015,-7.6053,-7.613,-7.6245,-7.7053,-7.8631,-7.8746,-7.9592,-8.1093,-8.1093,-8.1093,-8.1093,-8.1093,-8.1093,-8.1093,-8.1093,-8.1093,-8.1093,-8.1093,-8.1093,-8.1093,-8.1093,-8.1093,-8.1093,-6.1719,-6.1719,-6.1914,-6.2617,-6.289,-6.3476,-6.4883,-6.5234,-6.5586,-6.6289,-6.6992,-6.8086,-6.9765,-6.9648,-6.9646,-7.0115,-6.9486,-6.8648,-6.7649,-6.7624,-6.7278,-6.6432,-6.6935,-6.7279,-6.7387,-6.7752,-6.809,-6.8385,-6.8244,-6.8667,-6.9706,-6.9706,-7.0206,-7.1168,-7.1898,-7.1898,-7.1591,-7.4514,-7.6015,-7.663,-7.8323,-7.9939,-8.1323,-8.1323,-8.1747,-8.2285,-8.2285,-8.1785,-8.1093,-8.1093,-7.9939,-7.84,-7.79,-7.6361,-7.4822,-7.5361,-7.5014,-7.4494,-7.4676,-7.4591,-7.4345,-7.3771,-7.3569,0.0,-7.2574,-7.2577,-7.2266,-7.089,-7.1279,-7.1667,-7.096,-7.1434,-7.19,-7.19,-7.163,-7.1588,-7.2132,-7.1591,-7.1091,-7.0937,-7.0898,-7.0975,-7.1129,-7.1783,-7.2629,-7.3668,-7.4976,-7.5822,-7.5976,-7.6015,-7.6015,-7.6015,-7.6015,-7.6322,-7.7053,-7.7669,-7.8515,-7.9554,-8.0246,-8.0785,-8.1093,-8.1093,-8.1093,-8.1093,-8.1093,-8.1093,-8.1093,-8.1093,-8.1093,-8.1093,-8.1093,-8.1093,-8.1093,-8.1093,-8.1093,-8.1093,-6.1719,-6.1719,-6.1953,-6.2851,-6.3359,-6.4258,-6.5976,-6.6601,-6.7344,-6.8633,-6.9922,-7.0742,-7.0703,-7.1133,-7.1211,-7.0742,-7.0228,-6.9542,-6.861,-6.805,-6.7681,-6.7487,-6.7444,-6.7936,-6.9108,-6.8668,-6.9013,-7.0283,-6.9475,-6.9475,-7.0283,-7.0283,-7.0514,-7.0937,-7.136,-7.1321,-7.1052,-7.3668,-7.4976,-7.5592,-7.813,-8.0169,-8.1747,-8.217,-8.2593,-8.2939,-8.2939,-8.2131,-8.1093,-8.1093,-8.0246,-7.9054,-7.8631,-7.7361,-7.6092,-7.6515,-7.6104,-7.5516,-7.5603,-7.5636,-7.5477,-7.4833,-7.4258,0.0,0.0,-7.2457,-7.1913,-7.105,-7.0855,-7.0738,-7.0265,-7.0576,-7.0855,-7.0855,-7.1072,-7.1337,-7.1792,-7.1311,-7.0898,-7.0898,-7.0898,-7.0898,-7.0898,-7.1283,-7.2091,-7.3399,-7.4668,-7.5553,-7.5976,-7.6015,-7.6015,-7.6015,-7.6015,-7.6399,-7.7284,-7.7707,-7.8554,-7.9823,-7.9785,-8.0246,-8.1093,-8.0669,-8.0708,-8.1093,-8.1093,-8.1093,-8.1054,-8.0631,-8.0708,-8.1093,-8.1093,-8.1093,-8.1093,-8.1093,-8.1093,-8.1093,-6.1719,-6.1719,-6.2031,-6.3086,-6.3828,-6.5,-6.707,-6.7851,-6.8867,-7.0703,-7.2187,-7.2617,-7.1521,-7.2497,-7.2888,-7.195,-7.118,-7.0551,-7.0181,-6.8872,-6.8226,-6.8545,-6.8109,-6.8733,-7.0629,-6.9475,-6.9898,-7.1937,-7.0591,-7.0167,-7.0667,-7.0821,-7.0898,-7.0898,-7.1091,-7.1245,-7.1514,-7.3091,-7.4207,-7.5207,-7.8323,-8.0554,-8.2131,-8.2862,-8.3208,-8.3324,-8.317,-8.2362,-8.1323,-8.1131,-8.0516,-7.9669,-7.8977,-7.8092,-7.7299,-7.7333,-7.6868,-7.6316,-7.6391,-7.6643,-7.6643,-7.5857,-7.5222,-7.4541,0.0,0.0,0.0,-7.1655,0.0,0.0,0.0,0.0,0.0,-7.0559,0.0,0.0,0.0,-7.1242,0.0,-7.1016,-7.094,-7.0925,-7.0953,-7.112,-7.1851,-7.3399,-7.4263,-7.5124,-7.5938,-7.6015,-7.6015,-7.6015,-7.6015,-7.6399,-7.7284,-7.7438,-7.8207,-7.9554,-7.9015,-7.94,-8.0592,-7.9862,-8.0015,-8.0862,-8.0862,-8.0939,-8.1016,-8.0169,-8.0323,-8.1093,-8.0939,-8.0939,-8.1093,-8.1093,-8.1093,-8.1093,-6.1719,-6.1719,-6.2226,-6.3867,-6.4219,-6.539,-6.8711,-6.8633,-6.9062,-7.1523,-7.2031,-7.2574,-7.3744,-7.3387,-7.3894,-7.6005,-7.3378,-7.2123,-7.3463,-7.1245,-6.9451,-6.8475,-6.9066,-6.9553,-6.9821,-7.036,-7.0744,-7.1052,-7.086,-7.0437,-6.986,-7.0552,-7.0898,-7.0937,-7.1706,-7.2476,-7.3283,-7.4168,-7.5053,-7.6015,-7.79,-7.9669,-8.1246,-8.1362,-8.1823,-8.2362,-8.1631,-8.1708,-8.2054,-8.1323,-8.0516,-7.9785,-7.9669,-7.8554,-7.7357,-7.751,-7.6958,-7.64,-7.6738,-7.7272,-7.7637,-7.7128,-7.7349,-7.7355,-7.5889,0.0,-7.3824,-7.2262,0.0,0.0,0.0,0.0,0.0,0.0,0.0,0.0,-7.1671,-7.1549,-7.1412,-7.1412,-7.1142,-7.0979,-7.1148,-7.1866,-7.2642,-7.3451,-7.4397,-7.5284,-7.5952,-7.6015,-7.6015,-7.6015,-7.6015,-7.6399,-7.7284,-7.8015,-7.8438,-7.8669,-7.9323,-7.9361,-7.8784,-7.8669,-7.9131,-7.9939,-7.9939,-8.04,-8.1016,-8.0169,-8.0323,-8.1016,-8.0246,-8.0439,-8.1093,-8.1093,-8.1093,-8.1093,-6.1719,-6.1719,-6.2265,-6.3984,-6.4297,-6.5312,-6.8281,-7.0547,-7.1914,-7.1992,-7.4219,-7.5819,-7.5966,-7.5652,-7.5887,-7.6982,-7.507,-7.367,-7.338,-7.1738,-7.0787,-7.0788,-7.0756,-7.1184,-7.2182,-7.2066,-7.1989,-7.194,-7.1475,-7.1087,-7.0738,-7.1087,-7.1472,-7.1846,-7.2194,-7.2778,-7.3591,-7.4899,-7.5668,-7.6207,-7.8361,-7.9708,-8.0439,-8.1439,-8.2016,-8.2324,-8.2477,-8.2131,-8.1631,-8.1747,-8.1246,-8.0477,-7.9977,-7.9047,-7.8091,-7.7721,-7.7165,-7.6696,-7.6856,-7.7203,-7.7464,-7.7264,-7.7027,-7.671,-7.6054,-7.5234,-7.4375,-7.3672,0.0,0.0,0.0,0.0,0.0,0.0,-7.1503,0.0,0.0,0.0,-7.1478,-7.1478,0.0,-7.128,-7.1387,-7.1706,-7.2237,-7.2987,-7.3888,-7.476,-7.5545,-7.6087,-7.6359,-7.6359,-7.6359,-7.671,-7.7486,-7.7795,-7.822,-7.867,-7.8554,-7.8593,-7.8683,-7.8181,-7.837,-7.9054,-7.9054,-7.9326,-7.97,-7.872,-7.8965,-7.9853,-7.8901,-7.9282,-8.0362,-8.0362,-8.0362,-8.0439,-6.1992,-6.1875,-6.2265,-6.3984,-6.4297,-6.5273,-6.8086,-7.1367,-7.332,-7.2773,-7.5469,-7.7421,-7.7457,-7.7886,-7.8472,-7.9175,-7.7723,-7.6364,-7.539,-7.3277,-7.2302,-7.2899,-7.2438,-7.2666,-7.3664,-7.332,-7.2885,-7.2373,-7.1789,-7.1601,-7.1842,-7.1601,-7.2143,-7.3268,-7.3227,-7.3605,-7.4345,-7.5981,-7.6553,-7.6553,-7.8861,-7.9939,-8.0285,-8.1516,-8.1977,-8.2054,-8.267,-8.2131,-8.1185,-8.1831,-8.1682,-8.108,-8.0497,-7.9838,-7.9096,-7.8311,-7.7696,-7.7238,-7.7026,-7.7255,-7.75,-7.7265,-7.6914,-7.6562,-7.6328,-7.5586,-7.4961,-7.4961,-7.4258,0.0,0.0,0.0,-7.2422,-7.1562,0.0,-7.2127,0.0,-7.1786,0.0,0.0,0.0,0.0,-7.2153,-7.2036,-7.2237,-7.2995,-7.3471,-7.4178,-7.5252,-7.5913,-7.6349,-7.6582,-7.6582,-7.6816,-7.733,-7.7524,-7.7835,-7.8184,-7.7835,-7.7835,-7.8184,-7.7602,-7.7689,-7.8323,-7.8323,-7.8525,-7.8822,-7.7831,-7.8081,-7.8964,-7.7797,-7.8092,-7.9314,-7.9777,-7.9916,-8.0,-6.2773,-6.2265,-6.2265,-6.3984,-6.4297,-6.543,-6.8828,-7.0195,-7.1719,-7.418,-7.4648,-7.5582,-7.7918,-7.9668,-8.1662,-8.4164,-8.2088,-8.0914,-8.1656,-7.7,-7.4138,-7.395,-7.395,-7.36,-7.2853,-7.36,-7.3165,-7.1556,-7.1517,-7.1919,-7.2718,-7.1881,-7.2808,-7.5189,-7.5013,-7.5382,-7.63,-7.7789,-7.7977,-7.74,-7.9131,-8.0323,-8.1054,-8.1131,-8.1131,-8.1131,-8.117,-8.1131,-8.1116,-8.1362,-8.1395,-8.1403,-8.1597,-8.105,-8.0238,-7.9525,-7.8784,-7.8032,-7.738,-7.7812,-7.8242,-7.7422,-7.7812,-7.8203,-7.7344,-7.6484,-7.5859,-7.5859,-7.5156,-7.4531,-7.4531,-7.4531,-7.4219,-7.3359,-7.3242,0.0,0.0,0.0,0.0,0.0,0.0,0.0,0.0,-7.3344,-7.3241,-7.3911,-7.3373,-7.37,-7.522,-7.533,-7.5719,-7.6582,-7.6582,-7.6621,-7.6614,-7.7385,-7.7423,-7.6692,-7.7423,-7.7385,-7.6692,-7.6653,-7.7073,-7.7836,-7.7836,-7.8303,-7.9011,-7.8147,-7.8311,-7.8941,-7.7268,-7.7151,-7.8069,-7.975,-8.0272,-8.024,-6.3672,-6.3633,-6.3789,-6.4961,-6.5156,-6.5937,-6.8242,-7.0273,-7.289,-7.668,-7.8633,-8.1328,-8.5542,-8.6009,-8.6595,-8.804,-8.6254,-8.4157,-8.2127,-7.9818,-7.8004,-7.6839,-7.69,-7.6571,-7.5712,-7.5985,-7.5282,-7.3562,-7.2976,-7.3134,-7.3957,-7.3095,-7.369,-7.5533,-7.6025,-7.6249,0.0,0.0,0.0,-7.7438,-7.9131,-8.0323,-8.1093,-8.1093,-8.1093,-8.1124,-8.1231,-8.1324,-8.1336,-8.1524,-8.1609,-8.1511,-8.1003,-8.0721,-8.0456,-7.9639,-7.8911,-7.8471,-7.8789,-7.8672,-7.8437,-7.8125,-7.8281,-7.8281,-7.7383,-7.6953,-7.6758,-7.6758,-7.6523,-7.6133,-7.5586,-7.5469,-7.5156,-7.4297,-7.3672,-7.3203,0.0,-7.2344,0.0,0.0,0.0,0.0,0.0,0.0,0.0,-7.2664,-7.2484,-7.3072,-7.4733,-7.5394,-7.61,-7.6959,-7.6998,-7.6933,-7.678,-7.7053,-7.7053,-7.678,-7.7053,-7.7053,-7.678,-7.6785,-7.6888,-7.701,-7.701,-7.7229,-7.7628,-7.7176,-7.7334,-7.7771,-7.7086,-7.7331,-7.8174,-7.9194,-7.9492,-7.9675,-6.5039,-6.4961,-6.5039,-6.5898,-6.6328,-6.6992,-6.8398,-7.1328,-7.4726,-7.8437,-8.1445,-8.4961,-8.9492,-9.0039,-9.0429,-9.1328,-8.9989,-8.767,-8.4194,-8.255,-8.0831,-7.8803,-7.8864,-7.8398,-7.7226,-7.75,-7.664,-7.4609,-7.4336,-7.4844,-7.5937,-7.4453,-7.48,-7.6646,-7.7124,-7.6799,-7.6158,-7.931,-7.9587,0.0,-7.9752,-8.0808,-8.1311,-8.1311,-8.1271,-8.1242,-8.1425,-8.1532,-8.1534,-8.1718,-8.1825,-8.1714,-8.1231,-8.1176,-8.11,-8.0204,-7.9484,-7.8984,-7.9219,-7.8906,-7.8437,-7.8125,-7.8281,-7.8359,-7.7773,-7.7656,-7.7656,-7.7656,-7.7656,-7.7383,-7.6523,-7.6367,-7.5976,-7.4805,-7.414,-7.3555,0.0,-7.2344,-7.2226,0.0,0.0,0.0,0.0,0.0,-7.2461,-7.2461,-7.2187,-7.2773,-7.4492,-7.5117,-7.5976,-7.7148,-7.7187,-7.7145,-7.7,-7.7,-7.7,-7.7,-7.7,-7.7,-7.7,-7.7,-7.7092,-7.7263,-7.7263,-7.734,-7.7466,-7.7645,-7.769,-7.7695,-7.7836,-7.8252,-7.8791,-7.9162,-7.972,-8.0383,-6.6797,-6.6367,-6.6094,-6.6836,-6.7656,-6.8476,-6.9336,-7.3125,-7.6875,-7.9609,-8.3008,-8.6484,-9.0,-9.1875,-9.3203,-9.4023,-9.3242,-9.1328,-8.7969,-8.5351,-8.2734,-8.0156,-7.9961,-7.918,-7.75,-7.8203,-7.7383,-7.4844,-7.5586,-7.6836,-7.8437,-7.5859,-7.6015,-7.8437,-7.8245,-7.7131,-7.5656,-7.9866,-8.056,-7.9022,-8.0945,-8.1688,-8.1649,-8.1695,-8.1522,-8.1331,-8.1623,-8.1695,-8.1771,-8.1962,-8.2,-8.2053,-8.2223,-8.2304,-8.2148,-8.1328,-8.0469,-7.9609,-7.8867,-7.8633,-7.8359,-7.7539,-7.793,-7.8476,-7.8437,-7.8437,-7.8437,-7.8437,-7.8437,-7.8164,-7.7344,-7.7148,-7.6601,-7.4922,-7.4609,-7.3945,-7.2226,-7.1992,-7.1992,-7.1992,0.0,0.0,0.0,0.0,-7.3242,-7.3242,-7.2422,-7.2695,-7.4453,-7.457,-7.539,-7.707,-7.7187,-7.7187,-7.7187,-7.7187,-7.7187,-7.7187,-7.7187,-7.7187,-7.7187,-7.7187,-7.7695,-7.8515,-7.8515,-7.8515,-7.8633,-7.9375,-7.9258,-7.8633,-7.9414,-7.9726,-7.9765,-7.9765,-8.0859,-8.2304,-6.7695,-6.8672,-6.9062,-6.8047,-6.8047,-6.8672,-7.0156,-7.3515,-7.7734,-8.289,-8.6562,-9.0508,-9.5195,-9.6133,-9.6484,-9.6719,-9.539,-9.3594,-9.1445,-8.9453,-8.7226,-8.4648,-8.3906,-8.2773,-8.1015,-8.0586,-7.9726,-7.8398,-7.7383,-7.7422,-7.8476,-7.6484,-7.6289,-7.7578,-7.8747,-7.8252,-7.6682,-7.9681,-8.0572,-8.0081,-8.1236,-8.1291,-8.0839,-8.1633,-8.1104,-8.0096,-8.1426,-8.1909,-8.1967,-8.217,-8.2221,-8.2222,-8.2265,-8.2304,-8.2265,-8.2031,-8.1367,-8.0742,-8.1211,-8.039,-7.9336,-7.9101,-7.8789,-7.832,-7.7695,-7.7539,-7.7539,-7.7539,-7.7539,-7.7461,-7.7226,-7.668,-7.6094,-7.5625,-7.4492,-7.3242,-7.2148,-7.1992,0.0,-7.1992,0.0,0.0,0.0,-7.2461,-7.2344,-7.2344,-7.1523,-7.1797,-7.3555,-7.4258,-7.5117,-7.6211,-7.6875,-7.7187,-7.7187,-7.7187,-7.7187,-7.7187,-7.7187,-7.7187,-7.7187,-7.7187,-7.7695,-7.8515,-7.8515,-7.8828,-7.9414,-7.9609,-7.957,-7.9414,-7.9609,-8.0117,-8.0664,-8.0664,-8.1367,-8.2304,-6.8633,-7.0117,-7.0976,-7.0039,-7.082,-7.1875,-7.2812,-7.5586,-7.9336,-8.4258,-8.8203,-9.1836,-9.5117,-9.6797,-9.7695,-9.7695,-9.6172,-9.4453,-9.2695,-9.1328,-8.9101,-8.5781,-8.5156,-8.3906,-8.1797,-8.0547,-7.9844,-7.9687,-7.8008,-7.8008,-7.9531,-7.7461,-7.6914,-7.7812,0.0,-7.8661,-7.7036,-7.9221,-8.0579,-8.123,-8.1347,-8.1113,0.0,-8.1329,-8.0717,-7.9662,-8.0638,-8.099,-8.1072,-8.1561,-8.1719,-8.1797,-8.2187,-8.2304,-8.2304,-8.2304,-8.1679,-8.1094,-8.1601,-8.0742,-7.9609,-7.9258,-7.8828,-7.8359,-7.789,-7.7773,-7.7773,-7.7773,-7.7773,-7.7656,-7.7265,-7.6797,-7.6328,-7.5976,-7.4453,-7.3125,-7.2656,-7.2578,0.0,0.0,-7.2344,0.0,-7.2031,-7.1992,-7.1992,-7.1992,-7.1562,-7.1875,-7.3242,-7.414,-7.5,-7.5859,-7.7109,-7.7578,-7.7187,-7.7578,-7.7578,-7.7187,-7.7187,-7.7187,-7.7187,-7.7187,-7.7851,-7.9023,-7.9023,-7.9492,-8.0312,-8.0664,-8.0625,-8.0312,-8.0703,-8.1133,-8.1562,-8.1562,-8.1875,-8.2304,-6.9414,-7.0976,-7.2265,-7.2031,-7.4453,-7.6523,-7.6875,-7.9062,-8.1875,-8.5156,-8.9297,-9.2304,-9.3164,-9.5937,-9.7695,-9.7695,-9.6172,-9.457,-9.3047,-9.1914,-8.957,-8.5742,-8.5234,-8.3945,-8.1562,-7.9648,-7.9062,-7.9883,-7.8086,-7.832,-8.0469,-7.8242,-7.7617,0.0,0.0,0.0,0.0,-7.8813,-8.0408,-8.1875,-8.1133,-8.082,-8.0859,-8.0976,-8.039,-7.957,-7.9648,-7.9687,-7.9805,-8.0586,-8.0898,-8.1133,-8.1875,-8.2226,-8.2304,-8.2304,-8.1758,-8.1172,-8.1172,-8.0469,-7.9531,-7.8828,-7.8476,-7.832,-7.832,-7.832,-7.832,-7.832,-7.832,-7.8086,-7.7344,-7.7109,-7.6758,-7.5859,-7.4453,-7.3476,-7.3476,0.0,0.0,0.0,0.0,0.0,-7.2109,-7.1992,-7.1992,-7.1992,-7.1992,-7.2344,-7.3086,-7.4062,-7.4961,-7.5703,-7.7422,-7.7969,-7.7226,-7.7969,-7.7969,-7.7187,-7.7305,-7.7305,-7.7187,-7.7305,-7.8203,-7.9687,-7.9687,-8.0273,-8.1211,-8.1992,-8.1836,-8.125,-8.1992,-8.2304,-8.2304,-8.2304,-8.2304,-8.2304,-6.9609,-7.1992,-7.3672,-7.2265,-7.5898,-7.9765,-8.1914,-8.4453,-8.6836,-8.8867,-9.289,-9.5898,-9.6719,-9.7344,-9.7695,-9.7695,-9.6172,-9.5078,-9.4765,-9.2578,-9.0625,-8.9179,-8.7109,-8.5429,-8.4258,-8.1094,-7.9922,-8.0781,-7.8359,-7.7422,-7.7851,-7.7422,-7.7265,0.0,0.0,0.0,-7.9216,-7.9529,-7.9843,-8.0156,-8.0,-7.9922,-8.0,-8.0742,-8.0039,-7.8789,-7.9453,-7.9687,-7.9726,-7.9883,-8.039,-8.1015,-8.1172,-8.1719,-8.2304,-8.2304,-8.2187,-8.207,-8.207,-8.0898,-7.9687,-7.9531,-7.8437,-7.7422,-7.7422,-7.7422,-7.7422,-7.7422,-7.7422,-7.7383,-7.7226,-7.6601,-7.5859,-7.4961,-7.457,-7.4375,-7.4375,-7.4375,0.0,0.0,0.0,-7.375,-7.2148,-7.1992,-7.1992,-7.1992,-7.1992,-7.207,-7.2226,-7.375,-7.4687,-7.4805,-7.6523,-7.7344,-7.7187,-7.7344,-7.7344,-7.7226,-7.793,-7.789,-7.7226,-7.793,-7.8789,-7.9687,-7.9687,-8.0586,-8.207,-8.2226,-8.2226,-8.2109,-8.2226,-8.2304,-8.2304,-8.2304,-8.2304,-8.2304,-7.2148,-7.3828,-7.5273,-7.5351,-7.8906,-8.2461,-8.4609,-8.789,-9.0117,-9.0,-9.2226,-9.4101,-9.4961,-9.664,-9.7539,-9.7109,-9.5937,-9.5,-9.457,-9.25,-9.0703,-8.9375,-8.7304,-8.5586,-8.4258,-8.0859,-7.9922,-8.1679,-7.8203,-7.7187,-7.8476,-7.7617,-7.7187,-7.7226,0.0,-7.914,0.0,-7.8945,-7.8906,-7.9648,-7.9258,-7.9062,-7.9101,-7.9531,-7.8906,-7.789,-7.8242,-7.8672,-7.9062,-7.9062,-7.9375,-7.9765,-8.0195,-8.0937,-8.164,-8.164,-8.1953,-8.2187,-8.1758,-8.0664,-7.9609,-7.918,-7.8125,-7.7187,-7.7187,-7.7187,-7.7187,-7.7187,-7.7187,-7.7187,-7.7187,-7.6875,-7.6445,-7.6015,-7.5586,-7.5273,-7.5273,-7.5273,-7.4765,0.0,0.0,0.0,0.0,-7.1992,-7.1992,-7.1992,-7.1992,-7.1992,-7.1992,-7.3203,-7.414,-7.4609,-7.6289,-7.7187,-7.7187,-7.8047,-7.8047,-7.7226,-7.8515,-7.8437,-7.7226,-7.8086,-7.8945,-7.9687,-7.9687,-8.0703,-8.2265,-8.1797,-8.164,-8.1562,-8.1133,-8.0937,-8.1015,-8.1445,-8.164,-8.1679,-7.4961,-7.5976,-7.7265,-7.8984,-8.2148,-8.4961,-8.6484,-9.0234,-9.2383,-9.1015,-9.1758,-9.2656,-9.3359,-9.5976,-9.7422,-9.6797,-9.5781,-9.4922,-9.4219,-9.2383,-9.0586,-8.9023,-8.7187,-8.5469,-8.3906,-8.0351,-7.9492,-8.1484,-7.793,-7.6992,-7.8594,-7.7812,-7.7383,-7.7226,-7.7578,-7.8633,-8.0078,-7.8242,-7.8242,-7.9375,-7.8555,-7.832,-7.8515,-7.8515,-7.8086,-7.7461,-7.7461,-7.793,-7.8476,-7.8281,-7.8476,-7.8828,-7.9297,-8.0039,-8.0703,-8.0703,-8.1211,-8.1601,-8.0898,-8.0117,-7.9297,-7.8672,-7.7969,-7.7422,-7.7226,-7.7344,-7.7422,-7.7226,-7.7187,-7.7187,-7.7187,-7.7187,-7.7187,-7.7187,-7.6601,-7.6172,-7.6172,-7.6328,-7.5742,0.0,0.0,0.0,-7.2226,-7.2187,-7.2187,-7.1992,-7.1992,-7.1992,-7.1992,-7.2812,-7.3711,-7.457,-7.6094,-7.6992,-7.7187,-7.8672,-7.8789,-7.75,-7.918,-7.9101,-7.75,-7.8359,-7.9101,-7.9687,-7.9687,-8.0703,-8.2226,-8.1367,-8.1015,-8.0898,-8.0039,-7.9687,-7.9765,-8.0469,-8.0703,-8.082,-7.6797,-7.8242,-7.9883,-8.164,-8.4804,-8.7422,-8.832,-9.1484,-9.3711,-9.3554,-9.4961,-9.6054,-9.6133,-9.707,-9.7656,-9.7578,-9.6133,-9.5156,-9.5078,-9.2695,-9.0859,-8.9922,-8.7539,-8.5742,-8.4804,-8.0664,-7.8633,-7.8867,-7.7656,-7.6406,-7.5117,-7.7344,-7.7969,-7.7265,-7.8789,-7.875,-7.7578,-7.8125,-7.8476,-7.8555,-7.7656,-7.7773,-7.8515,-7.8515,-7.8437,-7.8398,-7.8398,-7.8437,-7.8398,-7.7578,-7.832,-7.9453,-7.8828,-7.918,-7.9805,-7.9805,-7.9883,-7.9922,-7.9844,-7.9219,-7.8594,-7.8515,-7.8437,-7.8164,-7.7383,-7.7812,-7.8164,-7.7344,-7.7187,-7.7187,-7.7187,-7.7187,-7.7187,-7.7187,-7.7148,-7.707,-7.707,-7.7773,-7.7305,-7.4765,0.0,0.0,-7.2305,-7.2695,-7.2851,-7.207,-7.1992,-7.1992,-7.1992,-7.2812,-7.3711,-7.457,-7.5508,-7.6406,-7.7187,-7.8125,-7.8515,-7.8398,-8.0078,-8.0,-7.8398,-7.9219,-7.9648,-7.9687,-7.9687,-8.0703,-8.2226,-8.1367,-8.1015,-8.0898,-8.0039,-7.9687,-7.9726,-7.9805,-7.9805,-7.9844,-7.9297,-8.0039,-8.1172,-8.3476,-8.5898,-8.7969,-8.9297,-9.1562,-9.3125,-9.3125,-9.5078,-9.6679,-9.7187,-9.707,-9.6758,-9.625,-9.5117,-9.3984,-9.2929,-9.1406,-9.0117,-8.9258,-8.7265,-8.5781,-8.4922,-8.2187,-8.0508,-8.0,-7.914,-7.8086,-7.6953,-7.7461,-7.7539,-7.7226,-7.7344,-7.7617,-7.793,-7.7226,-7.7226,-7.7695,-7.7344,-7.7422,-7.7734,-7.7734,-7.7734,-7.7734,-7.7734,-7.8047,-7.8359,-7.75,-7.7656,-7.8125,-7.7812,-7.8281,-7.8984,-7.8984,-7.9336,-7.9609,-7.9101,-7.9101,-7.8984,-7.7969,-7.8125,-7.8281,-7.7383,-7.7461,-7.7617,-7.7265,-7.7187,-7.7187,-7.7187,-7.7187,-7.7187,-7.7187,-7.7187,-7.7187,-7.7187,-7.75,0.0,-7.4844,0.0,-7.4687,-7.2226,-7.2305,-7.2578,-7.2773,-7.2305,-7.1992,-7.1992,-7.2344,-7.3164,-7.457,-7.4922,-7.5781,-7.7187,-7.8047,-7.8515,-7.8515,-8.0195,-8.039,-7.9258,-8.0117,-8.0469,-8.0508,-8.1015,-8.164,-8.2187,-8.0781,-8.0234,-8.0078,-7.8711,-7.8203,-7.8242,-7.8789,-7.8984,-7.9062,-8.1523,-8.1953,-8.3047,-8.5898,-8.7422,-8.8828,-9.0508,-9.2031,-9.2969,-9.2969,-9.4804,-9.625,-9.6562,-9.6289,-9.5859,-9.5234,-9.4414,-9.3281,-9.1797,-9.0859,-8.9883,-8.875,-8.7109,-8.5781,-8.4922,-8.2929,-8.1484,-8.0625,-7.9765,-7.8789,-7.7734,-7.7109,-7.668,-7.6445,-7.6328,-7.6836,-7.7656,-7.6719,-7.664,-7.7187,-7.7187,-7.7187,-7.7187,-7.7187,-7.7187,-7.7187,-7.7187,-7.7617,-7.8008,-7.7422,-7.7187,-7.7187,-7.7187,-7.7617,-7.8125,-7.8125,-7.8515,-7.8828,-7.8281,-7.8711,-7.9062,-7.789,-7.8203,-7.8633,-7.7773,-7.7578,-7.75,-7.7265,-7.7187,-7.7187,-7.7187,-7.7187,-7.7187,-7.7187,-7.7187,-7.7187,-7.7187,-7.7422,-7.6836,-7.4844,-7.4844,-7.4219,-7.2187,-7.1992,-7.2265,-7.2851,-7.2344,-7.2109,-7.2383,-7.2383,-7.3047,-7.4531,-7.4844,-7.5703,-7.7187,-7.8281,-7.8867,-7.8867,-8.0586,-8.0937,-8.0117,-8.0703,-8.1015,-8.1054,-8.1914,-8.2304,-8.2148,-8.0429,-7.9687,-7.9531,-7.7851,-7.7187,-7.7265,-7.789,-7.8125,-7.8203,-8.3242,-8.4258,-8.5937,-8.9336,-8.9961,-9.0547,-9.2304,-9.332,-9.3867,-9.3867,-9.4648,-9.4883,-9.4023,-9.4726,-9.5195,-9.5195,-9.4414,-9.3515,-9.2656,-9.1758,-9.0508,-8.8789,-8.7109,-8.5781,-8.4922,-8.2344,-8.0586,-7.9726,-7.8906,-7.7617,-7.5937,-7.5937,-7.5469,-7.4726,-7.6406,-7.6719,-7.5976,-7.6836,-7.7187,-7.7187,-7.7187,-7.7187,-7.7187,-7.7187,-7.7187,-7.7187,-7.7187,-7.7226,-7.7226,-7.7187,-7.7187,-7.7187,-7.7187,-7.7226,-7.7226,-7.7226,-7.7226,-7.7226,-7.7226,-7.7851,-7.8515,-7.8476,-7.9101,-7.9453,-7.8672,-7.8476,-7.8242,-7.7383,-7.7187,-7.7187,-7.7187,-7.7187,-7.7187,-7.7187,-7.7187,-7.7187,-7.7187,-7.793,-7.7539,-7.4922,-7.5351,-7.4844,-7.2265,-7.1992,-7.1992,-7.1992,-7.1992,-7.2383,-7.3242,-7.3281,-7.3672,-7.457,-7.543,-7.6328,-7.7187,-7.8867,-7.9687,-7.9726,-8.1445,-8.1836,-8.0976,-8.1015,-8.1015,-8.1054,-8.1914,-8.2304,-8.2148,-8.0429,-7.9687,-7.9531,-7.7851,-7.7187,-7.7187,-7.7226,-7.7226,-7.7226,-8.3359,-8.4297,-8.5429,-8.7109,-8.8359,-8.9297,-8.9844,-9.0664,-9.125,-9.125,-9.1992,-9.2226,-9.1328,-9.3086,-9.4062,-9.3476,-9.2617,-9.1523,-9.0039,-8.9687,-8.8789,-8.707,-8.6484,-8.5508,-8.4062,-8.3203,-8.2031,-8.0586,-8.0312,-7.9023,-7.6797,-7.7383,-7.6875,-7.5547,-7.668,-7.7383,-7.7656,-7.7344,-7.7539,-7.8047,-7.7422,-7.7187,-7.7187,-7.7187,-7.7187,-7.7187,-7.7187,-7.7187,-7.7187,-7.7187,-7.7187,-7.7187,-7.7187,-7.7187,-7.7187,-7.7187,-7.7617,-7.7969,-7.7344,-7.8672,-7.9805,-7.8047,-7.8672,-7.9336,-7.793,-7.7617,-7.7539,-7.7265,-7.7187,-7.7187,-7.7187,-7.7187,-7.7187,-7.7187,-7.7187,-7.7187,-7.7187,-7.6914,-7.6406,-7.5586,-7.5195,-7.4687,-7.3867,-7.3242,-7.3125,-7.3711,-7.2656,-7.2383,-7.3242,-7.3281,-7.3984,-7.543,-7.5742,-7.6328,-7.7187,-7.7734,-7.8555,-7.9726,-8.0273,-8.1015,-8.1875,-8.1289,-8.1328,-8.1875,-8.1562,-8.1406,-8.1328,-8.0156,-7.9375,-7.8789,-7.7656,-7.7187,-7.7187,-7.7187,-7.7187,-7.7187,-8.3906,-8.4804,-8.5742,-8.6914,-8.8008,-8.8828,-8.914,-8.9648,-9.0,-9.0,-9.0469,-9.0586,-9.0078,-9.1445,-9.2226,-9.1679,-9.1445,-9.0547,-8.8828,-8.8711,-8.7969,-8.6289,-8.5898,-8.5039,-8.3633,-8.3281,-8.2578,-8.1484,-8.082,-7.9375,-7.7226,-7.7773,-7.7422,-7.6406,-7.6953,-7.75,-7.7969,-7.7422,-7.75,-7.7969,-7.7422,-7.7187,-7.7187,-7.7187,-7.7187,-7.7187,-7.7187,-7.7187,-7.7187,-7.7187,-7.7187,-7.7187,-7.7187,-7.7187,-7.7187,-7.7187,-7.7812,-7.8398,-7.7851,-7.9062,-8.0117,-7.8555,-7.8711,-7.8906,-7.75,-7.7187,-7.7187,-7.7187,-7.7187,-7.7187,-7.7187,-7.7187,-7.7187,-7.7187,-7.7187,-7.7187,-7.7187,-7.6445,-7.5898,-7.5898,-7.5117,-7.4609,-7.4609,-7.4101,-7.3867,-7.4101,-7.3398,-7.3203,-7.375,-7.3789,-7.4453,-7.5859,-7.6211,-7.664,-7.7187,-7.7539,-7.8359,-7.9687,-8.0039,-8.0937,-8.2265,-8.1406,-8.1484,-8.2265,-8.1719,-8.1484,-8.1406,-8.0195,-7.9414,-7.8828,-7.7656,-7.7187,-7.7187,-7.7187,-7.7187,-7.7187,-8.4726,-8.5586,-8.6679,-8.8242,-8.8594,-8.8906,-8.9687,-8.9844,-8.9844,-8.9844,-8.9883,-8.9883,-8.9844,-8.9922,-8.9961,-8.9844,-9.0586,-9.0312,-8.8633,-8.8476,-8.7695,-8.6094,-8.5234,-8.4414,-8.3515,-8.2734,-8.2265,-8.2226,-8.0508,-7.8867,-7.7305,-7.7226,-7.7187,-7.7187,-7.7187,-7.7226,-7.7305,-7.7226,-7.7226,-7.7265,-7.7226,-7.7187,-7.7187,-7.7187,-7.7187,-7.7187,-7.7187,-7.7187,-7.7226,-7.7265,-7.7305,-7.7305,-7.7344,-7.7344,-7.7265,-7.7226,-7.7812,-7.8515,-7.8515,-7.914,-7.9765,-7.9726,-7.914,-7.8359,-7.75,-7.7305,-7.7265,-7.7226,-7.7187,-7.7187,-7.7187,-7.7187,-7.7187,-7.7187,-7.7187,-7.7187,-7.7187,-7.6445,-7.5937,-7.5976,-7.5234,-7.4726,-7.4765,-7.4726,-7.4336,-7.3555,-7.418,-7.4648,-7.4687,-7.4765,-7.5195,-7.6055,-7.6914,-7.7344,-7.7305,-7.8164,-7.8984,-7.9805,-8.0664,-8.1523,-8.2265,-8.1406,-8.1484,-8.2304,-8.2226,-8.2226,-8.207,-8.0469,-7.9765,-7.9531,-7.793,-7.7305,-7.7265,-7.7226,-7.7187,-7.7187,-8.4726,-8.5586,-8.6328,-8.6719,-8.7344,-8.7851,-8.8047,-8.8086,-8.8086,-8.8086,-8.8633,-8.8789,-8.8164,-8.9219,-8.9492,-8.8203,-8.8281,-8.7929,-8.6875,-8.6172,-8.5312,-8.4258,-8.4023,-8.3515,-8.2617,-8.2422,-8.1953,-8.1328,-8.0234,-7.918,-7.8164,-7.75,-7.7187,-7.7187,-7.7187,-7.7578,-7.8164,-7.7461,-7.7578,-7.8125,-7.7461,-7.7187,-7.7187,-7.7187,-7.7187,-7.7187,-7.7187,-7.7187,-7.7305,-7.7969,-7.8203,-7.8281,-7.8906,-7.8672,-7.8047,-7.7383,-7.7812,-7.8515,-7.8515,-7.957,-8.0547,-7.9883,-7.957,-7.9219,-7.8398,-7.8203,-7.8008,-7.7344,-7.7187,-7.7187,-7.7187,-7.7187,-7.7187,-7.7187,-7.7187,-7.7187,-7.7187,-7.6445,-7.6133,-7.6797,-7.6133,-7.5859,-7.6523,-7.5976,-7.5508,-7.5312,-7.4844,-7.4883,-7.5547,-7.6211,-7.6992,-7.7851,-7.8672,-7.8828,-7.8203,-7.9023,-7.9844,-8.0703,-8.1562,-8.2109,-8.2265,-8.1406,-8.1484,-8.2265,-8.1601,-8.1328,-8.1289,-8.0859,-8.0312,-7.9609,-7.8594,-7.8203,-7.8125,-7.7461,-7.7187,-7.7187,-8.4648,-8.5273,-8.5859,-8.664,-8.7187,-8.75,-8.75,-8.75,-8.75,-8.75,-8.789,-8.8008,-8.7539,-8.832,-8.832,-8.7031,-8.7617,-8.7695,-8.6836,-8.5976,-8.5117,-8.4219,-8.3828,-8.3203,-8.2304,-8.2304,-8.207,-8.1601,-8.1133,-8.0664,-8.0195,-7.8945,-7.8359,-7.832,-7.7539,-7.7695,-7.8476,-7.8008,-7.8086,-7.8476,-7.7969,-7.7578,-7.7187,-7.7187,-7.7187,-7.7187,-7.7187,-7.7461,-7.7851,-7.8359,-7.875,-7.9101,-7.957,-7.9414,-7.8945,-7.8476,-7.8437,-7.8515,-7.8515,-7.914,-7.9726,-7.9258,-7.9414,-7.9609,-7.914,-7.9062,-7.8828,-7.7969,-7.7773,-7.7656,-7.7265,-7.7187,-7.7187,-7.7187,-7.6875,-7.6601,-7.6601,-7.5859,-7.5625,-7.6484,-7.6172,-7.625,-7.7109,-7.6758,-7.6328,-7.5937,-7.582,-7.6015,-7.6484,-7.7656,-7.8398,-7.8515,-7.9297,-7.9492,-7.9062,-7.9883,-8.0547,-8.1015,-8.1484,-8.1914,-8.2265,-8.1406,-8.1484,-8.2265,-8.1367,-8.1015,-8.0937,-8.0156,-7.957,-7.9101,-7.8672,-7.8515,-7.8437,-7.7969,-7.7773,-7.7734,-8.4961,-8.5273,-8.5742,-8.7226,-8.7383,-8.7344,-8.7461,-8.7383,-8.7344,-8.7461,-8.75,-8.75,-8.75,-8.75,-8.7148,-8.6289,-8.75,-8.7929,-8.6953,-8.6094,-8.5273,-8.4531,-8.3789,-8.3047,-8.2304,-8.2304,-8.2304,-8.2304,-8.2031,-8.1914,-8.1875,-8.0117,-7.9336,-7.9258,-7.7969,-7.7812,-7.8515,-7.8633,-7.8672,-7.8672,-7.8555,-7.8047,-7.7383,-7.7265,-7.7187,-7.7187,-7.7187,-7.7695,-7.832,-7.8476,-7.9023,-7.9726,-7.9844,-7.9883,-7.9883,-7.9883,-7.9336,-7.8711,-7.8828,-7.8984,-7.9062,-7.9062,-7.9609,-8.0078,-7.9922,-7.9883,-7.9648,-7.8672,-7.8515,-7.8242,-7.7344,-7.7187,-7.7187,-7.7187,-7.6562,-7.6094,-7.6094,-7.5469,-7.5273,-7.6015,-7.6094,-7.6406,-7.7148,-7.7187,-7.6875,-7.6133,-7.6914,-7.7383,-7.7383,-7.8984,-7.957,-7.8906,-7.9687,-8.0078,-8.0078,-8.0703,-8.1054,-8.1211,-8.1211,-8.1562,-8.2265,-8.1523,-8.1523,-8.207,-8.1328,-8.0937,-8.0703,-7.9258,-7.875,-7.8867,-7.8711,-7.875,-7.8867,-7.8711,-7.8594,-7.8398,-8.6758,-8.7109,-8.7187,-8.7461,-8.6875,-8.664,-8.7383,-8.6875,-8.6679,-8.7383,-8.75,-8.75,-8.75,-8.75,-8.7148,-8.6289,-8.6445,-8.5898,-8.4297,-8.3398,-8.2851,-8.2695,-8.2578,-8.2422,-8.2304,-8.2304,-8.2304,-8.2304,-8.082,-8.0117,-8.0078,-7.8398,-7.7578,-7.7617,-7.8086,-7.8359,-7.8555,-7.9219,-7.9492,-7.9453,-7.8789,-7.8437,-7.8203,-7.7461,-7.7187,-7.7187,-7.7187,-7.7305,-7.75,-7.8242,-7.9023,-7.9844,-8.0586,-8.0781,-8.0781,-8.0781,-8.0195,-7.9687,-8.039,-8.1133,-8.1719,-8.1719,-8.1797,-8.1719,-8.0976,-8.0781,-8.0351,-7.8828,-7.8515,-7.8242,-7.7344,-7.7187,-7.7187,-7.7187,-7.7109,-7.6992,-7.6992,-7.6875,-7.6836,-7.6992,-7.6992,-7.7031,-7.7187,-7.7187,-7.7148,-7.6992,-7.7812,-7.8281,-7.8281,-7.9883,-8.0742,-8.0625,-8.1445,-8.1914,-8.1914,-8.1289,-8.1367,-8.2109,-8.2109,-8.2187,-8.2304,-8.2148,-8.1758,-8.1172,-8.1054,-8.0586,-7.9883,-7.9609,-7.9961,-8.0547,-7.9805,-7.9961,-8.0508,-7.9805,-7.9062,-7.8476,-8.5156,-8.539,-8.5547,-8.6015,-8.5781,-8.5625,-8.6054,-8.6172,-8.6172,-8.6094,-8.6523,-8.6601,-8.6133,-8.6094,-8.5742,-8.4883,-8.4804,-8.4258,-8.2969,-8.2969,-8.3008,-8.3008,-8.2539,-8.2304,-8.2304,-8.2304,-8.2304,-8.2304,-8.1015,-8.039,-8.0351,-7.8672,-7.789,-7.789,-7.7812,-7.8281,-7.918,-7.9531,-7.9687,-7.9687,-7.9297,-7.8594,-7.7773,-7.7344,-7.7187,-7.7187,-7.7187,-7.75,-7.7969,-7.8359,-7.9023,-7.9844,-8.0742,-8.1015,-8.1094,-8.1562,-8.0742,-7.9805,-8.0195,-8.0937,-8.1601,-8.1601,-8.1953,-8.2187,-8.1797,-8.1719,-8.1211,-7.9492,-7.914,-7.875,-7.7422,-7.7187,-7.7187,-7.7187,-7.6797,-7.6484,-7.6484,-7.6484,-7.6484,-7.6484,-7.6914,-7.7187,-7.7187,-7.7187,-7.7383,-7.7851,-7.8281,-7.8906,-7.9805,-8.0586,-8.1211,-8.1679,-8.2109,-8.2304,-8.2304,-8.1914,-8.1914,-8.2304,-8.2304,-8.2304,-8.2304,-8.2304,-8.207,-8.164,-8.0703,-8.0078,-7.9648,-7.8711,-7.8594,-7.8984,-7.9492,-7.9961,-8.0234,-7.9844,-7.9453,-7.9023,-8.3711,-8.3906,-8.4101,-8.4765,-8.4726,-8.4687,-8.4883,-8.5312,-8.5429,-8.4961,-8.5469,-8.5625,-8.4961,-8.4883,-8.4531,-8.3672,-8.3594,-8.3242,-8.2344,-8.2929,-8.3281,-8.3281,-8.2656,-8.2304,-8.2304,-8.2304,-8.2304,-8.2304,-8.1211,-8.0703,-8.0664,-7.8984,-7.8203,-7.8164,-7.7695,-7.8203,-7.9414,-7.9609,-7.9687,-7.9687,-7.9492,-7.8633,-7.7461,-7.7265,-7.7187,-7.7187,-7.7187,-7.7617,-7.8203,-7.8203,-7.8867,-7.9805,-8.0508,-8.0976,-8.1445,-8.2109,-8.1367,-8.0312,-8.0312,-8.0781,-8.1289,-8.1289,-8.1797,-8.2304,-8.2304,-8.2304,-8.1797,-8.0078,-7.9687,-7.918,-7.75,-7.7187,-7.7187,-7.7187,-7.664,-7.6211,-7.6211,-7.6211,-7.6211,-7.6211,-7.6797,-7.7187,-7.7187,-7.7383,-7.7773,-7.8437,-7.8867,-7.9648,-8.0937,-8.1172,-8.1601,-8.2265,-8.2304,-8.2304,-8.2304,-8.2304,-8.2304,-8.2304,-8.2304,-8.2304,-8.2304,-8.2304,-8.2187,-8.1914,-8.0586,-7.9765,-7.9336,-7.8047,-7.75,-7.7617,-7.8906,-7.9531,-7.9687,-7.9687,-7.9687,-7.9531,-8.4648,-8.4804,-8.4804,-8.4883,-8.4219,-8.3984,-8.4765,-8.4258,-8.4062,-8.4804,-8.4961,-8.4961,-8.4922,-8.4883,-8.4531,-8.3672,-8.3594,-8.3242,-8.2344,-8.2344,-8.2383,-8.2383,-8.2344,-8.2304,-8.2304,-8.2304,-8.2304,-8.2304,-8.0625,-7.9805,-7.9765,-7.8086,-7.7305,-7.7344,-7.8086,-7.8476,-7.8633,-7.9375,-7.9687,-7.9648,-7.8906,-7.8515,-7.832,-7.75,-7.7187,-7.7187,-7.7187,-7.7226,-7.7305,-7.7305,-7.8359,-7.9726,-7.9765,-8.0898,-8.2226,-8.2265,-8.2226,-8.2109,-8.2109,-8.2148,-8.2187,-8.2187,-8.2265,-8.2304,-8.2304,-8.2304,-8.1797,-8.0078,-7.9687,-7.918,-7.75,-7.7187,-7.7187,-7.7187,-7.7148,-7.7109,-7.7109,-7.7109,-7.7109,-7.7109,-7.7148,-7.7187,-7.7187,-7.793,-7.8437,-7.8515,-7.9922,-8.0859,-8.0976,-8.1758,-8.2226,-8.2304,-8.2304,-8.2304,-8.2304,-8.2304,-8.2304,-8.2304,-8.2304,-8.2304,-8.2304,-8.2304,-8.1875,-8.1094,-8.0976,-8.0039,-7.8594,-7.8476,-7.8398,-7.8437,-7.8555,-7.9023,-7.9687,-7.9687,-7.9687,-7.9687,-8.3203,-8.3281,-8.3281,-8.3281,-8.3008,-8.289,-8.3242,-8.3476,-8.3515,-8.332,-8.375,-8.3906,-8.3359,-8.3281,-8.3164,-8.2812,-8.2773,-8.2656,-8.2304,-8.2304,-8.2304,-8.2304,-8.2304,-8.2304,-8.2304,-8.2304,-8.2304,-8.2304,-8.1094,-8.0508,-8.0469,-7.8789,-7.8008,-7.8008,-7.7773,-7.8281,-7.9219,-7.9023,-7.957,-8.0429,-7.957,-7.8945,-7.8476,-7.8125,-7.7656,-7.7187,-7.7187,-7.7539,-7.8008,-7.8008,-7.875,-7.9805,-8.0351,-8.0976,-8.1601,-8.2148,-8.2304,-8.2304,-8.2304,-8.2304,-8.2304,-8.2304,-8.2304,-8.2304,-8.2304,-8.2304,-8.1953,-8.0742,-8.0078,-7.9336,-7.8203,-7.7578,-7.7187,-7.7187,-7.7187,-7.7187,-7.7187,-7.7187,-7.7187,-7.7187,-7.7187,-7.7422,-7.7969,-7.832,-7.8945,-7.9961,-8.0625,-8.125,-8.1797,-8.2109,-8.2304,-8.2304,-8.2304,-8.2304,-8.2304,-8.2304,-8.2304,-8.2304,-8.2304,-8.2304,-8.2304,-8.2304,-8.2109,-8.1797,-8.1211,-8.0312,-7.9219,-7.8711,-7.8164,-7.7734,-7.8281,-7.8672,-7.8945,-7.8945,-7.9258,-7.9648,-8.2304,-8.2304,-8.2304,-8.2304,-8.2304,-8.2304,-8.2304,-8.2812,-8.2969,-8.2383,-8.2812,-8.2969,-8.2383,-8.2304,-8.2304,-8.2304,-8.2304,-8.2304,-8.2304,-8.2304,-8.2304,-8.2304,-8.2304,-8.2304,-8.2304,-8.2304,-8.2187,-8.1875,-8.1015,-8.0586,-8.0547,-7.8867,-7.8242,-7.8476,-7.7578,-7.8008,-7.9297,-7.8711,-7.9297,-8.0547,-7.9922,-7.9219,-7.8515,-7.8515,-7.7969,-7.7187,-7.7187,-7.7773,-7.8515,-7.8515,-7.9219,-8.0195,-8.082,-8.1172,-8.1523,-8.2109,-8.2304,-8.2304,-8.2304,-8.2304,-8.2304,-8.2304,-8.2304,-8.2304,-8.2304,-8.2304,-8.2031,-8.1172,-8.0508,-7.9844,-7.9023,-7.8164,-7.7617,-7.7617,-7.7383,-7.7305,-7.7578,-7.7617,-7.7695,-7.7969,-7.8008,-7.8203,-7.8828,-7.9101,-7.9765,-8.0898,-8.125,-8.1679,-8.2265,-8.2304,-8.2304,-8.2304,-8.2304,-8.2304,-8.2304,-8.2304,-8.2304,-8.2304,-8.2304,-8.2304,-8.2304,-8.2304,-8.2304,-8.2265,-8.1679,-8.0898,-8.0078,-7.9492,-7.8633,-7.7695,-7.8555,-7.8555,-7.8164,-7.8672,-7.9219,-7.9648,-8.2304,-8.2304,-8.2304,-8.2304,-8.2304,-8.2304,-8.2304,-8.2304,-8.2304,-8.2304,-8.2304,-8.2304,-8.2304,-8.2304,-8.2304,-8.2304,-8.2304,-8.2304,-8.2304,-8.2304,-8.2304,-8.2304,-8.2304,-8.2304,-8.2304,-8.2304,-8.1875,-8.1015,-8.0156,-7.9726,-7.9687,-7.8008,-7.7695,-7.8476,-7.7617,-7.7695,-7.8515,-7.8515,-7.8984,-7.9726,-7.9726,-7.9219,-7.8515,-7.8515,-7.7969,-7.7226,-7.7226,-7.7773,-7.8515,-7.8515,-7.9609,-8.1015,-8.1015,-8.1601,-8.2304,-8.2304,-8.2304,-8.2304,-8.2304,-8.2304,-8.2304,-8.2304,-8.2304,-8.2304,-8.2304,-8.2304,-8.2031,-8.1172,-8.1015,-8.0742,-7.9883,-7.9062,-7.8515,-7.8515,-7.7773,-7.7539,-7.8398,-7.8515,-7.8828,-7.9609,-7.9687,-7.9687,-7.9726,-8.0508,-8.1015,-8.1015,-8.1797,-8.2304,-8.2304,-8.2304,-8.2304,-8.2304,-8.2304,-8.2304,-8.2304,-8.2304,-8.2304,-8.2304,-8.2304,-8.2304,-8.2304,-8.2304,-8.2304,-8.2304,-8.2304,-8.1797,-8.1015,-8.1015,-8.0039,-7.8594,-7.9375,-7.8672,-7.7422,-7.9101,-7.9687,-7.9844,-8.2304,-8.2304,-8.2304,-8.2304,-8.2304,-8.2304,-8.2304,-8.2304,-8.2304,-8.2304,-8.2304,-8.2304,-8.2304,-8.2304,-8.2304,-8.2304,-8.2304,-8.2304,-8.2304,-8.2304,-8.2304,-8.2304,-8.2304,-8.2304,-8.2304,-8.2304,-8.2187,-8.1914,-8.164,-8.1523,-8.1484,-8.039,-8.0,-8.0234,-7.9336,-7.9453,-8.0195,-7.9609,-8.0195,-8.1484,-8.0859,-8.0469,-8.0234,-8.0234,-7.9726,-7.8867,-7.832,-7.9023,-8.0156,-7.9531,-8.0508,-8.1914,-8.1914,-8.2109,-8.2304,-8.2304,-8.2304,-8.2304,-8.2304,-8.2304,-8.2304,-8.2304,-8.2304,-8.2304,-8.2304,-8.2304,-8.2226,-8.1953,-8.1445,-8.0937,-8.0664,-7.9922,-7.9336,-7.9336,-7.9101,-7.9062,-7.9297,-7.9336,-7.9414,-7.9687,-7.9687,-7.9922,-8.0547,-8.0859,-8.125,-8.1875,-8.2148,-8.2304,-8.2304,-8.2304,-8.2304,-8.2304,-8.2304,-8.2304,-8.2304,-8.2304,-8.2304,-8.2304,-8.2304,-8.2304,-8.2304,-8.2304,-8.2304,-8.2304,-8.2304,-8.1797,-8.1015,-8.1015,-8.0351,-7.9375,-7.9609,-7.9375,-7.9023,-7.9531,-8.0078,-8.0664,-8.2304,-8.2304,-8.2304,-8.2304,-8.2304,-8.2304,-8.2304,-8.2304,-8.2304,-8.2304,-8.2304,-8.2304,-8.2304,-8.2304,-8.2304,-8.2304,-8.2304,-8.2304,-8.2304,-8.2304,-8.2304,-8.2304,-8.2304,-8.2304,-8.2304,-8.2304,-8.2148,-8.1797,-8.1797,-8.1797,-8.1758,-8.0898,-8.0664,-8.0976,-8.0078,-8.0195,-8.0976,-8.0429,-8.1015,-8.2265,-8.1719,-8.1328,-8.1015,-8.1015,-8.0469,-7.9648,-7.914,-7.9844,-8.0937,-8.039,-8.1133,-8.2304,-8.2304,-8.2304,-8.2304,-8.2304,-8.2304,-8.2304,-8.2304,-8.2304,-8.2304,-8.2304,-8.2304,-8.2304,-8.2304,-8.2304,-8.2304,-8.2304,-8.1875,-8.1523,-8.1523,-8.0781,-8.0195,-8.0195,-7.9922,-7.9805,-8.0156,-8.0195,-8.0351,-8.0703,-8.0742,-8.0937,-8.1445,-8.1523,-8.1719,-8.2265,-8.2304,-8.2304,-8.2304,-8.2304,-8.2304,-8.2304,-8.2304,-8.2304,-8.2304,-8.2304,-8.2304,-8.2304,-8.2304,-8.2304,-8.2304,-8.2304,-8.2304,-8.2304,-8.2304,-8.1992,-8.1523,-8.1523,-8.1015,-8.0234,-8.0586,-8.0312,-7.9765,-8.0469,-8.0859,-8.1054,-8.2304,-8.2304,-8.2304,-8.2304,-8.2304,-8.2304,-8.2304,-8.2304,-8.2304,-8.2304,-8.2304,-8.2304,-8.2304,-8.2304,-8.2304,-8.2304,-8.2304,-8.2304,-8.2304,-8.2304,-8.2304,-8.2304,-8.2304,-8.2304,-8.2304,-8.2304,-8.1914,-8.1133,-8.1133,-8.1133,-8.1094,-8.0312,-8.0351,-8.1094,-8.0273,-8.0351,-8.1133,-8.1133,-8.1562,-8.2304,-8.2304,-8.1836,-8.1133,-8.1133,-8.0625,-7.9922,-7.9844,-8.039,-8.1133,-8.1133,-8.164,-8.2304,-8.2304,-8.2304,-8.2304,-8.2304,-8.2304,-8.2304,-8.2304,-8.2304,-8.2304,-8.2304,-8.2304,-8.2304,-8.2304,-8.2304,-8.2304,-8.2304,-8.2304,-8.2304,-8.2304,-8.164,-8.1133,-8.1133,-8.0469,-8.0195,-8.1015,-8.1133,-8.1406,-8.2226,-8.2304,-8.2304,-8.2304,-8.2304,-8.2304,-8.2304,-8.2304,-8.2304,-8.2304,-8.2304,-8.2304,-8.2304,-8.2304,-8.2304,-8.2304,-8.2304,-8.2304,-8.2304,-8.2304,-8.2304,-8.2304,-8.2304,-8.2304,-8.2304,-8.2304,-8.2304,-8.2304,-8.2304,-8.1836,-8.1211,-8.1992,-8.1328,-8.0117,-8.1719,-8.1797,-8.1211,-8.2304,-8.2304,-8.2304,-8.2304,-8.2304,-8.2304,-8.2304,-8.2304,-8.2304,-8.2304,-8.2304,-8.2304,-8.2304,-8.2304,-8.2304,-8.2304,-8.2304,-8.2304,-8.2304,-8.2304,-8.2304,-8.2304,-8.2304,-8.2304,-8.2304,-8.2304,-8.2226,-8.2031,-8.2031,-8.2031,-8.1992,-8.1836,-8.1836,-8.1992,-8.1836,-8.1836,-8.2031,-8.2031,-8.2148,-8.2304,-8.2304,-8.2187,-8.2031,-8.2031,-8.1914,-8.164,-8.0976,-8.1289,-8.2031,-8.2031,-8.2148,-8.2304,-8.2304,-8.2304,-8.2304,-8.2304,-8.2304,-8.2304,-8.2304,-8.2304,-8.2304,-8.2304,-8.2304,-8.2304,-8.2304,-8.2304,-8.2304,-8.2304,-8.2304,-8.2304,-8.2304,-8.2148,-8.2031,-8.2031,-8.1875,-8.1797,-8.1992,-8.2031,-8.2109,-8.2265,-8.2304,-8.2304,-8.2304,-8.2304,-8.2304,-8.2304,-8.2304,-8.2304,-8.2304,-8.2304,-8.2304,-8.2304,-8.2304,-8.2304,-8.2304,-8.2304,-8.2304,-8.2304,-8.2304,-8.2304,-8.2304,-8.2304,-8.2304,-8.2304,-8.2304,-8.2304,-8.2304,-8.2304,-8.2187,-8.2031,-8.2226,-8.207,-8.1797,-8.2148,-8.2187,-8.2031,-8.2304,-8.2304,-8.2304,-8.2304,-8.2304,-8.2304,-8.2304,-8.2304,-8.2304,-8.2304,-8.2304,-8.2304,-8.2304,-8.2304,-8.2304,-8.2304,-8.2304,-8.2304,-8.2304,-8.2304,-8.2304,-8.2304,-8.2304,-8.2304,-8.2304,-8.2304,-8.2304,-8.2304,-8.2304,-8.2304,-8.2304,-8.2304,-8.2304,-8.2304,-8.2304,-8.2304,-8.2304,-8.2304,-8.2304,-8.2304,-8.2304,-8.2304,-8.2304,-8.2304,-8.2304,-8.2226,-8.1797,-8.1914,-8.2304,-8.2304,-8.2304,-8.2304,-8.2304,-8.2304,-8.2304,-8.2304,-8.2304,-8.2304,-8.2304,-8.2304,-8.2304,-8.2304,-8.2304,-8.2304,-8.2304,-8.2304,-8.2304,-8.2304,-8.2304,-8.2304,-8.2304,-8.2304,-8.2304,-8.2304,-8.2304,-8.2304,-8.2304,-8.2304,-8.2304,-8.2304,-8.2304,-8.2304,-8.2304,-8.2304,-8.2304,-8.2304,-8.2304,-8.2304,-8.2304,-8.2304,-8.2304,-8.2304,-8.2304,-8.2304,-8.2304,-8.2304,-8.2304,-8.2304,-8.2304,-8.2304,-8.2304,-8.2304,-8.2304,-8.2304,-8.2304,-8.2304,-8.2304,-8.2304,-8.2304,-8.2304,-8.2304,-8.2304,-8.2304,-8.2304,-8.2304,-8.2304,-8.2304,-8.2304,-8.2304,-8.2304,-8.2304,-8.2304,-8.2304,-8.2304,-8.2304,-8.2304,-8.2304,-8.2304,-8.2304,-8.2304,-8.2304,-8.2304,-8.2304,-8.2304,-8.2304,-8.2304,-8.2304,-8.2304,-8.2304,-8.2304,-8.2304,-8.2304,-8.2304,-8.2304,-8.2304,-8.2304,-8.2304,-8.2304,-8.2304,-8.2304,-8.2304,-8.2304,-8.2304,-8.2304,-8.2304,-8.2304,-8.2304,-8.2304,-8.2304,-8.2304,-8.2304,-8.2304,-8.2304,-8.2304,-8.2304,-8.2304,-8.2304,-8.2304,-8.2304,-8.2304,-8.2304,-8.2304,-8.2304,-8.2304,-8.2304,-8.2304,-8.2304,-8.2304,-8.2304,-8.2304,-8.2304,-8.2304,-8.2304,-8.2304,-8.2304,-8.2304,-8.2304,-8.2304,-8.2304,-8.2304,-8.2304,-8.2304,-8.2304,-8.2304,-8.2304,-8.2304,-8.2304,-8.2304,-8.2304,-8.2304,-8.2304,-8.2304,-8.2304,-8.2304,-8.2304,-8.2304,-8.2304,-8.2304,-8.2304,-8.2304,-8.2304,-8.2304,-8.2304,-8.2304,-8.2304,-8.2304,-8.2304,-8.2304,-8.2304,-8.2304,-8.2304,-8.2304,-8.2304,-8.2304,-8.2304,-8.2304,-8.2304,-8.2304,-8.2304,-8.2304,-8.2304,-8.2304,-8.2304,-8.2304,-8.2304,-8.2304,-8.2304,-8.2304,-8.2304,-8.2304,-8.2304,-8.2304,-8.2304,-8.2304,-8.2304,-8.2304,-8.2304,-8.2304,-8.2304,-8.2304,-8.2304,-8.2304,-8.2304,-8.2304,-8.2304,-8.2304,-8.2304,-8.2304,-8.2304,-8.2304,-8.2304,-8.2304,-8.2304,-8.2304,-8.2304,-8.2304,-8.2304,-8.2304,-8.2304,-8.2304,-8.2304,-8.2304,-8.2304,-8.2304,-8.2304,-8.2304,-8.2304,-8.2304,-8.2304,-8.2304,-8.2304,-8.2304,-8.2304,-8.2304,-8.2304,-8.2304,-8.2304,-8.2304,-8.2304,-8.2304,-8.2304,-8.2304,-8.2304,-8.2304,-8.2304,-8.2304,-8.2304,-8.2304,-8.2304,-8.2304,-8.2304,-8.2304,-8.2304,-8.2304,-8.2304,-8.2304,-8.2304,-8.2304,-8.2304,-8.2304,-8.2304,-8.2304,-8.2304,-8.2304,-8.2304,-8.2304,-8.2304,-8.2304,-8.2304,-8.2304,-8.2304,-8.2304,-8.2304,-8.2304,-8.2304,-8.2304,-8.2304,-8.2304,-8.2304,-8.2304,-8.2304,-8.2304,-8.2304,-8.2304,-8.2304,-8.2304,-8.2304,-8.2304,-8.2304,-8.2304,-8.2304,-8.2304,-8.2304,-8.2304,-8.2304,-8.2304,-8.2304,-8.2304,-8.2304,-8.2304,-8.2304,-8.2304,-8.2304,-8.2304,-8.2304,-8.2304,-8.2304,-8.2304,-8.2304,-8.2304,-8.2304,-8.2304,-8.2304,-8.2304,-8.2304,-8.2304,-8.2304,-8.2304,-8.2304,-8.2304,-8.2304,-8.2304,-8.2304,-8.2304,-8.2304,-8.2304,-8.2304,-8.2304,-8.2304,-8.2304,-8.2304,-8.2304,-8.2304,-8.2304,-8.2304,-8.2304,-8.2304,-8.2304,-8.2304,-8.2304,-8.2304,-8.2304,-8.2304,-8.2304,-8.2304,-8.2304,-8.2304,-8.2304,-8.2304,-8.2304,-8.2304,-8.2304,-8.2304,-8.2304,-8.2304,-8.2304,-8.2304,-8.2304,-8.2304,-8.2304,-8.2304,-8.2304,-8.2304,-8.2304,-8.2304,-8.2304,-8.2304,-8.2304,-8.2304,-8.2304,-8.2304,-8.2304,-8.2304,-8.2304,-8.2304,-8.2304,-8.2304,-8.2304,-8.2304,-8.2304,-8.2304,-8.2304,-8.2304,-8.2304,-8.2304,-8.2304,-8.2304,-8.2304,-8.2304,-8.2304,-8.2304,-8.2304,-8.2304,-8.2304,-8.2304,-8.2304,-8.2304,-8.2304,-8.2304,-8.2304,-8.2304,-8.2304,-8.2304,-8.2304,-8.2304,-8.2304,-8.2304,-8.2304,-8.2304,-8.2304,-8.2304,-8.2304,-8.2304,-8.2304]},{"header":{"parameterUnit":"m.s-1","parameterCategory":1,"la1":30.6,"la2":28.766,"lo1":-90.7593,"lo2":-88.6598,"dy":0.0162,"dx":0.0183,"nx":116,"ny":114,"refTime":"2024-05-06T00:00:00:Z","depth":0,"parameterNumber":3,"parameterNumberName":"V-component_of_WINDS"},"data":[0.0,0.0,0.0,0.0,0.0,0.0,0.0,0.0,0.0,0.0,0.0,0.0,0.0,0.0,0.0,0.0,0.0,0.0,0.0,0.0,0.0,0.0,0.0,0.0,0.0,0.0,0.0,0.0,0.0,0.0,0.0,0.0,0.0,0.0,0.0,0.0,0.0,0.0,0.0,0.0,0.0,0.0,0.0,0.0,0.0,0.0,0.0,0.0,0.0,0.0,0.0,0.0,0.0,0.0,0.0,0.0,0.0,0.0,0.0,0.0,0.0,0.0,0.0,0.0,0.0,0.0,0.0,0.0,0.0,0.0,0.0,0.0,0.0,0.0,0.0,0.0,0.0,0.0,0.0,0.0,0.0,0.0,0.0,0.0,0.0,0.0,0.0,0.0,0.0,0.0,0.0,0.0,0.0,0.0,0.0,0.0,0.0,0.0,0.0,0.0,0.0,0.0,0.0,0.0,0.0,0.0,0.0,0.0,0.0,0.0,0.0,0.0,0.0,0.0,0.0,0.0,0.0,0.0,0.0,0.0,0.0,0.0,0.0,0.0,0.0,0.0,0.0,0.0,0.0,0.0,0.0,0.0,0.0,0.0,0.0,0.0,0.0,0.0,0.0,0.0,0.0,0.0,0.0,0.0,0.0,0.0,0.0,0.0,0.0,0.0,0.0,0.0,0.0,0.0,0.0,0.0,0.0,0.0,0.0,0.0,0.0,0.0,0.0,0.0,0.0,0.0,0.0,0.0,0.0,0.0,0.0,0.0,0.0,0.0,0.0,0.0,0.0,0.0,0.0,0.0,0.0,0.0,0.0,0.0,0.0,0.0,0.0,0.0,0.0,0.0,0.0,0.0,0.0,0.0,0.0,0.0,0.0,0.0,0.0,0.0,0.0,0.0,0.0,0.0,0.0,0.0,0.0,0.0,0.0,0.0,0.0,0.0,0.0,0.0,0.0,0.0,0.0,0.0,0.0,0.0,0.0,0.0,0.0,0.0,0.0,0.0,0.0,0.0,0.0,0.0,0.0,0.0,0.0,0.0,0.0,0.0,0.0,0.0,0.0,0.0,0.0,0.0,0.0,0.0,0.0,0.0,0.0,0.0,0.0,0.0,0.0,0.0,0.0,0.0,0.0,0.0,0.0,0.0,0.0,0.0,0.0,0.0,0.0,0.0,0.0,0.0,0.0,0.0,0.0,0.0,0.0,0.0,0.0,0.0,0.0,0.0,0.0,0.0,0.0,0.0,0.0,0.0,0.0,0.0,0.0,0.0,0.0,0.0,0.0,0.0,0.0,0.0,0.0,0.0,0.0,0.0,0.0,0.0,0.0,0.0,0.0,0.0,0.0,0.0,0.0,0.0,0.0,0.0,0.0,0.0,0.0,0.0,0.0,0.0,0.0,0.0,0.0,0.0,0.0,0.0,0.0,0.0,0.0,0.0,0.0,0.0,0.0,0.0,0.0,0.0,0.0,0.0,0.0,0.0,0.0,0.0,0.0,0.0,0.0,0.0,0.0,0.0,0.0,0.0,0.0,0.0,0.0,0.0,0.0,0.0,0.0,0.0,0.0,0.0,0.0,0.0,0.0,0.0,0.0,0.0,0.0,0.0,0.0,0.0,0.0,0.0,0.0,0.0,0.0,0.0,0.0,0.0,0.0,0.0,0.0,0.0,0.0,0.0,0.0,0.0,0.0,0.0,0.0,0.0,0.0,0.0,0.0,0.0,0.0,0.0,0.0,0.0,0.0,0.0,0.0,0.0,0.0,0.0,0.0,0.0,0.0,0.0,0.0,0.0,0.0,0.0,0.0,0.0,0.0,0.0,0.0,0.0,0.0,0.0,0.0,0.0,0.0,0.0,0.0,0.0,0.0,0.0,0.0,0.0,0.0,0.0,0.0,0.0,0.0,0.0,0.0,0.0,0.0,0.0,0.0,0.0,0.0,0.0,0.0,0.0,0.0,0.0,0.0,0.0,0.0,0.0,0.0,0.0,0.0,0.0,0.0,0.0,0.0,0.0,0.0,0.0,0.0,0.0,0.0,0.0,0.0,0.0,0.0,0.0,0.0,0.0,0.0,0.0,0.0,0.0,0.0,0.0,0.0,0.0,0.0,0.0,0.0,0.0,0.0,0.0,0.0,0.0,0.0,0.0,0.0,0.0,0.0,0.0,0.0,0.0,0.0,0.0,0.0,0.0,0.0,0.0,0.0,0.0,0.0,0.0,0.0,0.0,0.0,0.0,0.0,0.0,0.0,0.0,0.0,0.0,0.0,0.0,0.0,0.0,0.0,0.0,0.0,0.0,0.0,0.0,0.0,0.0,0.0,0.0,0.0,0.0,0.0,0.0,0.0,0.0,0.0,0.0,0.0,0.0,0.0,0.0,0.0,0.0,0.0,0.0,0.0,0.0,0.0,0.0,0.0,0.0,0.0,0.0,0.0,0.0,0.0,0.0,0.0,0.0,0.0,0.0,0.0,0.0,0.0,0.0,0.0,0.0,0.0,0.0,0.0,0.0,0.0,0.0,0.0,0.0,0.0,0.0,0.0,0.0,0.0,0.0,0.0,0.0,0.0,0.0,0.0,0.0,0.0,0.0,0.0,0.0,0.0,0.0,0.0,0.0,0.0,0.0,0.0,0.0,0.0,0.0,0.0,0.0,0.0,0.0,0.0,0.0,0.0,0.0,0.0,0.0,0.0,0.0,0.0,0.0,0.0,0.0,0.0,0.0,0.0,0.0,0.0,0.0,0.0,0.0,0.0,0.0,0.0,0.0,0.0,0.0,0.0,0.0,0.0,0.0,0.0,0.0,0.0,0.0,0.0,0.0,0.0,0.0,0.0,0.0,0.0,0.0,0.0,0.0,0.0,0.0,0.0,0.0,0.0,0.0,0.0,0.0,0.0,0.0,0.0,0.0,0.0,0.0,0.0,0.0,0.0,0.0,0.0,0.0,0.0,0.0,0.0,0.0,0.0,0.0,0.0,0.0,0.0,0.0,0.0,0.0,0.0,0.0,0.0,0.0,0.0,0.0,0.0,0.0,0.0,0.0,0.0,0.0,0.0,0.0,0.0,0.0,0.0,0.0,0.0,0.0,0.0,0.0,0.0,0.0,0.0,0.0,0.0,0.0,0.0,0.0,0.0,0.0,0.0,0.0,0.0,0.0,0.0,0.0,0.0,0.0,0.0,0.0,0.0,0.0,0.0,0.0,0.0,0.0,0.0,0.0,0.0,0.0,0.0,0.0,0.0,0.0,0.0,0.0,0.0,0.0,0.0,0.0,0.0,0.0,0.0,0.0,0.0,0.0,0.0,0.0,0.0,0.0,0.0,0.0,0.0,0.0,0.0,0.0,0.0,0.0,0.0,0.0,0.0,0.0,0.0,0.0,0.0,0.0,0.0,0.0,0.0,0.0,0.0,0.0,0.0,0.0,0.0,0.0,0.0,0.0,0.0,0.0,0.0,0.0,0.0,0.0,0.0,0.0,0.0,0.0,0.0,0.0,0.0,0.0,0.0,0.0,0.0,0.0,0.0,0.0,0.0,0.0,0.0,0.0,0.0,0.0,0.0,0.0,0.0,0.0,0.0,0.0,0.0,0.0,0.0,0.0,0.0,0.0,0.0,0.0,0.0,0.0,0.0,0.0,0.0,0.0,0.0,0.0,0.0,0.0,0.0,0.0,0.0,0.0,0.0,0.0,0.0,0.0,0.0,0.0,0.0,0.0,0.0,0.0,0.0,0.0,0.0,0.0,0.0,0.0,0.0,0.0,0.0,0.0,0.0,0.0,0.0,0.0,0.0,0.0,0.0,0.0,0.0,0.0,0.0,0.0,0.0,0.0,0.0,0.0,0.0,0.0,0.0,0.0,0.0,0.0,0.0,0.0,0.0,0.0,0.0,0.0,0.0,0.0,0.0,0.0,0.0,0.0,0.0,0.0,0.0,0.0,0.0,0.0,0.0,0.0,0.0,0.0,0.0,0.0,0.0,0.0,0.0,0.0,0.0,0.0,0.0,0.0,0.0,0.0,0.0,0.0,0.0,0.0,0.0,0.0,0.0,0.0,0.0,0.0,0.0,0.0,0.0,0.0,0.0,0.0,0.0,0.0,0.0,0.0,0.0,0.0,0.0,0.0,0.0,0.0,0.0,0.0,0.0,0.0,0.0,0.0,0.0,0.0,0.0,0.0,0.0,0.0,0.0,0.0,0.0,0.0,0.0,0.0,0.0,0.0,0.0,0.0,0.0,0.0,0.0,0.0,0.0,0.0,0.0,0.0,0.0,0.0,0.0,0.0,0.0,0.0,0.0,0.0,0.0,0.0,0.0,0.0,0.0,0.0,0.0,0.0,0.0,0.0,0.0,0.0,0.0,0.0,0.0,0.0,0.0,0.0,0.0,0.0,0.0,0.0,0.0,0.0,0.0,0.0,0.0,0.0,0.0,0.0,0.0,0.0,0.0,0.0,0.0,0.0,0.0,0.0,0.0,0.0,0.0,0.0,0.0,0.0,0.0,0.0,0.0,0.0,0.0,0.0,0.0,0.0,0.0,0.0,0.0,0.0,0.0,0.0,0.0,0.0,0.0,0.0,0.0,0.0,0.0,0.0,0.0,0.0,0.0,0.0,0.0,0.0,0.0,0.0,0.0,0.0,0.0,0.0,0.0,0.0,0.0,0.0,0.0,0.0,0.0,0.0,0.0,0.0,0.0,0.0,0.0,0.0,0.0,0.0,0.0,0.0,0.0,0.0,0.0,0.0,0.0,0.0,0.0,0.0,0.0,0.0,0.0,0.0,0.0,0.0,0.0,0.0,0.0,0.0,0.0,0.0,0.0,0.0,0.0,0.0,0.0,0.0,0.0,0.0,0.0,0.0,0.0,0.0,0.0,0.0,0.0,0.0,0.0,0.0,0.0,0.0,0.0,0.0,0.0,0.0,0.0,0.0,0.0,0.0,0.0,0.0,0.0,0.0,0.0,0.0,0.0,0.0,0.0,0.0,0.0,0.0,0.0,0.0,0.0,0.0,0.0,0.0,0.0,0.0,0.0,0.0,0.0,0.0,0.0,0.0,0.0,0.0,0.0,0.0,0.0,0.0,0.0,0.0,0.0,0.0,0.0,0.0,0.0,0.0,0.0,0.0,0.0,0.0,0.0,0.0,0.0,0.0,0.0,0.0,0.0,0.0,0.0,0.0,0.0,0.0,0.0,0.0,0.0,0.0,0.0,0.0,0.0,0.0,0.0,0.0,0.0,0.0,0.0,0.0,0.0,0.0,0.0,0.0,0.0,0.0,0.0,0.0,0.0,0.0,0.0,0.0,0.0,0.0,0.0,0.0,0.0,0.0,0.0,0.0,0.0,0.0,0.0,0.0,0.0,0.0,0.0,0.0,0.0,0.0,0.0,0.0,0.0,0.0,0.0,0.0,0.0,0.0,0.0,0.0,0.0,0.0,0.0,0.0,0.0,0.0,0.0,0.0,0.0,0.0,0.0,0.0,0.0,0.0,0.0,0.0,0.0,0.0,0.0,0.0,0.0,0.0,0.0,0.0,0.0,0.0,0.0,0.0,0.0,0.0,0.0,0.0,0.0,0.0,0.0,0.0,0.0,0.0,0.0,0.0,0.0,0.0,0.0,0.0,0.0,0.0,0.0,0.0,0.0,0.0,0.0,0.0,0.0,0.0,0.0,0.0,0.0,0.0,0.0,0.0,0.0,0.0,0.0,0.0,0.0,0.0,0.0,0.0,0.0,0.0,0.0,0.0,0.0,0.0,0.0,0.0,0.0,0.0,0.0,0.0,0.0,0.0,0.0,0.0,0.0,0.0,0.0,0.0,0.0,0.0,0.0,0.0,0.0,0.0,0.0,0.0,0.0,0.0,0.0,0.0,0.0,0.0,0.0,0.0,0.0,0.0,0.0,0.0,0.0,0.0,0.0,0.0,0.0,0.0,0.0,0.0,0.0,0.0,0.0,0.0,0.0,0.0,0.0,0.0,0.0,0.0,0.0,0.0,0.0,0.0,0.0,0.0,0.0,0.0,0.0,0.0,0.0,0.0,0.0,0.0,0.0,0.0,0.0,0.0,0.0,0.0,0.0,0.0,0.0,0.0,0.0,0.0,0.0,0.0,0.0,0.0,-1.8005,-1.664,0.0,0.0,0.0,0.0,0.0,0.0,0.0,0.0,0.0,0.0,0.0,0.0,0.0,0.0,0.0,0.0,0.0,0.0,0.0,0.0,0.0,0.0,0.0,-0.9001,-0.9042,-0.9042,-0.9178,-0.9327,-0.9483,0.0,0.0,0.0,0.0,0.0,-0.9984,-1.027,-1.0419,-1.0493,-1.0568,-1.0643,-1.0724,-1.0799,-1.0751,-1.0602,0.0,0.0,0.0,0.0,0.0,0.0,0.0,0.0,0.0,0.0,0.0,0.0,0.0,0.0,0.0,0.0,0.0,0.0,0.0,0.0,0.0,0.0,0.0,0.0,0.0,0.0,0.0,0.0,0.0,0.0,0.0,0.0,0.0,0.0,0.0,0.0,0.0,0.0,0.0,0.0,0.0,0.0,0.0,0.0,0.0,0.0,0.0,0.0,0.0,0.0,0.0,0.0,0.0,0.0,0.0,0.0,0.0,0.0,0.0,0.0,0.0,0.0,0.0,0.0,0.0,0.0,0.0,0.0,0.0,0.0,-2.1525,-2.0095,0.0,0.0,0.0,0.0,0.0,0.0,0.0,0.0,0.0,0.0,0.0,0.0,0.0,0.0,0.0,0.0,0.0,0.0,0.0,0.0,0.0,-0.7549,-0.8807,-0.9083,-0.9221,-0.9248,-0.9306,-0.9449,-0.9598,-0.9632,-0.97,-0.9815,-0.9957,-1.0051,-1.0031,-1.0378,-1.0534,-1.0534,-1.0683,-1.0758,-1.0765,-1.0941,-1.0941,-1.0799,-1.0799,0.0,0.0,0.0,0.0,0.0,0.0,0.0,0.0,0.0,0.0,0.0,0.0,0.0,0.0,0.0,0.0,0.0,0.0,0.0,0.0,0.0,0.0,0.0,0.0,0.0,0.0,0.0,0.0,0.0,0.0,0.0,0.0,0.0,0.0,0.0,0.0,0.0,0.0,0.0,0.0,0.0,0.0,0.0,0.0,0.0,0.0,0.0,0.0,0.0,0.0,0.0,0.0,0.0,0.0,0.0,0.0,0.0,0.0,0.0,0.0,0.0,0.0,0.0,-2.3101,-2.4642,-2.636,-2.5369,-2.5703,-2.7121,-2.5531,-2.4409,-2.3701,-2.3647,0.0,0.0,0.0,0.0,0.0,0.0,0.0,0.0,0.0,0.0,0.0,0.0,0.0,0.0,0.0,0.0,0.0,0.0,0.0,-0.8759,-0.911,-0.92,-0.9262,-0.934,-0.9367,-0.9449,-0.9598,-0.9727,-0.9802,-0.9822,-1.0215,-1.0378,-1.0249,-1.0541,-1.069,-1.069,-1.0846,-1.0853,-1.0853,-1.1206,-1.1253,-1.1104,-1.1104,-1.1036,-1.0847,0.0,0.0,0.0,0.0,0.0,0.0,0.0,0.0,0.0,0.0,0.0,0.0,0.0,0.0,0.0,0.0,0.0,0.0,0.0,0.0,0.0,0.0,0.0,0.0,0.0,0.0,0.0,0.0,0.0,0.0,0.0,0.0,0.0,0.0,0.0,0.0,0.0,0.0,0.0,0.0,0.0,-1.0493,-1.067,0.0,0.0,0.0,0.0,0.0,0.0,0.0,0.0,0.0,0.0,0.0,0.0,0.0,-1.8653,-1.9824,-2.2052,-2.3488,-2.4097,-2.6383,-2.7636,-2.7953,-2.8214,-2.8479,-2.8764,-2.9005,0.0,-2.5197,-2.4957,0.0,0.0,0.0,0.0,0.0,0.0,0.0,0.0,0.0,0.0,0.0,0.0,0.0,0.0,0.0,0.0,0.0,0.0,0.0,0.0,0.0,-0.9381,-0.9557,-0.9625,-0.9788,-0.9917,-0.9985,-1.0046,-1.008,-1.008,-1.0344,-1.0466,-1.0399,-1.0609,-1.0799,-1.0968,-1.1124,-1.128,-1.1379,-1.1755,-1.1857,-1.1803,-1.1877,-1.1599,-1.107,-1.107,0.0,0.0,0.0,0.0,0.0,0.0,0.0,0.0,0.0,0.0,0.0,0.0,0.0,0.0,0.0,0.0,0.0,0.0,0.0,0.0,0.0,0.0,0.0,0.0,0.0,0.0,0.0,0.0,0.0,0.0,0.0,0.0,0.0,0.0,0.0,0.0,0.0,0.0,0.0,-1.154,-1.2081,-1.0864,-1.1859,-1.2164,0.0,0.0,0.0,0.0,0.0,0.0,0.0,0.0,0.0,-2.1252,-2.2633,-2.3696,-2.4425,-2.5949,-2.6965,-2.7529,-2.9145,-2.9967,-3.014,-3.0568,-3.0755,-3.0768,-3.0862,-2.9887,-2.815,-2.7014,-2.5838,-2.469,0.0,0.0,0.0,0.0,-2.3728,-2.3888,0.0,0.0,0.0,0.0,0.0,0.0,0.0,0.0,0.0,0.0,0.0,0.0,-0.9316,-0.9598,-0.9856,-0.993,-1.0148,-1.0283,-1.0283,-1.0317,-1.0317,-1.0283,-1.0453,-1.0534,-1.0493,-1.0717,-1.0941,-1.1234,-1.143,-1.1674,-1.1898,-1.2284,-1.244,-1.2413,-1.2589,-1.2176,-1.1335,-1.1335,-1.1206,-1.1002,0.0,0.0,0.0,0.0,0.0,0.0,0.0,0.0,0.0,0.0,0.0,0.0,0.0,0.0,0.0,0.0,0.0,0.0,0.0,0.0,0.0,0.0,0.0,0.0,0.0,0.0,0.0,0.0,0.0,0.0,0.0,0.0,0.0,0.0,0.0,0.0,0.0,-1.2728,-1.3729,-1.174,-1.3671,-1.4395,0.0,0.0,0.0,0.0,0.0,0.0,-1.966,-2.1701,-2.3538,-2.5067,-2.6926,-2.8083,-2.8591,-2.9339,-3.0007,-3.0595,-3.133,-3.1824,-3.2118,-3.2345,-3.2438,-3.2425,-3.2211,-3.1664,-3.0782,-2.8925,-2.7281,-2.5892,-2.5157,-2.469,-2.4462,-2.4676,-2.4903,-2.5117,0.0,0.0,0.0,0.0,0.0,0.0,0.0,0.0,0.0,0.0,0.0,-0.9323,-0.9557,-0.9727,-0.9937,-1.0229,-1.027,-1.0283,-1.0283,-1.0405,-1.0419,-1.0283,-1.0555,-1.0643,-1.0493,-1.0914,-1.1151,-1.1234,-1.1742,-1.2033,-1.206,-1.2651,-1.2847,-1.2718,-1.301,-1.2637,-1.1796,-1.1796,-1.1545,-1.1138,-1.1002,0.0,0.0,0.0,0.0,0.0,0.0,0.0,0.0,0.0,0.0,0.0,0.0,0.0,0.0,0.0,0.0,0.0,0.0,0.0,0.0,0.0,0.0,0.0,0.0,0.0,0.0,0.0,0.0,0.0,0.0,0.0,0.0,0.0,0.0,0.0,0.0,0.0,0.0,-1.3789,-1.6163,0.0,0.0,0.0,0.0,-1.7836,-1.8915,-2.0737,-2.3385,-2.4109,-2.5853,-2.9097,-2.9352,-2.9913,-3.1036,-3.137,-3.1837,-3.2509,-3.2746,-3.304,-3.332,-3.3334,-3.3347,-3.3347,-3.3334,-3.2986,-3.2375,-3.0234,-2.8524,-2.7148,-2.6814,-2.652,-2.6253,-2.6266,-2.6293,-2.6306,0.0,0.0,0.0,0.0,0.0,-0.6543,-0.7602,-0.8242,-0.8737,-0.9035,-0.9205,-0.9415,-0.9713,-1.0046,-1.0337,-1.0548,-1.0656,-1.0711,-1.0711,-1.0663,-1.0616,-1.0568,-1.0663,-1.0697,-1.0636,-1.0982,-1.1301,-1.1592,-1.2101,-1.2542,-1.2929,-1.3247,-1.341,-1.3451,-1.3553,-1.3322,-1.2813,-1.2427,-1.206,-1.1721,-1.1477,-1.1136,0.0,0.0,0.0,0.0,0.0,0.0,0.0,0.0,0.0,0.0,0.0,0.0,0.0,0.0,0.0,0.0,0.0,0.0,0.0,0.0,0.0,0.0,0.0,0.0,0.0,0.0,0.0,0.0,0.0,0.0,0.0,0.0,0.0,0.0,0.0,0.0,0.0,-1.7267,-1.8653,0.0,-1.9096,-2.0455,-2.1447,-2.1539,-2.3605,-2.5558,-2.7091,-2.7853,-2.9115,-3.0849,-3.1263,-3.1744,-3.2345,-3.2639,-3.2893,-3.3106,-3.3213,-3.3307,-3.3414,-3.3414,-3.3414,-3.3414,-3.3414,-3.3187,-3.2746,-3.1623,-3.0301,-2.8885,-2.8016,-2.7495,-2.7228,-2.7228,-2.7348,-2.7549,0.0,0.0,0.0,-0.4418,-0.5881,-0.7202,-0.828,-0.854,-0.8743,-0.9042,-0.93,-0.9591,-0.9937,-1.0331,-1.0649,-1.0853,-1.0914,-1.088,-1.088,-1.0739,-1.0717,-1.0717,-1.0772,-1.0819,-1.0867,-1.1314,-1.1714,-1.2054,-1.261,-1.3085,-1.3485,-1.3682,-1.3831,-1.3919,-1.3973,-1.3885,-1.3668,-1.3166,-1.2664,-1.2182,-1.1891,-1.1558,-1.1157,0.0,0.0,0.0,0.0,0.0,0.0,0.0,0.0,0.0,0.0,0.0,0.0,0.0,0.0,0.0,0.0,0.0,0.0,0.0,0.0,0.0,0.0,0.0,0.0,0.0,0.0,0.0,0.0,0.0,0.0,0.0,0.0,0.0,0.0,-1.562,-1.8007,-1.9492,-2.1856,-2.3249,-2.2981,-2.4373,-2.5364,-2.5464,-2.7532,-2.9138,-3.002,-3.0728,-3.145,-3.2238,-3.2639,-3.2933,-3.312,-3.332,-3.3414,-3.3414,-3.3414,-3.3414,-3.3414,-3.3414,-3.3414,-3.3414,-3.3414,-3.324,-3.2946,-3.2452,-3.1623,-3.0528,-2.9245,-2.8564,-2.8283,-2.819,-2.8283,-2.8457,0.0,-0.3065,-0.4418,-0.5727,-0.7086,-0.8049,-0.8204,-0.8397,-0.8601,-0.8858,-0.9334,-0.9781,-1.0236,-1.0555,-1.0846,-1.1138,-1.1036,-1.0887,-1.088,-1.0739,-1.0717,-1.0717,-1.0806,-1.1029,-1.1241,-1.1918,-1.2379,-1.2522,-1.3268,-1.3634,-1.3654,-1.3946,-1.4082,-1.4102,-1.4245,-1.4312,-1.4292,-1.3994,-1.3356,-1.2522,-1.221,-1.1986,-1.1789,0.0,0.0,0.0,0.0,0.0,0.0,0.0,0.0,0.0,0.0,0.0,0.0,0.0,0.0,0.0,0.0,0.0,0.0,0.0,0.0,0.0,0.0,0.0,0.0,0.0,0.0,0.0,0.0,0.0,0.0,0.0,0.0,0.0,-1.2114,-1.7249,-2.1021,-2.0577,-2.5787,-2.9131,-2.8422,-2.8778,-2.9245,-2.9526,-3.0354,-3.1223,-3.2078,-3.2412,-3.2826,-3.3387,-3.3414,-3.3414,-3.3414,-3.3414,-3.3414,-3.3414,-3.3414,-3.3414,-3.3414,-3.3414,-3.3414,-3.3414,-3.3414,-3.3253,-3.2973,-3.2666,-3.2372,-3.1971,-3.0515,-2.978,-2.9486,-2.9192,-2.9072,-2.9005,-0.1762,-0.3065,-0.4117,-0.4468,-0.6603,-0.7942,-0.7136,-0.7912,-0.8798,-0.9205,-0.9462,-0.9822,-1.0371,-1.0704,-1.0962,-1.1145,-1.1124,-1.1056,-1.0887,-1.0739,-1.0717,-1.0717,-1.107,-1.1341,-1.1491,-1.2223,-1.2732,-1.299,-1.3417,-1.3797,-1.4116,-1.4197,-1.4353,-1.4557,-1.4597,-1.4618,-1.4604,-1.4407,-1.4061,-1.3573,-1.284,-1.2325,-1.1959,0.0,0.0,0.0,0.0,0.0,0.0,0.0,0.0,0.0,0.0,0.0,0.0,0.0,0.0,0.0,0.0,0.0,0.0,0.0,0.0,0.0,0.0,0.0,0.0,0.0,0.0,0.0,0.0,0.0,0.0,0.0,-1.4013,-1.4114,-1.4845,-1.9125,-2.2877,-2.4767,-2.7061,-2.9093,-3.0557,-3.0849,-3.0982,-3.1062,-3.169,-3.2265,-3.2706,-3.3013,-3.324,-3.3414,-3.3414,-3.3414,-3.3414,-3.3414,-3.3414,-3.3414,-3.3414,-3.3414,-3.3414,-3.3414,-3.3414,-3.3414,-3.3414,-3.336,-3.3253,-3.2746,-3.2589,-3.2318,-3.1276,-3.0688,-3.0394,-3.01,-2.9726,-2.9285,-0.1762,-0.3065,-0.4014,-0.4014,-0.6372,-0.7878,-0.6594,-0.7712,-0.8845,-0.9232,-0.953,-0.9903,-1.0432,-1.0765,-1.1002,-1.1151,-1.1104,-1.1036,-1.0887,-1.0739,-1.0806,-1.0995,-1.1369,-1.1735,-1.2081,-1.2759,-1.322,-1.3451,-1.3817,-1.4129,-1.4394,-1.4523,-1.4672,-1.4841,-1.4896,-1.4923,-1.4916,-1.4767,-1.4604,-1.438,-1.3607,-1.3024,-1.2583,-1.2223,-1.1932,-1.1701,-1.1511,-1.1423,-1.1369,-1.1282,0.0,0.0,0.0,0.0,0.0,0.0,0.0,0.0,0.0,0.0,0.0,0.0,0.0,0.0,0.0,0.0,0.0,0.0,0.0,0.0,0.0,0.0,0.0,0.0,-1.7093,-1.7568,-1.9241,-2.1651,-2.423,-2.7191,-2.9153,-3.0882,-3.2315,-3.2398,-3.2452,-3.2585,-3.2786,-3.304,-3.3347,-3.3387,-3.3414,-3.3414,-3.3414,-3.3414,-3.3414,-3.3414,-3.3414,-3.3414,-3.3414,-3.3414,-3.3414,-3.3414,-3.3414,-3.3414,-3.3414,-3.328,-3.3026,-3.2692,-3.2495,-3.2118,0.0,0.0,0.0,0.0,-2.9887,-2.9419,-0.1762,-0.2964,-0.3767,-0.3767,-0.6017,-0.7443,-0.6262,-0.7458,-0.8654,-0.9137,-0.9551,-0.9992,-1.0439,-1.0765,-1.1002,-1.1124,-1.1023,-1.0873,-1.0853,-1.0846,-1.0982,-1.1396,-1.1762,-1.223,-1.282,-1.3403,-1.379,-1.3966,-1.4367,-1.4577,-1.4618,-1.4909,-1.5059,-1.5072,-1.5201,-1.5255,-1.5248,-1.5072,-1.5004,-1.497,-1.438,-1.3865,-1.3403,-1.2949,-1.2684,-1.2501,-1.2081,-1.1775,-1.1538,-1.1335,0.0,0.0,0.0,0.0,0.0,0.0,0.0,0.0,0.0,0.0,0.0,0.0,0.0,0.0,0.0,0.0,0.0,0.0,0.0,0.0,0.0,0.0,0.0,0.0,-2.1087,-2.2595,-2.4779,-2.4565,-2.5335,-2.8336,-3.1547,-3.3467,-3.3467,-3.3467,-3.3587,-3.3908,-3.3614,-3.3547,-3.3868,-3.3587,0.0,0.0,0.0,-3.3414,-3.3414,-3.3414,-3.3414,-3.3414,-3.3414,-3.3414,-3.3414,-3.3414,-3.3414,-3.3414,-3.3414,-3.3106,-3.2599,-3.2656,-3.2198,-3.1637,-3.1303,-3.0996,-3.0675,-3.0087,-2.9686,-2.9392,-0.1762,-0.2213,-0.2364,-0.2364,-0.3723,-0.4822,-0.4845,-0.6013,-0.7529,-0.9164,-0.9618,-0.9992,-1.0439,-1.0765,-1.0894,-1.0921,-1.0894,-1.0826,-1.0772,-1.1077,-1.1355,-1.1565,-1.2325,-1.2963,-1.3444,-1.3926,-1.436,-1.4753,-1.4841,-1.5004,-1.5242,-1.5425,-1.5574,-1.5683,-1.571,-1.5723,-1.5696,-1.5309,-1.5215,-1.5282,-1.4801,-1.4265,-1.3709,-1.3261,-1.2996,-1.2847,-1.263,-1.2603,-1.2576,-1.2135,-1.1964,-1.1823,-1.1463,-1.1246,0.0,0.0,0.0,0.0,0.0,0.0,0.0,0.0,0.0,0.0,0.0,0.0,0.0,0.0,0.0,0.0,0.0,0.0,0.0,-2.1306,-2.0705,-2.2616,-2.9916,-2.7469,-2.6036,-2.8883,-3.1895,-3.3801,-3.3801,-3.3801,-3.3921,-3.4215,-3.3721,-3.3547,-3.3868,-3.3587,-3.3414,-3.3414,-3.3414,-3.3414,-3.3414,-3.3414,-3.3414,-3.3414,-3.3414,0.0,-3.3414,-3.3414,-3.3414,-3.3414,-3.3414,-3.3213,-3.2879,-3.2639,-3.2198,-3.1623,-3.1089,-3.0702,-3.0368,-2.978,-2.9379,-2.9085,-0.0871,-0.1521,-0.1767,-0.1122,-0.2745,-0.4211,-0.445,-0.5673,-0.7276,-0.9154,-0.9578,-0.9856,-1.0229,-1.048,-1.0616,-1.0616,-1.0677,-1.0785,-1.0934,-1.1226,-1.1626,-1.2149,-1.282,-1.3431,-1.3953,-1.4333,-1.4665,-1.497,-1.512,-1.5303,-1.5533,-1.5832,-1.6015,-1.6083,-1.6157,-1.6185,-1.6164,-1.5791,-1.5676,-1.5703,-1.5174,-1.474,-1.4353,-1.3905,-1.3593,-1.337,-1.3146,-1.3024,-1.2901,-1.2522,-1.2345,-1.223,-1.1932,-1.1681,-1.1484,0.0,0.0,0.0,0.0,0.0,0.0,0.0,0.0,0.0,0.0,0.0,0.0,0.0,0.0,-1.3819,-1.548,0.0,-1.991,-2.1868,-2.3261,-2.5691,-3.0503,-3.0145,-2.9873,-3.1465,-3.2963,-3.3881,-3.3881,-3.4015,-3.4108,-3.4108,-3.3814,-3.3721,-3.3881,-3.3587,-3.3414,-3.3414,-3.3414,-3.3414,-3.3414,-3.3414,-3.3414,-3.3414,-3.3414,-3.3414,-3.3414,-3.3414,-3.3414,-3.34,-3.3253,-3.3026,-3.2719,-3.2131,-3.1623,-3.1183,-3.0742,-3.0581,-3.0501,-2.9913,-2.9419,-2.8844,0.0,-0.0876,-0.1279,-0.0208,-0.1902,-0.3538,-0.3968,-0.5304,-0.6894,-0.8698,-0.9333,-0.972,-0.9957,-1.0188,-1.029,-1.0317,-1.0426,-1.0683,-1.12,-1.1416,-1.1925,-1.2739,-1.3261,-1.3783,-1.4333,-1.4631,-1.4875,-1.5059,-1.535,-1.5588,-1.5778,-1.6171,-1.6368,-1.6402,-1.6517,-1.6564,-1.6544,-1.6252,-1.6123,-1.6076,-1.5499,-1.5167,-1.4964,-1.4543,-1.4197,-1.3885,-1.3559,-1.3275,-1.3003,-1.2739,-1.2583,-1.2474,-1.2298,-1.2094,-1.1891,-1.1748,-1.1511,0.0,0.0,0.0,0.0,0.0,0.0,0.0,0.0,0.0,-1.2158,-1.457,-1.4084,-1.4569,-1.8787,-1.9433,-2.0261,-2.3145,-2.5979,-2.834,-2.9577,-3.144,-3.2501,-3.2277,-3.2736,-3.3258,-3.3881,-3.357,-3.3534,-3.3988,-3.3347,-3.2989,-3.3055,-3.2237,-3.207,-3.2598,-3.265,-3.2952,-3.3414,-3.3467,-3.3467,-3.3414,-3.3414,-3.3414,-3.3414,-3.336,-3.3334,-3.3307,-3.2452,-3.1672,-3.0899,-3.0108,-2.993,-3.0082,-2.9271,-2.9376,-2.9978,-2.9867,-2.9459,-2.8591,0.0,-0.0106,-0.0159,0.0,-0.027,-0.0927,-0.2237,-0.376,-0.537,-0.7122,-0.8679,-0.972,-0.9957,-1.0188,-1.0331,-1.046,-1.048,-1.0683,-1.12,-1.1809,-1.2413,-1.2915,-1.3614,-1.415,-1.4482,-1.4787,-1.5079,-1.5364,-1.5655,-1.5954,-1.6239,-1.6415,-1.6571,-1.67,-1.6714,-1.672,-1.6707,-1.6408,-1.6286,-1.6246,-1.5778,-1.5418,-1.5126,-1.4808,-1.4509,-1.419,-1.3756,-1.3498,-1.3247,-1.2569,-1.2413,-1.2454,-1.2176,-1.2155,-1.221,-1.2054,-1.1891,-1.1701,-1.1436,-1.1253,-1.1138,-1.1138,-1.1253,-1.147,0.0,0.0,-1.2599,-1.345,-1.5234,-1.709,-1.8725,-2.0676,-2.3514,-2.7668,-2.6606,-2.6291,-2.9419,-2.9789,-2.9005,-2.6762,-2.8769,-3.1166,-3.3678,-3.1715,-3.1405,-3.405,-3.1501,-2.9981,-3.022,-2.7598,-2.7261,-2.9724,-3.0064,-3.121,-3.3414,-3.3694,-3.3694,-3.3414,-3.3414,-3.3414,-3.34,-3.3146,-3.3026,-3.2901,-2.9947,-2.7433,-2.5187,-2.4693,-2.5732,-2.7393,-2.484,-2.5232,-2.7341,-2.8923,-2.9165,-2.83,0.0,0.0,0.0,0.0,0.0,-0.0494,-0.1991,-0.2726,-0.4126,-0.6768,-0.7721,-0.8569,-0.9761,-0.9971,-1.0073,-1.0222,-1.0317,-1.067,-1.1382,-1.1972,-1.261,-1.3322,-1.3899,-1.434,-1.4638,-1.4862,-1.5113,-1.5411,-1.571,-1.5961,-1.6185,-1.6415,-1.6605,-1.6748,-1.6748,-1.6802,-1.687,-1.6659,-1.6564,-1.6524,-1.6076,-1.5662,-1.5262,-1.4787,-1.4258,-1.3749,-1.3566,-1.3288,0.0,-1.2454,-1.2332,-1.2338,-1.2128,-1.2108,-1.2128,-1.1972,-1.1823,-1.166,-1.145,-1.1409,0.0,0.0,-1.1803,-1.2074,-1.2698,-1.2935,-1.3622,-1.5685,-1.5999,-1.6552,-1.8725,-2.0413,-2.2082,0.0,-2.4819,-2.5625,-2.7176,-2.7106,-2.6483,-2.5389,-2.4749,-2.62,-3.1003,-3.2046,-3.2161,-3.1423,-3.0305,-2.8905,-2.7209,-2.5882,-2.6444,-2.9217,-2.9424,-3.0757,-3.3414,-3.1895,-3.1175,-3.1063,-3.1063,-3.0129,-2.8687,-3.0121,-2.9803,-2.7966,-2.6529,-2.5138,-2.3886,-2.3571,-2.3936,-2.4646,-2.3283,-2.326,-2.4128,-2.5083,-2.5112,-2.4413,0.0,0.0,0.0,0.0,0.0,-0.0387,-0.1452,-0.1965,-0.3068,-0.549,-0.6589,-0.7805,-0.9606,-0.9822,-0.9883,-0.997,-1.0188,-1.0609,-1.1382,-1.1972,-1.2637,-1.341,-1.3953,-1.4353,-1.4611,-1.4848,-1.5092,-1.535,-1.5649,-1.5913,-1.6151,-1.632,-1.6503,-1.6686,-1.6686,-1.6775,-1.691,-1.6795,-1.6727,-1.6653,-1.6246,-1.5764,-1.5221,-1.457,-1.3865,-1.3207,-1.3166,-1.2868,-1.244,-1.2142,-1.2067,-1.2094,-1.202,-1.1999,-1.1986,-1.1911,-1.1762,-1.1606,-1.1531,0.0,0.0,-1.2176,-1.2454,-1.284,-1.3546,-1.377,-1.4562,-1.6954,-1.6319,-1.6202,-1.9208,-1.9649,-2.0102,-2.2025,-2.3352,-2.4221,-2.4487,-2.4784,-2.4396,-2.2722,-2.1857,-2.284,-2.6754,-2.9221,-3.019,-2.9342,-2.8154,-2.6418,-2.4196,-2.3362,-2.4187,-2.6955,-2.7187,-2.8427,-3.1151,-2.9244,-2.8325,-2.819,-2.819,-2.7159,-2.5215,-2.713,-2.629,-2.3253,-2.3197,-2.2564,-2.1592,-2.1293,-2.147,-2.1836,-2.0881,-2.0852,-2.1139,-2.0658,-2.1053,-2.1442,0.0,0.0,0.0,0.0,0.0,0.0,-0.0056,-0.1305,-0.2304,-0.2579,-0.523,-0.778,-0.962,-0.9822,-0.9883,-0.997,-1.0188,-1.0473,-1.0873,-1.1796,-1.2494,-1.2963,-1.3688,-1.415,-1.4312,-1.4746,-1.5045,-1.5187,-1.5493,-1.5872,-1.63,-1.6157,-1.6252,-1.653,-1.653,-1.6612,-1.6754,-1.6754,-1.6666,-1.6503,-1.6205,-1.5642,-1.4903,-1.415,-1.3397,-1.2732,-1.2583,-1.2244,-1.1816,-1.1518,-1.1518,-1.166,-1.1796,-1.1837,-1.1864,-1.2013,-1.185,-1.1647,0.0,0.0,-1.2338,-1.2637,-1.3152,-1.3743,-1.434,-1.4713,-1.5133,-1.5978,-1.6141,-1.7071,-2.0281,-1.8667,-1.8737,-2.4786,-2.3207,-2.1275,-2.1558,-2.3282,-2.2487,-1.6999,-2.0737,-2.2869,0.0,-2.0738,-2.3336,-2.8866,-2.4402,-2.1319,-2.1207,-1.8738,-1.8529,-2.131,-2.1757,-2.3021,-2.542,-2.5838,-2.5733,-2.5317,-2.5317,-2.5317,-2.5194,-2.486,-2.3026,-2.0183,-2.0085,-1.8714,-1.636,-1.6202,-1.7389,-1.9125,-1.659,-1.6981,-1.8677,-1.6292,-1.7985,-2.1126,0.0,0.0,0.0,0.0,0.0,0.0,0.0,-0.0404,-0.1155,-0.2345,-0.5275,0.0,0.0,0.0,0.0,0.0,-1.0134,-1.0473,-1.0853,-1.1511,-1.2088,-1.263,-1.3281,-1.3743,-1.3987,-1.4346,-1.4645,-1.4889,-1.5187,-1.5411,-1.5567,-1.5716,-1.5893,-1.6083,-1.6185,-1.6313,-1.6463,-1.6558,-1.6456,-1.6191,-1.5798,-1.5248,-1.4577,-1.3722,-1.2935,-1.2244,0.0,-1.1599,-1.1341,-1.1043,-1.105,-1.1116,-1.1163,-1.1307,-1.1416,-1.1572,-1.1755,-1.1945,-1.2094,0.0,-1.2996,-1.3492,-1.3919,-1.4421,-1.5221,-1.5486,-1.5655,-1.6008,-1.5845,-1.5939,-1.6942,-1.6298,-1.6993,-2.1334,-1.976,-1.8762,-2.0778,-2.0188,-1.8582,-1.5918,-1.7254,0.0,0.0,0.0,0.0,-2.3519,-2.1958,-2.0253,-1.8417,-1.7496,-1.8222,-2.0999,-2.1221,-2.263,-2.5313,-2.3568,-2.263,-2.263,-2.0641,-2.0696,-2.2424,-2.0204,-1.8667,-1.7653,-1.744,-1.6899,-1.592,-1.5771,-1.6097,-1.6605,-1.5695,-1.5786,-1.6385,-1.5556,-1.5966,-1.6806,0.0,0.0,0.0,0.0,0.0,0.0,0.0,0.0,0.0,0.0,0.0,0.0,0.0,0.0,0.0,0.0,0.0,-1.0317,-1.0543,-1.1145,-1.1647,-1.2088,-1.2684,-1.3119,-1.3356,-1.3607,-1.3858,-1.4102,-1.4292,-1.4468,-1.4631,-1.4828,-1.5059,-1.5303,-1.5452,-1.5662,-1.5906,-1.5893,-1.5805,-1.5635,-1.5079,-1.4523,-1.3933,-1.3037,-1.2332,0.0,-1.1314,-1.109,-1.0975,-1.0785,-1.0785,-1.082,-1.0989,-1.1165,-1.1348,-1.1443,-1.183,-1.2277,-1.2535,-1.3119,-1.3783,-1.4333,-1.4774,-1.5235,-1.5872,-1.5934,-1.5866,-1.5913,-1.5479,-1.5059,-1.4964,-1.4828,-1.5562,-1.7875,-1.7013,-1.6743,-1.887,-1.7509,-1.611,-1.5486,-1.5404,-1.5958,0.0,0.0,0.0,-2.0602,-1.9808,-1.8697,-1.707,-1.6978,-1.7811,-1.9558,-1.9718,-2.0602,-2.2413,-2.0602,-1.9773,-1.9715,-1.7853,-1.788,-1.9456,-1.7505,-1.6544,-1.6435,-1.6246,-1.6076,-1.5927,-1.5839,-1.571,-1.5554,-1.5404,-1.5309,-1.5255,-1.5201,-1.4997,-1.474,0.0,0.0,0.0,0.0,0.0,0.0,0.0,0.0,0.0,0.0,0.0,0.0,0.0,0.0,0.0,0.0,0.0,0.0,-0.9984,-1.0717,-1.1192,-1.1348,-1.1925,-1.2318,-1.2467,-1.2623,-1.2786,-1.2935,-1.2942,-1.3166,-1.358,-1.3593,-1.3824,-1.4238,-1.438,-1.4679,-1.5065,-1.4787,-1.4746,-1.4801,-1.4068,-1.3505,-1.3024,-1.2142,-1.1633,-1.1321,-1.0887,-1.0724,-1.0724,-1.0731,-1.0738,0.0,0.0,0.0,0.0,0.0,0.0,-1.2657,-1.3119,-1.3899,-1.4685,-1.512,-1.5662,-1.613,-1.6266,-1.6056,-1.5784,-1.5615,-1.4977,-1.4434,0.0,0.0,-1.4428,-1.5038,-1.5174,-1.5418,-1.6022,-1.5622,-1.5316,0.0,0.0,0.0,0.0,0.0,0.0,-1.9917,-1.7936,-1.6646,-1.6965,-1.6978,-1.6978,-1.6978,-1.7114,-1.7121,-1.6992,-1.7127,-1.7121,-1.6978,-1.6978,-1.6904,-1.6761,-1.6651,-1.6592,-1.632,-1.6313,-1.6225,-1.6083,-1.6062,-1.5974,-1.5825,-1.5676,-1.5527,-1.5377,-1.5235,-1.4997,-1.474,0.0,0.0,0.0,0.0,0.0,0.0,0.0,0.0,0.0,0.0,0.0,0.0,0.0,0.0,0.0,0.0,0.0,0.0,-0.9984,-1.0337,-1.0622,-1.088,-1.1362,-1.1742,-1.1999,-1.2264,-1.2474,-1.2617,-1.2732,-1.2847,-1.2963,-1.3078,-1.3193,-1.3308,-1.3451,-1.358,-1.3688,-1.3722,-1.3641,-1.3437,-1.301,-1.2644,-1.2284,-1.1714,-1.1389,-1.1192,-1.0968,-1.0752,-1.0738,0.0,0.0,0.0,0.0,0.0,-1.1708,0.0,0.0,-1.3464,-1.4021,-1.4828,-1.5567,-1.5798,-1.6056,-1.6232,-1.6157,-1.5818,-1.5384,-1.4896,-1.4116,-1.3444,0.0,0.0,0.0,-1.4394,-1.5086,0.0,-1.6327,-1.6476,0.0,-1.5961,0.0,-1.5852,-1.5554,-1.5655,0.0,0.0,-1.6738,-1.6544,-1.6958,-1.6978,-1.6978,-1.6978,-1.7019,-1.7066,-1.7141,-1.7175,-1.7121,-1.6978,-1.6978,-1.6958,-1.6917,-1.6802,-1.6646,-1.6463,-1.6354,-1.6225,-1.6062,-1.5845,-1.573,-1.5669,-1.5404,-1.5276,-1.5235,-1.5194,-1.4997,-1.474,0.0,0.0,0.0,0.0,0.0,0.0,0.0,0.0,0.0,0.0,0.0,0.0,0.0,0.0,0.0,0.0,0.0,0.0,0.0,-1.0195,-1.0385,-1.0609,-1.0928,-1.1172,-1.1341,-1.1511,-1.1674,-1.1823,-1.1837,-1.1911,-1.204,-1.2128,-1.2244,-1.2379,-1.2522,-1.2657,-1.2779,-1.2732,-1.2657,0.0,0.0,-1.1857,-1.1728,-1.1341,-1.1185,-1.1145,-1.1002,-1.0934,0.0,0.0,0.0,-1.1644,-1.166,-1.2013,-1.2494,-1.2956,0.0,-1.4333,-1.4862,-1.5567,-1.6185,-1.6334,-1.6341,-1.6239,-1.5954,-1.5391,-1.4733,-1.4061,-1.3315,0.0,-1.2481,0.0,0.0,0.0,0.0,0.0,-1.6035,-1.6286,-1.6341,0.0,-1.6259,0.0,-1.5961,-1.6008,-1.6178,0.0,-1.6442,-1.6571,-1.6958,-1.6978,-1.6978,-1.6978,-1.6978,-1.7019,-1.71,-1.71,-1.706,-1.6978,-1.6978,-1.6978,-1.6978,-1.6822,-1.6666,-1.6517,-1.6374,-1.6225,-1.6062,-1.5832,-1.5737,-1.5703,-1.5398,-1.5282,-1.5269,-1.514,-1.4943,-1.4733,0.0,0.0,0.0,0.0,0.0,0.0,0.0,0.0,0.0,0.0,0.0,-0.0681,0.0,0.0,0.0,0.0,0.0,0.0,0.0,0.0,-1.0324,-1.0487,-1.0616,-1.0697,-1.0717,-1.0717,-1.0785,-1.0853,-1.0785,-1.0853,-1.1104,-1.1104,-1.1246,-1.1504,-1.1626,-1.183,-1.2067,-1.1796,-1.1762,-1.1837,-1.1314,-1.1192,-1.1307,0.0,-1.1036,-1.1145,-1.1023,0.0,0.0,0.0,-1.1993,-1.2169,-1.2264,-1.2861,-1.3593,-1.3966,-1.457,-1.5221,-1.5689,-1.6205,-1.6646,-1.6775,-1.6524,-1.6123,-1.5655,-1.4841,-1.3966,-1.3214,0.0,-1.221,-1.206,-1.2305,-1.2739,-1.3356,0.0,-1.4679,-1.5601,-1.5744,-1.5913,-1.6347,-1.6395,-1.6395,-1.6395,-1.6395,-1.6503,-1.6761,-1.6659,-1.67,-1.6965,-1.6978,-1.6978,-1.6978,-1.6978,-1.6978,-1.6978,-1.6978,-1.6978,-1.6978,-1.6978,-1.6978,-1.6978,-1.6822,-1.6666,-1.6517,-1.6374,-1.6225,-1.6069,-1.5893,-1.5825,-1.5798,-1.5499,-1.5377,-1.535,-1.5072,-1.4875,-1.4719,0.0,0.0,0.0,0.0,0.0,0.0,0.0,0.0,0.0,0.0,0.0,-0.0617,0.0,0.0,0.0,0.0,0.0,0.0,0.0,0.0,0.0,-1.048,-1.0514,-1.0588,-1.0717,-1.0717,-1.0731,-1.0758,-1.0731,-1.0744,-1.0799,-1.0799,-1.0826,-1.088,-1.09,-1.0941,-1.0989,-1.0934,-1.0928,-1.0941,-1.0839,-1.0887,-1.0954,-1.09,0.0,0.0,0.0,0.0,0.0,0.0,-1.2284,-1.2718,-1.3336,-1.381,-1.4299,-1.5092,-1.5594,-1.6015,-1.6592,-1.691,-1.708,-1.7107,-1.6517,-1.5784,-1.5215,-1.4292,0.0,0.0,-1.2264,-1.2054,-1.1898,-1.2318,-1.2929,-1.3648,0.0,0.0,0.0,0.0,-1.649,0.0,0.0,0.0,0.0,0.0,0.0,0.0,-1.6917,-1.6924,-1.6978,-1.6978,-1.6978,-1.6978,-1.6978,-1.6978,-1.6978,-1.6978,-1.6978,-1.6978,-1.6978,-1.6978,-1.6978,-1.6822,-1.6666,-1.6517,-1.6374,-1.6225,-1.6062,-1.5791,-1.5676,-1.5649,-1.5343,-1.5221,-1.5201,-1.5031,-1.4875,-1.4719,0.0,0.0,0.0,0.0,0.0,0.0,0.0,0.0,0.0,0.0,0.0,-0.0315,-0.1124,-0.1177,-0.1848,0.0,0.0,0.0,0.0,0.0,0.0,-1.053,-1.0609,-1.0643,-1.0717,-1.0717,-1.0758,-1.0772,0.0,-1.0758,-1.0772,-1.0758,-1.0717,-1.0717,-1.0717,-1.0717,-1.0724,-1.0739,-1.0772,-1.0779,-1.0921,-1.1043,-1.1179,0.0,0.0,0.0,0.0,0.0,0.0,0.0,-1.2461,-1.3078,-1.3749,-1.4489,-1.5221,-1.5811,-1.6307,-1.6741,-1.7107,-1.7317,-1.7372,-1.7141,-1.6347,-1.5445,-1.4774,0.0,0.0,0.0,-1.1993,-1.1945,-1.1952,0.0,0.0,0.0,0.0,0.0,0.0,0.0,0.0,0.0,0.0,0.0,0.0,0.0,-1.6978,-1.6978,-1.6978,-1.6978,-1.6978,-1.6978,-1.6978,-1.6978,-1.6978,-1.6978,-1.6978,-1.6978,-1.6978,-1.6978,-1.6978,-1.6937,-1.6856,-1.67,-1.6551,-1.6402,-1.6252,-1.6151,-1.6056,-1.5764,-1.5642,-1.5608,-1.5303,-1.5181,-1.5153,-1.493,-1.4801,-1.4706,0.0,0.0,0.0,0.0,0.0,0.0,0.0,0.0,0.0,0.0,0.0,0.0,0.0,0.0,-0.0558,0.0,0.0,0.0,0.0,0.0,0.0,0.0,0.0,0.0,0.0,0.0,0.0,-1.0833,-1.0778,0.0,0.0,0.0,0.0,0.0,-1.0717,-1.0738,-1.0778,-1.0833,-1.09,0.0,0.0,-1.1253,0.0,0.0,0.0,0.0,0.0,0.0,0.0,0.0,-1.2542,-1.318,-1.3749,-1.4794,-1.5866,-1.6171,-1.6727,-1.7277,-1.7426,-1.7555,-1.7548,-1.7127,-1.6164,-1.514,-1.4455,-1.337,0.0,0.0,-1.1904,-1.1965,-1.2088,0.0,0.0,0.0,0.0,0.0,0.0,0.0,0.0,0.0,0.0,0.0,0.0,0.0,0.0,-1.6978,-1.6978,-1.6978,-1.6978,-1.6978,-1.6978,-1.6978,-1.6978,-1.6978,-1.6978,-1.6978,-1.6978,-1.6978,-1.6978,-1.6897,-1.6748,-1.6592,-1.6442,-1.63,-1.6151,-1.6083,-1.6056,-1.5764,-1.5642,-1.5608,-1.5303,-1.5181,-1.5147,-1.4848,-1.474,-1.4699,0.0,0.0,0.0,0.0,0.0,0.0,0.0,0.0,0.0,0.0,0.0,0.0,0.0,0.0,-0.0063,0.0,0.0,0.0,0.0,0.0,0.0,0.0,0.0,0.0,0.0,0.0,0.0,-1.0744,-1.0724,0.0,0.0,0.0,0.0,0.0,0.0,-1.0799,-1.086,-1.0873,0.0,0.0,0.0,0.0,0.0,0.0,0.0,0.0,0.0,0.0,0.0,0.0,0.0,-1.2854,-1.3315,-1.4475,-1.5716,-1.6015,0.0,0.0,-1.7589,-1.7629,-1.7568,-1.7249,-1.6083,-1.4889,-1.4407,0.0,0.0,-1.2101,-1.2149,-1.225,-1.2271,-1.2406,-1.2664,0.0,0.0,-1.3648,0.0,0.0,0.0,0.0,0.0,0.0,0.0,0.0,0.0,-1.6978,-1.6978,-1.6978,-1.6978,-1.6978,-1.6978,-1.6978,-1.6978,-1.6978,-1.6978,-1.6978,-1.6978,-1.6978,-1.6978,-1.6897,-1.6748,-1.6592,-1.6442,-1.63,-1.6151,-1.6083,-1.6056,-1.5764,-1.5642,-1.5608,-1.5303,-1.5181,-1.5147,-1.4848,-1.474,-1.4699,0.0,0.0,0.0,0.0,0.0,0.0,0.0,0.0,0.0,0.0,0.0,0.0,0.0,0.0,0.0,0.0,-0.0631,0.0,0.0,0.0,0.0,0.0,0.0,0.0,0.0,0.0,-1.0717,-1.0717,-1.0717,0.0,0.0,0.0,0.0,0.0,0.0,0.0,-1.0887,-1.1043,0.0,0.0,0.0,0.0,0.0,0.0,0.0,0.0,0.0,0.0,0.0,0.0,0.0,0.0,-1.2427,-1.3234,0.0,0.0,-1.6246,-1.6971,-1.7399,-1.7704,-1.7758,-1.7093,-1.6008,-1.4909,-1.419,0.0,-1.2318,-1.2108,-1.2182,-1.2291,-1.2291,-1.2406,-1.2562,-1.2739,-1.2766,0.0,0.0,0.0,0.0,0.0,0.0,0.0,0.0,0.0,-1.6978,-1.6978,-1.6978,-1.6978,-1.6978,-1.6978,-1.6978,-1.6978,-1.6978,-1.6978,-1.6978,-1.6978,-1.6978,-1.6978,-1.6978,-1.6849,-1.6612,-1.6551,-1.6395,-1.6171,-1.611,-1.6029,-1.5927,-1.5723,-1.5588,-1.5479,-1.5269,-1.5181,-1.5147,-1.4848,-1.474,-1.4699,0.0,0.0,0.0,0.0,0.0,0.0,0.0,0.0,0.0,0.0,0.0,0.0,0.0,0.0,0.0,0.0,0.0,0.0,0.0,0.0,0.0,0.0,0.0,0.0,0.0,0.0,-1.0717,-1.0717,-1.0717,-1.0744,0.0,0.0,0.0,0.0,0.0,0.0,0.0,0.0,0.0,0.0,0.0,0.0,0.0,0.0,0.0,0.0,0.0,0.0,0.0,0.0,0.0,0.0,0.0,0.0,0.0,0.0,-1.5499,-1.6374,-1.6883,-1.7419,-1.7629,-1.6822,-1.5832,-1.4841,0.0,-1.3071,-1.2325,-1.2216,-1.2277,-1.2352,-1.2352,-1.2433,-1.2501,-1.2501,0.0,-1.2752,0.0,0.0,0.0,0.0,0.0,0.0,0.0,-1.6876,-1.6978,-1.6978,-1.6978,-1.6978,-1.6978,-1.6978,-1.6978,-1.6978,-1.6978,-1.6978,-1.6978,-1.6978,-1.6978,-1.6978,-1.6978,-1.6822,-1.6524,-1.6524,-1.6361,-1.6083,-1.6035,-1.5954,-1.5839,-1.5649,-1.5506,-1.5398,-1.5242,-1.5153,-1.5086,-1.4835,-1.474,-1.4699,0.0,0.0,0.0,0.0,0.0,0.0,0.0,0.0,0.0,0.0,0.0,0.0,0.0,0.0,0.0,0.0,0.0,0.0,0.0,0.0,0.0,0.0,0.0,0.0,-1.0651,-1.0717,-1.0717,-1.0717,-1.0717,-1.0799,-1.0873,-1.0792,-1.0799,-1.088,0.0,0.0,0.0,0.0,-1.1477,0.0,0.0,0.0,-1.1619,0.0,0.0,0.0,0.0,0.0,0.0,0.0,0.0,0.0,0.0,-1.183,-1.225,0.0,-1.4482,-1.5716,-1.6015,-1.6639,-1.706,-1.6463,-1.552,-1.4584,0.0,-1.3146,-1.2501,-1.2501,-1.2501,-1.2501,-1.2501,-1.2501,-1.2501,-1.2501,-1.2501,0.0,0.0,0.0,0.0,0.0,0.0,0.0,0.0,-1.6632,-1.6978,-1.6978,-1.6978,-1.6978,-1.6978,-1.6978,-1.6978,-1.6978,-1.6978,-1.6978,-1.6978,-1.6978,-1.6978,-1.6978,-1.6978,-1.6822,-1.6524,-1.6524,-1.6361,-1.6076,-1.592,-1.5852,-1.5832,-1.5533,-1.5411,-1.5398,-1.5242,-1.5099,-1.4957,-1.4794,-1.474,-1.4699,0.0,0.0,0.0,0.0,0.0,0.0,0.0,0.0,0.0,0.0,0.0,0.0,0.0,0.0,0.0,0.0,0.0,0.0,0.0,0.0,0.0,0.0,0.0,0.0,-0.8834,-1.0047,-1.0772,-1.0806,-1.0806,-1.0948,-1.109,-1.1043,-1.105,-1.1097,-1.1097,-1.1179,0.0,-1.1369,-1.1477,0.0,0.0,-1.1619,-1.1619,0.0,0.0,0.0,0.0,0.0,0.0,0.0,0.0,0.0,0.0,0.0,0.0,-1.2528,-1.3485,-1.4543,-1.5153,-1.5567,-1.575,-1.5466,-1.4835,-1.415,-1.3654,-1.3085,-1.263,-1.2522,-1.2501,-1.2501,-1.2501,-1.2501,-1.2501,-1.2501,-1.2501,0.0,0.0,0.0,0.0,0.0,0.0,0.0,0.0,0.0,-1.6978,-1.6978,-1.6978,-1.6978,-1.6978,-1.6978,-1.6978,-1.6978,-1.6978,-1.6931,-1.6822,-1.6822,-1.6768,-1.6666,-1.6666,-1.6564,-1.6374,-1.6374,-1.6273,-1.6076,-1.592,-1.5798,-1.5689,-1.5493,-1.535,-1.5242,-1.5092,-1.5011,-1.4936,-1.4679,-1.4584,-1.4557,0.0,0.0,0.0,0.0,0.0,0.0,0.0,0.0,0.0,0.0,0.0,0.0,0.0,0.0,0.0,0.0,0.0,0.0,0.0,0.0,0.0,0.0,0.0,0.0,-0.7964,-0.9775,-1.0385,-0.9777,-1.0587,-1.0754,-1.0189,-1.0961,-1.1246,-1.1246,-1.1246,-1.1301,0.0,-1.1511,-1.1579,-1.1633,-1.1742,-1.1721,-1.1633,0.0,0.0,0.0,0.0,0.0,0.0,0.0,0.0,0.0,0.0,0.0,0.0,0.0,-1.2786,-1.3498,-1.4258,-1.4692,-1.4882,-1.4679,-1.4265,-1.379,-1.3336,-1.2929,-1.2617,-1.2522,-1.2501,-1.2501,-1.2501,-1.2501,-1.2501,-1.2501,-1.2501,0.0,0.0,0.0,0.0,0.0,0.0,0.0,0.0,-1.6849,-1.6978,-1.6978,-1.6978,-1.6978,-1.6978,-1.6924,-1.6917,-1.6978,-1.6924,-1.6849,-1.6754,-1.6693,-1.6619,-1.6524,-1.6524,-1.6449,-1.6307,-1.6307,-1.6225,-1.6069,-1.5866,-1.5723,0.0,-1.5411,-1.5269,-1.5167,-1.5025,-1.4936,-1.4855,-1.4604,-1.4509,-1.4489,0.0,0.0,0.0,0.0,0.0,0.0,0.0,0.0,0.0,0.0,0.0,0.0,0.0,0.0,0.0,0.0,0.0,0.0,0.0,0.0,0.0,0.0,0.0,-0.6164,-0.7764,-0.9576,-0.9716,-0.8005,-1.0054,-1.0113,-0.8545,-1.0478,-1.1409,-1.1409,-1.1409,-1.1409,-1.1423,-1.1701,-1.1748,-1.166,-1.1932,-1.1884,0.0,0.0,0.0,0.0,0.0,0.0,0.0,0.0,0.0,0.0,0.0,0.0,0.0,0.0,0.0,0.0,0.0,-1.3953,-1.4306,-1.4055,-1.3777,-1.3458,-1.3037,-1.2725,0.0,-1.2501,-1.2508,-1.2515,-1.2501,-1.2508,-1.2515,-1.2501,0.0,0.0,0.0,0.0,0.0,0.0,0.0,0.0,-1.6103,-1.6632,-1.6978,-1.6978,-1.6978,-1.6978,-1.6978,-1.6836,-1.6815,-1.6958,-1.6802,-1.672,-1.6734,-1.6585,-1.6503,-1.649,-1.649,-1.6422,-1.6293,-1.6279,-1.6198,-1.6049,-1.575,-1.5622,-1.5601,-1.5303,-1.5174,-1.5153,-1.5011,-1.4862,-1.4706,-1.455,-1.4496,-1.4475,0.0,0.0,0.0,0.0,0.0,0.0,0.0,0.0,0.0,0.0,0.0,0.0,0.0,0.0,0.0,0.0,0.0,0.0,0.0,0.0,0.0,0.0,-0.3689,-0.5563,-0.603,-0.7764,-0.8469,-0.8262,-0.8847,-0.8965,-0.8663,-1.0621,-1.1565,-1.1565,-1.1565,-1.1565,-1.1572,-1.164,-1.1714,-1.1789,-1.1857,-1.1918,0.0,0.0,0.0,0.0,-1.204,-1.2135,0.0,0.0,0.0,0.0,0.0,0.0,0.0,0.0,-1.2474,-1.2542,-1.2718,0.0,-1.301,-1.318,-1.3078,-1.2915,0.0,-1.2725,-1.2644,-1.2528,0.0,-1.2637,-1.2522,-1.2596,-1.2637,0.0,0.0,0.0,0.0,0.0,0.0,0.0,0.0,-1.6632,-1.6286,-1.6693,-1.6978,-1.6978,-1.6978,-1.6978,-1.6978,-1.6836,-1.6768,-1.6802,-1.6551,-1.6463,-1.6571,-1.6429,-1.63,-1.6185,-1.6185,-1.6171,-1.613,-1.6015,-1.594,-1.5893,-1.5594,-1.5466,-1.5452,-1.5262,-1.512,-1.5004,-1.4855,-1.4699,-1.455,-1.4401,-1.4346,-1.4346,0.0,0.0,0.0,0.0,0.0,0.0,0.0,0.0,0.0,0.0,0.0,0.0,0.0,0.0,0.0,0.0,0.0,0.0,0.0,0.0,0.0,0.0,-0.3488,-0.5429,-0.5429,-0.7098,-0.7665,-0.6974,-0.8069,-0.8206,-0.7537,-1.0456,-1.1782,-1.1714,-1.1647,-1.1619,-1.1626,-1.1762,-1.1823,-1.185,-1.2054,0.0,0.0,0.0,0.0,0.0,-1.2216,-1.2277,0.0,-1.2366,-1.2488,-1.2596,0.0,0.0,0.0,0.0,-1.2501,-1.2501,-1.2501,-1.2501,-1.2542,-1.2712,-1.2684,-1.2623,-1.2623,0.0,0.0,0.0,0.0,0.0,0.0,0.0,0.0,0.0,0.0,0.0,0.0,0.0,0.0,0.0,0.0,-1.6659,0.0,-1.6775,-1.6876,-1.6876,-1.6809,-1.6768,-1.6768,-1.6625,-1.6578,-1.6646,-1.6361,-1.6273,-1.6422,-1.6205,-1.6056,-1.5974,-1.5974,-1.5974,-1.5974,-1.5893,-1.5852,-1.5839,-1.554,-1.5371,-1.5296,-1.5147,-1.4997,-1.4848,-1.4692,-1.4584,-1.4496,-1.4353,-1.4299,-1.4299,0.0,0.0,0.0,0.0,0.0,0.0,0.0,0.0,0.0,0.0,0.0,0.0,0.0,0.0,0.0,0.0,0.0,0.0,0.0,0.0,0.0,0.0,-0.3222,-0.5095,-0.5362,-0.6577,-0.6597,-0.5441,-0.7363,-0.7657,-0.6507,-1.0334,-1.1979,-1.1823,-1.1708,-1.164,-1.164,-1.1911,-1.1965,-1.1904,-1.2305,0.0,0.0,0.0,0.0,0.0,0.0,0.0,0.0,-1.2488,-1.2623,-1.2712,-1.2603,0.0,0.0,0.0,0.0,0.0,-1.2528,-1.2522,-1.2501,-1.2501,-1.2522,-1.2535,-1.2535,0.0,0.0,0.0,0.0,0.0,0.0,-1.2888,0.0,0.0,0.0,0.0,0.0,0.0,0.0,0.0,0.0,0.0,-1.6815,-1.6788,-1.6741,-1.6714,-1.6592,-1.6524,-1.6524,-1.6388,-1.6368,-1.6483,-1.6225,-1.613,-1.6239,-1.5981,-1.5845,-1.5818,-1.5818,-1.5818,-1.5818,-1.5798,-1.5784,-1.5771,-1.5472,-1.5269,-1.514,-1.4997,-1.4841,-1.4692,-1.4563,-1.4496,-1.4462,-1.4346,-1.4299,-1.4299,0.0,0.0,0.0,0.0,0.0,0.0,0.0,0.0,0.0,0.0,0.0,0.0,0.0,0.0,0.0,0.0,0.0,0.0,0.0,0.0,0.0,0.0,-0.2016,-0.3823,-0.5362,-0.4138,-0.4195,-0.558,-0.6151,-0.7144,-0.8504,-1.094,-1.1979,-1.183,-1.1809,-1.1735,-1.1633,-1.1796,-1.1932,-1.2047,-1.2244,0.0,0.0,0.0,0.0,0.0,0.0,0.0,0.0,-1.2644,-1.2712,-1.2752,-1.2854,0.0,0.0,0.0,0.0,0.0,-1.2657,-1.2603,-1.2501,-1.2501,-1.2596,-1.2698,-1.2698,-1.2793,0.0,0.0,0.0,0.0,0.0,-1.3044,-1.3098,0.0,0.0,0.0,0.0,0.0,0.0,-1.5852,0.0,-1.6707,-1.6266,-1.6537,-1.6693,-1.6564,-1.6537,-1.6524,-1.6524,-1.6388,-1.632,-1.6341,-1.6171,-1.6029,-1.5927,-1.5879,-1.5791,-1.5669,-1.5669,-1.5669,-1.5669,-1.554,-1.5479,-1.5459,-1.5167,-1.5025,-1.4991,-1.4835,-1.4685,-1.4543,-1.4523,-1.4434,-1.4333,-1.4306,-1.4299,-1.4299,0.0,0.0,0.0,0.0,0.0,0.0,0.0,0.0,0.0,0.0,0.0,0.0,0.0,0.0,0.0,0.0,0.0,0.0,0.0,0.0,-0.0405,-0.1427,-0.1291,-0.2105,-0.3934,-0.4164,-0.4719,-0.5706,-0.705,-0.8219,-0.9205,-1.1158,-1.2026,-1.1945,-1.1789,-1.1681,-1.1633,-1.1857,-1.1999,-1.2155,0.0,0.0,0.0,0.0,0.0,0.0,0.0,0.0,0.0,0.0,-1.2786,-1.2868,-1.2935,0.0,0.0,0.0,0.0,0.0,-1.2712,-1.2617,-1.2522,-1.2603,-1.2678,-1.2752,-1.2834,-1.2908,0.0,0.0,0.0,0.0,0.0,0.0,-1.3451,-1.3546,0.0,-1.4278,-1.4774,-1.516,-1.5506,0.0,0.0,-1.6449,-1.6334,-1.6435,-1.6449,-1.6293,-1.6205,-1.6164,-1.6164,-1.6022,-1.5981,-1.6062,-1.592,-1.5771,-1.5615,-1.5615,-1.5581,-1.5513,-1.5513,-1.5513,-1.5513,-1.5445,-1.5364,-1.5276,-1.5065,-1.4875,-1.4719,-1.4645,-1.4529,-1.4394,-1.4394,-1.436,-1.4299,-1.4299,-1.4299,-1.4299,0.0,0.0,0.0,0.0,0.0,0.0,0.0,0.0,0.0,0.0,0.0,0.0,0.0,0.0,0.0,0.0,0.0,0.0,0.0,0.0,-0.0608,-0.1978,-0.0754,-0.0826,-0.2629,-0.4228,-0.5299,-0.5936,-0.8183,-0.9623,-1.0207,-1.151,-1.2094,-1.2128,-1.1782,-1.1653,-1.164,-1.1938,-1.2135,-1.2088,0.0,0.0,0.0,0.0,0.0,0.0,0.0,0.0,0.0,0.0,0.0,0.0,0.0,0.0,0.0,-1.3044,-1.2874,-1.2732,-1.2732,-1.2617,-1.2549,-1.2739,-1.2786,-1.2834,-1.3024,-1.3091,-1.3119,0.0,0.0,0.0,0.0,0.0,0.0,-1.4068,-1.4373,-1.4658,-1.4916,-1.5208,-1.5533,-1.5913,-1.609,-1.6259,-1.6456,-1.6341,-1.6191,-1.6042,-1.5886,-1.5805,-1.5805,-1.5662,-1.5655,-1.5798,-1.5662,-1.5527,-1.5411,-1.5411,-1.5377,-1.5309,-1.5343,-1.5343,-1.5309,-1.5343,-1.5276,-1.5126,-1.4977,-1.476,-1.4509,-1.4475,-1.4401,-1.4299,-1.4299,-1.4299,-1.4299,-1.4299,-1.4299,-1.4299,0.0,0.0,0.0,0.0,0.0,0.0,0.0,0.0,0.0,0.0,0.0,0.0,0.0,0.0,0.0,0.0,0.0,0.0,0.0,0.0,-0.0067,-0.0202,-0.0068,-0.0834,-0.2632,-0.3095,-0.425,-0.6241,-0.8463,-1.0575,-1.2456,-1.233,-1.2196,-1.2054,-1.1891,-1.1742,-1.164,-1.1938,-1.2135,-1.2088,-1.2386,0.0,0.0,0.0,0.0,0.0,0.0,0.0,0.0,0.0,0.0,0.0,0.0,0.0,-1.3173,-1.3159,-1.2956,-1.2732,-1.2732,-1.2617,-1.2569,-1.2874,-1.2942,-1.3017,-1.3302,-1.3478,-1.358,-1.358,0.0,0.0,0.0,-1.3519,0.0,0.0,-1.4529,-1.4923,-1.5493,0.0,-1.6083,-1.6252,-1.6402,-1.6442,-1.6334,-1.6185,-1.6035,-1.5879,-1.5737,-1.5655,-1.5655,-1.5506,-1.5499,-1.5649,-1.5506,-1.5418,-1.5411,-1.5411,-1.5276,-1.5004,-1.5133,-1.5126,-1.5011,-1.514,-1.512,-1.4977,-1.4821,-1.4665,-1.4502,-1.4367,-1.4306,-1.4299,-1.4299,-1.4299,-1.4299,-1.4299,-1.4299,-1.4299,0.0,0.0,0.0,0.0,0.0,0.0,0.0,0.0,0.0,0.0,0.0,0.0,0.0,0.0,0.0,0.0,0.0,0.0,0.0,0.0,0.0,0.0,0.0,-0.0354,-0.1025,-0.3669,-0.6195,-0.8324,-1.0503,-1.1914,-1.2583,-1.2386,-1.221,-1.2054,-1.1898,-1.1857,-1.1904,-1.2013,-1.2115,-1.2223,-1.242,-1.2501,0.0,0.0,0.0,0.0,0.0,0.0,0.0,0.0,-1.3097,-1.3125,-1.3336,-1.3363,-1.3315,-1.3315,-1.3105,-1.2874,-1.2874,-1.2759,-1.2698,-1.2908,-1.303,-1.3173,-1.3471,-1.3654,-1.3763,-1.3763,-1.3838,0.0,0.0,0.0,-1.4021,-1.4373,-1.4841,-1.5269,-1.5594,-1.5974,-1.6212,-1.6171,-1.6218,-1.6191,-1.6042,-1.5893,-1.5744,-1.5588,-1.5438,-1.5357,-1.5357,-1.5126,-1.5065,-1.5221,-1.5072,-1.4991,-1.4991,-1.4991,-1.4889,-1.4685,-1.4936,-1.497,-1.4828,-1.4882,-1.4828,-1.4679,-1.4624,-1.4516,-1.4373,-1.4326,-1.4299,-1.4299,-1.4299,-1.4299,-1.4299,-1.4299,-1.4299,-1.4299,0.0,0.0,0.0,0.0,0.0,0.0,0.0,0.0,0.0,0.0,0.0,0.0,0.0,0.0,0.0,0.0,0.0,0.0,0.0,0.0,0.0,0.0,0.0,-0.057,-0.1844,-0.484,-0.7137,-0.8594,-1.1384,-1.2651,-1.2501,-1.2359,-1.221,-1.2054,-1.1952,-1.1965,-1.2067,-1.2115,-1.2196,-1.2305,-1.2447,-1.2501,0.0,0.0,0.0,0.0,0.0,0.0,0.0,0.0,-1.3024,-1.3139,-1.3342,-1.3403,-1.339,-1.3342,-1.3152,-1.2949,-1.2901,-1.2773,-1.2705,-1.2908,-1.303,-1.3207,-1.3607,-1.381,-1.3939,-1.4034,-1.4061,-1.4041,-1.3933,0.0,0.0,0.0,-1.497,-1.5357,-1.5601,-1.594,-1.611,-1.5961,-1.5981,-1.5954,-1.5798,-1.5608,-1.5452,-1.5343,-1.5153,-1.5045,-1.5045,-1.4801,-1.474,-1.4896,-1.4746,-1.4692,-1.474,-1.474,-1.4665,-1.4516,-1.4726,-1.4774,-1.4672,-1.4719,-1.4658,-1.4509,-1.4509,-1.4428,-1.4299,-1.4299,-1.4299,-1.4299,-1.4299,-1.4299,-1.4299,-1.4299,-1.4299,-1.4299,0.0,0.0,0.0,0.0,0.0,0.0,0.0,0.0,0.0,0.0,0.0,0.0,0.0,0.0,0.0,0.0,0.0,0.0,0.0,0.0,0.0,0.0,0.0,-0.1914,-0.5881,-0.633,-0.6564,-0.657,-1.0672,-1.2651,-1.2494,-1.2352,-1.221,-1.2067,-1.2067,-1.2067,-1.2081,-1.223,-1.2291,-1.2305,-1.2447,-1.2501,-1.2501,0.0,0.0,0.0,0.0,0.0,0.0,0.0,-1.2963,-1.3017,-1.3308,-1.3397,-1.337,-1.322,-1.3071,-1.2929,-1.2779,-1.2623,-1.2576,-1.2888,0.0,0.0,-1.3709,-1.396,-1.4156,-1.4448,-1.4278,-1.4075,-1.4075,-1.3946,0.0,-1.4638,-1.4869,-1.5126,-1.5574,-1.5757,-1.5798,-1.5655,-1.5757,-1.5791,-1.5649,-1.5357,-1.5181,-1.5181,-1.4903,-1.474,-1.474,-1.459,-1.4577,-1.4733,-1.459,-1.4584,-1.4733,-1.4733,-1.4658,-1.4509,-1.4509,-1.4509,-1.4516,-1.4665,-1.4652,-1.4509,-1.4509,-1.4428,-1.4299,-1.4299,-1.4299,-1.4299,-1.4299,-1.4299,-1.4299,-1.4299,-1.4299,-1.4299,0.0,0.0,0.0,0.0,0.0,0.0,0.0,0.0,0.0,0.0,0.0,0.0,0.0,0.0,0.0,0.0,0.0,0.0,0.0,0.0,0.0,0.0,-0.1275,-0.2573,-0.3778,-0.6662,-0.9031,-1.0701,-1.1998,-1.244,-1.2196,-1.2257,-1.2318,-1.2366,-1.2271,-1.2338,-1.2522,-1.2359,-1.2345,-1.244,-1.2481,-1.2501,-1.2501,0.0,0.0,0.0,0.0,0.0,0.0,0.0,0.0,0.0,-1.3247,-1.3315,-1.339,-1.3349,-1.3159,-1.2976,-1.3024,-1.2935,0.0,-1.3064,0.0,0.0,0.0,-1.396,0.0,0.0,-1.436,-1.4197,-1.4089,-1.4034,0.0,-1.4387,-1.4733,-1.5052,-1.5289,-1.554,-1.5649,-1.5499,-1.5425,-1.5323,-1.5181,-1.4991,-1.4869,-1.4869,-1.4692,-1.4577,-1.4577,-1.4441,-1.438,-1.4428,-1.4387,-1.4387,-1.4428,-1.4428,-1.4407,-1.4367,-1.4367,-1.4367,-1.4367,-1.4407,-1.4407,-1.4367,-1.4367,-1.434,-1.4299,-1.4299,-1.4299,-1.4299,-1.4299,-1.4299,-1.4299,-1.4299,-1.4299,-1.4299,0.0,0.0,0.0,0.0,0.0,0.0,0.0,0.0,0.0,0.0,0.0,0.0,0.0,0.0,0.0,0.0,0.0,0.0,0.0,0.0,0.0,0.0,-0.1855,-0.3664,-0.5265,-0.8397,-1.0767,-1.2237,-1.2298,-1.2237,-1.2067,-1.2277,-1.242,-1.2501,-1.2542,-1.2623,-1.2718,-1.2542,-1.2515,-1.2589,-1.2589,-1.263,-1.2678,0.0,0.0,0.0,0.0,0.0,0.0,0.0,0.0,0.0,-1.3254,-1.3329,-1.3403,-1.3403,-1.3234,-1.3064,-1.3152,-1.3071,0.0,-1.3214,-1.3403,-1.3607,-1.3871,0.0,0.0,0.0,-1.4536,-1.4428,-1.4272,-1.4197,0.0,-1.436,-1.4611,-1.4841,-1.4984,-1.5221,-1.5316,-1.516,-1.512,-1.5038,-1.4896,-1.474,-1.4652,-1.4652,-1.4509,-1.4428,-1.4428,-1.4346,-1.4299,-1.4299,-1.4299,-1.4299,-1.4299,-1.4299,-1.4299,-1.4299,-1.4299,-1.4299,-1.4299,-1.4299,-1.4299,-1.4299,-1.4299,-1.4299,-1.4299,-1.4299,-1.4299,-1.4299,-1.4299,-1.4299,-1.4299,-1.4299,-1.4299,-1.4299,0.0,0.0,0.0,0.0,0.0,0.0,0.0,0.0,0.0,0.0,0.0,0.0,0.0,0.0,0.0,0.0,0.0,0.0,0.0,0.0,0.0,0.0,-0.2002,-0.5051,-0.9087,-1.0858,-1.1809,-1.1809,-1.1965,-1.2047,-1.2142,-1.2352,-1.2501,-1.2556,-1.282,-1.2868,-1.2752,-1.2718,-1.2718,-1.2732,-1.2732,-1.282,-1.2942,-1.2786,0.0,0.0,0.0,0.0,0.0,0.0,0.0,0.0,-1.3302,-1.339,-1.3403,-1.3403,-1.3295,-1.3173,-1.3193,0.0,0.0,-1.3349,-1.3444,0.0,-1.3994,-1.4407,-1.4699,-1.4699,0.0,-1.4672,-1.4523,-1.4387,-1.434,-1.4468,-1.4502,-1.4563,-1.4699,-1.4855,-1.4896,-1.474,-1.4841,-1.4869,-1.4713,-1.4577,-1.4489,-1.4489,-1.4373,-1.4299,-1.4299,-1.4299,-1.4299,-1.4299,-1.4299,-1.4299,-1.4299,-1.4299,-1.4299,-1.4299,-1.4299,-1.4299,-1.4299,-1.4299,-1.4299,-1.4299,-1.4299,-1.4299,-1.4299,-1.4299,-1.4299,-1.4299,-1.4299,-1.4299,-1.4299,-1.4299,-1.4299,-1.4299,0.0,0.0,0.0,0.0,0.0,0.0,0.0,0.0,0.0,0.0,0.0,0.0,0.0,0.0,0.0,0.0,0.0,0.0,0.0,0.0,0.0,0.0,-0.3331,-0.7059,-1.1085,-1.1504,-1.1667,-1.1667,-1.1809,-1.1945,-1.2067,-1.225,-1.2522,-1.2861,-1.2807,-1.2827,-1.2895,-1.2651,-1.2617,-1.2732,-1.2732,-1.282,-1.2942,-1.2786,-1.2732,0.0,0.0,0.0,0.0,0.0,0.0,0.0,-1.3241,-1.3302,-1.3403,-1.3403,-1.3295,-1.32,-1.3315,-1.3329,0.0,0.0,-1.3756,-1.3987,-1.4204,-1.4326,-1.4394,-1.4394,-1.4482,-1.4516,-1.4373,-1.4319,-1.4312,-1.434,-1.4441,-1.4523,-1.4557,-1.4692,-1.4733,-1.4577,-1.459,-1.4557,-1.4407,-1.4367,-1.4346,-1.4346,-1.4319,-1.4299,-1.4299,-1.4299,-1.4299,-1.4299,-1.4299,-1.4299,-1.4299,-1.4299,-1.4299,-1.4299,-1.4299,-1.4299,-1.4299,-1.4299,-1.4299,-1.4299,-1.4299,-1.4299,-1.4299,-1.4299,-1.4299,-1.4299,-1.4299,-1.4299,-1.4299,-1.4299,-1.4299,-1.4299,0.0,0.0,0.0,0.0,0.0,0.0,0.0,0.0,0.0,0.0,0.0,0.0,0.0,0.0,0.0,0.0,0.0,0.0,0.0,0.0,-0.0796,-0.2692,-0.4721,-0.7643,-1.1655,-1.1653,-1.1619,-1.1619,-1.1762,-1.1911,-1.2067,-1.2291,-1.2596,-1.3036,-1.2874,-1.2888,-1.2942,-1.2712,-1.2657,-1.2739,-1.2807,-1.2929,-1.3044,-1.2895,-1.2881,-1.2922,-1.2779,0.0,0.0,0.0,0.0,0.0,0.0,0.0,-1.3403,-1.3403,-1.3342,-1.3302,0.0,0.0,0.0,0.0,0.0,0.0,-1.4285,-1.4299,-1.4299,-1.4299,-1.4414,-1.4468,-1.4326,-1.4353,-1.438,-1.4312,-1.436,-1.4414,-1.4414,-1.4482,-1.4496,-1.4421,-1.4414,-1.438,-1.4306,-1.4299,-1.4299,-1.4299,-1.4299,-1.4299,-1.4299,-1.4299,-1.4299,-1.4299,-1.4299,-1.4299,-1.4299,-1.4299,-1.4299,-1.4299,-1.4299,-1.4299,-1.4299,-1.4299,-1.4299,-1.4299,-1.4299,-1.4299,-1.4299,-1.4299,-1.4299,-1.4299,-1.4299,-1.4299,-1.4299,-1.4299,-1.4299,-1.4299,0.0,0.0,0.0,0.0,0.0,0.0,0.0,0.0,0.0,0.0,0.0,0.0,0.0,0.0,0.0,0.0,0.0,0.0,0.0,0.0,0.0,-0.6192,-0.6322,-0.7991,-1.1581,-1.1633,-1.1619,-1.1619,-1.1789,-1.1952,-1.2108,-1.2379,-1.2664,-1.3043,-1.2935,-1.2935,-1.3029,-1.2766,-1.2718,-1.2779,-1.2908,-1.3064,-1.32,-1.3051,-1.3071,-1.3139,-1.2895,-1.2888,-1.3097,-1.3166,0.0,0.0,0.0,0.0,-1.3403,-1.3403,-1.3403,-1.3403,0.0,0.0,0.0,0.0,0.0,0.0,-1.4299,-1.4299,-1.4299,-1.4299,-1.4394,-1.4441,-1.4319,-1.4394,-1.4434,-1.4319,-1.4299,-1.4299,-1.4299,-1.4299,-1.4299,-1.4299,-1.4299,-1.4299,-1.4299,-1.4299,-1.4292,-1.4265,-1.4285,-1.4278,-1.4224,-1.4245,-1.4251,-1.4224,-1.4245,-1.4245,-1.4217,-1.4272,-1.4285,-1.4265,-1.4285,-1.4299,-1.4299,-1.4299,-1.4299,-1.4299,-1.4299,-1.4299,-1.4299,-1.4299,-1.4299,-1.4299,-1.4299,-1.4299,-1.4299,-1.4299,-1.4299,-1.4299,0.0,0.0,0.0,0.0,0.0,0.0,0.0,0.0,0.0,0.0,0.0,0.0,0.0,0.0,0.0,0.0,0.0,0.0,0.0,0.0,0.0,-0.8333,-0.8392,-0.9407,-1.1723,-1.1681,-1.1619,-1.1619,-1.1898,-1.2108,-1.2264,-1.2427,-1.2664,-1.2956,-1.282,-1.2834,-1.2942,-1.2651,-1.2684,-1.2935,-1.2949,-1.3125,-1.3356,-1.32,-1.3159,-1.3166,-1.3125,-1.3125,-1.3166,-1.3322,-1.337,0.0,0.0,0.0,-1.3403,-1.3403,-1.3403,-1.3403,0.0,0.0,0.0,0.0,0.0,0.0,0.0,0.0,-1.4299,0.0,-1.4319,-1.4326,-1.4306,-1.4319,-1.4326,-1.4306,-1.4299,-1.4299,-1.4299,-1.4299,-1.4299,-1.4299,-1.4299,-1.4299,-1.4299,-1.4299,-1.4245,-1.4116,-1.4224,-1.4183,-1.3919,-1.4027,-1.4041,-1.3905,-1.4034,-1.4034,-1.3905,-1.417,-1.4231,-1.4102,-1.4238,-1.4299,-1.4299,-1.4299,-1.4299,-1.4299,-1.4299,-1.4299,-1.4299,-1.4299,-1.4299,-1.4299,-1.4299,-1.4299,-1.4299,-1.4299,-1.4299,-1.4299,0.0,0.0,0.0,0.0,0.0,0.0,0.0,0.0,0.0,0.0,0.0,0.0,0.0,0.0,0.0,0.0,0.0,-0.0432,-0.1527,-0.3417,-0.5822,-0.8629,-0.8729,-0.9674,-1.1635,-1.1653,-1.1619,-1.1619,-1.1918,-1.2182,-1.2413,-1.2651,-1.2874,-1.3071,-1.2922,-1.2942,-1.3064,-1.2847,-1.2786,-1.2847,-1.301,-1.3112,-1.3159,-1.3166,-1.3227,-1.3288,-1.3207,-1.3227,-1.3308,-1.3376,-1.3403,-1.3403,-1.3403,0.0,0.0,0.0,-1.3281,0.0,-1.3356,0.0,0.0,0.0,0.0,0.0,0.0,0.0,-1.4299,-1.4299,-1.4299,-1.4299,-1.4299,-1.4299,-1.4299,-1.4299,-1.4299,-1.4299,-1.4299,-1.4224,-1.417,-1.417,-1.417,-1.4136,-1.4048,-1.4122,-1.4109,-1.3953,-1.4007,-1.3987,-1.3844,-1.3905,-1.3912,-1.3844,-1.3905,-1.3912,-1.3838,-1.4061,-1.4183,-1.4197,-1.4272,-1.4299,-1.4299,-1.4299,-1.4299,-1.4299,-1.4299,-1.4299,-1.4299,-1.4299,-1.4299,-1.4299,-1.4299,-1.4299,-1.4299,-1.4299,-1.4299,-1.4299,0.0,0.0,0.0,0.0,0.0,0.0,0.0,0.0,0.0,0.0,0.0,0.0,0.0,0.0,0.0,0.0,-0.0427,-0.1715,-0.4189,-0.5726,-0.7399,-0.9357,-0.943,-1.0083,-1.1548,-1.1619,-1.1619,-1.1619,-1.1918,-1.223,-1.2569,-1.2874,-1.3132,-1.3336,-1.3152,-1.3132,-1.322,-1.3037,-1.2935,-1.2915,-1.3057,-1.3078,-1.303,-1.3173,-1.3275,-1.3336,-1.3254,-1.3302,-1.3403,-1.3403,-1.3403,-1.3403,-1.3403,-1.3322,0.0,0.0,0.0,0.0,0.0,0.0,0.0,0.0,0.0,0.0,0.0,0.0,-1.4183,0.0,-1.4183,-1.4183,-1.4183,-1.4245,-1.4285,-1.4251,-1.4245,-1.4231,-1.419,-1.4082,-1.4014,-1.4014,-1.4014,-1.3966,-1.3851,-1.3946,-1.3953,-1.3797,-1.3817,-1.3804,-1.3736,-1.3763,-1.377,-1.3729,-1.377,-1.377,-1.3729,-1.3919,-1.4089,-1.4245,-1.4278,-1.4299,-1.4299,-1.4299,-1.4299,-1.4299,-1.4299,-1.4299,-1.4299,-1.4299,-1.4299,-1.4299,-1.4299,-1.4299,-1.4299,-1.4299,-1.4299,-1.4299,0.0,0.0,0.0,0.0,0.0,0.0,0.0,0.0,0.0,0.0,0.0,0.0,0.0,0.0,0.0,0.0,-0.1542,-0.415,-0.7964,-0.8427,-0.943,-1.1325,-1.1476,0.0,-1.1619,-1.1619,-1.1619,-1.1619,-1.1918,-1.2284,-1.2725,-1.3024,-1.339,-1.379,-1.3505,-1.3383,-1.337,-1.3085,-1.3119,-1.3342,-1.3078,-1.3051,-1.318,-1.3329,-1.3302,-1.32,-1.3342,-1.3397,-1.3403,-1.3403,-1.3403,-1.3403,-1.3403,-1.3397,-1.339,0.0,0.0,0.0,0.0,0.0,0.0,0.0,0.0,0.0,0.0,0.0,0.0,-1.3865,-1.3865,-1.3865,-1.3865,-1.4102,-1.4251,-1.4109,-1.4082,-1.4034,-1.3885,-1.3858,-1.3851,-1.3851,-1.3851,-1.3851,-1.3838,-1.3844,-1.379,-1.3648,-1.3763,-1.3722,-1.3437,-1.3559,-1.3573,-1.3431,-1.3566,-1.3573,-1.3424,-1.3709,-1.3933,-1.4089,-1.4231,-1.4299,-1.4299,-1.4299,-1.4299,-1.4299,-1.4299,-1.4299,-1.4299,-1.4299,-1.4299,-1.4299,-1.4299,-1.4299,-1.4299,-1.4299,-1.4299,-1.4299,0.0,0.0,0.0,0.0,0.0,0.0,0.0,0.0,0.0,0.0,0.0,0.0,0.0,0.0,0.0,0.0,-0.2856,-0.5812,-0.8422,-0.9839,-1.0887,-1.1548,-1.1619,-1.1619,-1.1619,-1.1619,-1.1619,-1.1619,-1.1816,-1.2142,-1.2589,-1.2895,-1.3275,-1.3702,-1.3593,-1.3546,-1.3532,-1.3329,-1.3247,-1.3254,-1.3247,-1.3214,-1.3193,-1.3342,-1.337,-1.3329,-1.3383,-1.3403,-1.3403,-1.3403,-1.3403,-1.3403,-1.3403,-1.3336,-1.3214,-1.3024,-1.2929,-1.2874,0.0,0.0,0.0,0.0,0.0,0.0,0.0,0.0,-1.3729,-1.3824,-1.3838,-1.3838,-1.3838,-1.3933,-1.3987,-1.3933,-1.3926,-1.3905,-1.3844,-1.3763,-1.3702,-1.3702,-1.3702,-1.3668,-1.3566,-1.3648,-1.3641,-1.3492,-1.3532,-1.3512,-1.3403,-1.3451,-1.3458,-1.3403,-1.3451,-1.3505,-1.3546,-1.3654,-1.3831,-1.4075,-1.4129,-1.4204,-1.4299,-1.4299,-1.4299,-1.4299,-1.4299,-1.4299,-1.4299,-1.4299,-1.4299,-1.4299,-1.4299,-1.4299,-1.4299,-1.4299,-1.4299,-1.4299,0.0,0.0,0.0,0.0,0.0,0.0,0.0,0.0,0.0,0.0,0.0,0.0,0.0,0.0,-0.0492,-0.1772,-0.4869,-0.7567,-0.9512,-1.0281,-1.0599,-1.0599,-1.0599,-1.0599,-1.0599,-1.1253,-1.1619,-1.1619,-1.1762,-1.206,-1.2508,-1.2766,-1.3152,-1.3627,-1.3573,-1.3634,-1.377,-1.3614,-1.3519,-1.3471,-1.3478,-1.3417,-1.3342,-1.3492,-1.3519,-1.3485,-1.3532,-1.3546,-1.3546,-1.3546,-1.3519,-1.3478,-1.3478,-1.3336,-1.3112,-1.2813,-1.2732,-1.2718,-1.2664,0.0,0.0,0.0,0.0,0.0,0.0,0.0,-1.3505,-1.3593,-1.3654,-1.3695,-1.3695,-1.3695,-1.3709,-1.3763,-1.377,-1.3736,-1.3634,-1.3532,-1.3458,-1.341,-1.3403,-1.3383,-1.3329,-1.3417,-1.3458,-1.3403,-1.3403,-1.3403,-1.3403,-1.3403,-1.3403,-1.3403,-1.3403,-1.3451,-1.3553,-1.36,-1.3749,-1.3994,-1.4048,-1.415,-1.4299,-1.4299,-1.4299,-1.4299,-1.4299,-1.4299,-1.4299,-1.4299,-1.4299,-1.4299,-1.4299,-1.4299,-1.4299,-1.4299,-1.4299,-1.4299,0.0,0.0,0.0,0.0,0.0,0.0,0.0,0.0,0.0,0.0,0.0,0.0,0.0,0.0,0.0,-0.5169,-0.7345,-0.9324,-1.1114,-0.9578,-0.8631,-0.8631,-0.8703,-0.8703,-0.8703,-1.0599,-1.1619,-1.1619,-1.1755,-1.2054,-1.2494,-1.2644,-1.3037,-1.36,-1.3464,-1.3641,-1.4041,-1.3892,-1.3919,-1.4034,-1.3743,-1.3634,-1.3648,-1.379,-1.3756,-1.3654,-1.379,-1.3838,-1.3838,-1.3838,-1.3749,-1.3634,-1.3634,-1.3417,-1.3112,-1.2827,-1.2739,-1.2698,0.0,0.0,0.0,0.0,0.0,0.0,-1.2956,0.0,-1.3159,-1.3166,-1.3288,-1.339,-1.339,-1.339,-1.3437,-1.3587,-1.3614,-1.3512,-1.3214,-1.3166,-1.3112,-1.3056,-1.2963,-1.3017,-1.3152,-1.3173,-1.3234,-1.3383,-1.3397,-1.3403,-1.3403,-1.3403,-1.3403,-1.3403,-1.3403,-1.3403,-1.3403,-1.3553,-1.3702,-1.3844,-1.3994,-1.415,-1.4299,-1.4299,-1.4299,-1.4299,-1.4299,-1.4299,-1.4299,-1.4299,-1.4299,-1.4299,-1.4299,-1.4299,-1.4299,-1.4299,-1.4299,-1.4299,0.0,0.0,0.0,0.0,0.0,0.0,0.0,0.0,0.0,0.0,0.0,0.0,0.0,0.0,-0.1009,-0.3451,-0.4181,-0.5342,-0.7217,-0.6881,-0.6604,-0.6604,-0.7977,-0.8703,-0.8703,-1.0599,-1.1619,-1.1619,-1.166,-1.185,-1.2189,-1.2338,-1.2678,-1.3152,-1.3322,-1.3471,-1.3587,-1.3539,-1.3614,-1.3743,-1.3661,-1.3688,-1.3783,-1.3824,-1.3817,-1.379,-1.3824,-1.3838,-1.3838,-1.3838,-1.3817,-1.3763,-1.3661,-1.3349,-1.3024,-1.3044,-1.2895,-1.2718,-1.2678,0.0,0.0,0.0,0.0,0.0,-1.2773,-1.2827,-1.2881,-1.2996,-1.3051,-1.3085,-1.3085,-1.3085,-1.3098,-1.3139,-1.3234,-1.3268,-1.3186,-1.3085,-1.3003,-1.2969,-1.2963,-1.2976,-1.3017,-1.3112,-1.3193,-1.3234,-1.3336,-1.3403,-1.3403,-1.3403,-1.3403,-1.3403,-1.3403,-1.3403,-1.3403,-1.3553,-1.3702,-1.3844,-1.3994,-1.415,-1.4299,-1.4299,-1.4299,-1.4299,-1.4299,-1.4299,-1.4299,-1.4299,-1.4299,-1.4299,-1.4299,-1.4299,-1.4299,-1.4299,-1.4299,-1.4299,0.0,0.0,0.0,0.0,0.0,0.0,0.0,0.0,0.0,0.0,0.0,0.0,0.0,-0.0733,-0.1698,-0.2786,-0.3663,-0.4603,-0.5739,-0.5011,-0.4939,-0.5736,-0.6894,-0.7928,-0.8775,-1.0624,-1.1681,-1.1803,-1.1742,-1.1864,-1.2155,-1.225,-1.2494,-1.2874,-1.3044,-1.3159,-1.322,-1.3281,-1.3464,-1.3729,-1.3858,-1.3994,-1.4122,-1.4122,-1.4122,-1.4122,-1.4122,-1.4082,-1.4034,-1.4034,-1.3946,-1.379,-1.3526,-1.3261,-1.3057,-1.3078,-1.2963,-1.2827,-1.2827,-1.2827,-1.2786,-1.2637,0.0,0.0,-1.263,-1.2684,-1.2752,0.0,-1.2915,-1.2963,-1.2963,-1.2963,-1.2963,-1.2963,-1.2976,-1.299,-1.299,-1.2915,-1.284,-1.2779,-1.2773,-1.2793,-1.2861,-1.2942,-1.3037,-1.3166,-1.3254,-1.3336,-1.3397,-1.3403,-1.3403,-1.3403,-1.3403,-1.3403,-1.3403,-1.3492,-1.3634,-1.3844,-1.3933,-1.4089,-1.4299,-1.4299,-1.4299,-1.4299,-1.4299,-1.4299,-1.4299,-1.4299,-1.4299,-1.4299,-1.4299,-1.4299,-1.4299,-1.4299,-1.4299,-1.4299,0.0,0.0,0.0,0.0,0.0,0.0,0.0,0.0,0.0,0.0,0.0,0.0,0.0,-0.1568,-0.2559,-0.2608,-0.4159,-0.5238,-0.5462,-0.386,-0.3785,-0.5736,-0.6036,-0.7019,-0.8872,-1.0699,-1.1796,-1.2135,-1.1925,-1.2006,-1.2291,-1.2291,-1.244,-1.2705,-1.2725,-1.28,-1.2922,-1.3119,-1.3431,-1.3817,-1.4122,-1.4346,-1.4489,-1.4489,-1.4496,-1.4509,-1.4509,-1.4421,-1.4299,-1.4299,-1.4095,-1.377,-1.337,-1.3214,-1.3152,-1.3044,-1.2996,-1.2983,-1.2742,-1.2822,-1.2862,-1.2153,-1.2193,0.0,-1.1849,-1.192,-1.2003,-1.1971,-1.2159,-1.2256,-1.2243,-1.225,-1.2262,-1.2262,-1.2311,-1.239,-1.2646,-1.2718,-1.2657,-1.2515,-1.2501,-1.2556,-1.2691,-1.2718,-1.2847,-1.3125,-1.318,-1.3254,-1.3397,-1.3403,-1.3403,-1.3403,-1.3403,-1.341,-1.3424,-1.3444,-1.3587,-1.3865,-1.3885,-1.4034,-1.4299,-1.4299,-1.4299,-1.4299,-1.4299,-1.4299,-1.4299,-1.4299,-1.4299,-1.4299,-1.4299,-1.4299,-1.4299,-1.4299,-1.4299,-1.4299,0.0,0.0,0.0,0.0,0.0,0.0,0.0,0.0,0.0,0.0,0.0,0.0,0.0,-0.0304,-0.0532,-0.0535,-0.091,-0.1798,-0.3397,-0.31,-0.3747,-0.5739,-0.7405,-0.8484,-0.8872,-1.0958,-1.2006,-1.2135,-1.2033,-1.2108,-1.2291,-1.2291,-1.2379,-1.2549,-1.2678,-1.2678,-1.2623,-1.3139,-1.3403,-1.3512,-1.381,-1.4095,-1.434,-1.434,-1.4414,-1.4509,-1.4509,-1.4421,-1.4299,-1.4299,-1.4095,-1.3824,-1.3736,-1.3464,-1.3193,-1.3288,-1.3227,-1.28,-1.0911,-1.1731,-1.2274,-0.8487,-0.887,0.0,-0.7948,-0.7548,-0.7516,-0.7529,-0.757,-0.7612,-0.7615,-0.7587,-0.7636,-0.7636,-0.8954,-1.0699,-1.2476,-1.2623,-1.2535,-1.2508,-1.2501,-1.2515,-1.2542,-1.2657,-1.2807,-1.299,-1.322,-1.337,-1.3397,-1.3403,-1.3403,-1.3403,-1.3403,-1.3458,-1.3587,-1.3695,-1.3844,-1.4027,-1.415,-1.4245,-1.4299,-1.4299,-1.4299,-1.4299,-1.4299,-1.4299,-1.4299,-1.4299,-1.4299,-1.4299,-1.4299,-1.4299,-1.4299,-1.4299,-1.4299,-1.4299,0.0,0.0,0.0,0.0,0.0,0.0,0.0,0.0,0.0,0.0,0.0,0.0,0.0,0.0,0.0,0.0,-0.0919,-0.1973,-0.2921,-0.3939,-0.5327,-0.7391,-0.843,-0.9472,-1.0637,-1.1645,-1.2169,-1.2393,-1.225,-1.225,-1.2393,-1.2393,-1.2433,-1.2508,-1.2583,-1.2576,-1.2528,-1.299,-1.322,-1.3329,-1.3777,-1.4136,-1.4414,-1.4489,-1.4563,-1.4624,-1.4624,-1.4482,-1.4299,-1.4299,-1.415,-1.3939,-1.3865,-1.3641,-1.3417,-1.3492,-1.265,-1.137,-1.0205,-0.9958,-0.9351,-0.6959,-0.7232,0.0,0.0,-0.6339,-0.6292,-0.6294,-0.6277,-0.6267,-0.6302,-0.633,-0.6277,-0.6277,-0.8019,-0.9392,-0.9531,-1.1215,-1.2501,-1.2501,-1.2501,-1.2501,-1.2501,-1.2569,-1.2712,-1.2942,-1.3166,-1.3322,-1.3397,-1.3403,-1.3403,-1.3403,-1.3403,-1.3471,-1.3627,-1.3702,-1.3851,-1.4075,-1.4068,-1.415,-1.4299,-1.4224,-1.4231,-1.4299,-1.4299,-1.4299,-1.4292,-1.4217,-1.4231,-1.4299,-1.4299,-1.4299,-1.4299,-1.4299,-1.4299,-1.4299,0.0,0.0,0.0,0.0,0.0,0.0,0.0,0.0,0.0,0.0,0.0,-0.0158,-0.0546,-0.0633,-0.0636,-0.0628,-0.2097,-0.3235,-0.3601,-0.5118,-0.7096,-0.9633,-0.9648,-1.0502,-1.2454,-1.225,-1.2325,-1.2684,-1.2447,-1.2372,-1.2461,-1.2488,-1.2501,-1.2501,-1.2535,-1.2562,-1.261,-1.2888,-1.3085,-1.3261,-1.381,-1.4204,-1.4482,-1.4611,-1.4672,-1.4692,-1.4665,-1.4523,-1.434,-1.4306,-1.4197,-1.4048,-1.3926,-1.377,-1.3543,-1.3115,-1.1574,-0.9878,-0.8957,-0.7718,-0.6453,-0.5471,-0.559,-0.5785,0.0,0.0,0.0,-0.5089,0.0,0.0,0.0,0.0,0.0,-0.5089,0.0,0.0,0.0,-0.8905,0.0,-1.1327,-1.203,-1.2347,-1.1953,-1.1901,-1.2266,-1.2942,-1.2761,-1.2824,-1.339,-1.3403,-1.3403,-1.3403,-1.3403,-1.3471,-1.3627,-1.3654,-1.379,-1.4027,-1.3933,-1.4,-1.4211,-1.4082,-1.4109,-1.4258,-1.4258,-1.4272,-1.4285,-1.4136,-1.4163,-1.4299,-1.4272,-1.4272,-1.4299,-1.4299,-1.4299,-1.4299,0.0,0.0,0.0,0.0,0.0,0.0,0.0,0.0,0.0,0.0,0.0,-0.0713,-0.2575,-0.2723,-0.2742,-0.2737,-0.2963,-0.3859,-0.554,-0.5842,-0.7759,-1.1612,-1.1868,-1.203,-1.2311,-1.2406,-1.2474,-1.2528,-1.2494,-1.242,-1.2318,-1.244,-1.2501,-1.2508,-1.2644,-1.2779,-1.2922,-1.3078,-1.3234,-1.3403,-1.3736,-1.4048,-1.4326,-1.4346,-1.4428,-1.4523,-1.4394,-1.4407,-1.4468,-1.434,-1.4197,-1.4068,-1.4048,-1.3851,-1.3206,-1.1238,-1.0388,-0.9212,-0.5198,-0.5403,-0.5769,-0.1767,-0.2279,-0.3208,-0.1159,0.0,-0.0725,-0.0709,0.0,0.0,0.0,0.0,0.0,0.0,0.0,0.0,-0.3521,-0.5474,-0.7033,-0.7033,-1.0236,-1.1798,-0.992,-0.986,-1.0775,-1.2869,-1.1451,-1.1335,-1.3307,-1.3403,-1.3403,-1.3403,-1.3403,-1.3471,-1.3627,-1.3756,-1.3831,-1.3871,-1.3987,-1.3994,-1.3892,-1.3871,-1.3953,-1.4095,-1.4095,-1.4177,-1.4285,-1.4136,-1.4163,-1.4285,-1.415,-1.4183,-1.4299,-1.4299,-1.4299,-1.4299,0.0,0.0,0.0,0.0,0.0,0.0,0.0,0.0,0.0,0.0,0.0,-0.0331,-0.1243,-0.1321,-0.1325,-0.126,-0.3606,-0.5394,-0.6097,-0.7303,-0.877,-1.05,-0.9315,-0.874,-0.8943,-0.8928,-0.8919,-0.8992,-0.8934,-0.8886,-0.8842,-0.8886,-0.9568,-1.0818,-1.087,-1.169,-1.2976,-1.3207,-1.3342,-1.3437,-1.3817,-1.4055,-1.4183,-1.436,-1.4462,-1.4516,-1.4543,-1.4482,-1.4394,-1.4414,-1.4326,-1.419,-1.4102,-1.3051,-1.1584,-1.0577,-0.8366,-0.5784,-0.386,-0.3118,-0.2367,-0.0506,-0.0756,-0.1172,-0.0249,0.0,0.0,0.0,0.0,0.0,0.0,0.0,0.0,0.0,-0.1716,0.0,0.0,0.0,-0.6332,-0.6332,0.0,-0.8594,-0.7661,-0.7616,-0.8151,-0.9123,-0.85,-0.8435,-0.9443,-0.9511,-0.9545,-0.9545,-0.9545,-1.0184,-1.1667,-1.1713,-1.1777,-1.1933,-1.1915,-1.1921,-1.1847,-1.1771,-1.2588,-1.3939,-1.3939,-1.3275,-1.2178,-1.335,-1.233,-1.0247,-1.144,-1.2823,-1.417,-1.417,-1.417,-1.4183,0.0,0.0,0.0,0.0,0.0,0.0,0.0,0.0,0.0,0.0,0.0,-0.0253,-0.076,-0.085,-0.0856,-0.0864,-0.3733,-0.5507,-0.5437,-0.6814,-0.7918,-0.8548,-0.6975,-0.6198,-0.6445,-0.6334,-0.6377,-0.6411,-0.636,-0.6264,-0.6206,-0.6264,-0.7185,-0.8753,-0.9397,-1.0672,-1.2274,-1.3141,-1.3498,-1.3498,-1.3905,-1.4095,-1.4156,-1.4373,-1.4455,-1.4468,-1.4577,-1.4482,-1.4224,-1.3694,-1.3394,-1.3205,-1.239,-1.0954,-0.9362,-0.8663,-0.603,-0.3203,-0.2606,-0.1264,0.0,0.0,0.0,0.0,0.0,0.0,0.0,0.0,0.0,0.0,0.0,0.0,0.0,0.0,0.0,-0.1731,0.0,-0.2664,0.0,0.0,0.0,0.0,-0.6233,-0.5748,-0.5685,-0.6466,-0.5944,-0.5919,-0.6666,-0.6725,-0.668,-0.67,-0.67,-0.7566,-0.9324,-0.9347,-0.9385,-0.9427,-0.9385,-0.9385,-0.9427,-0.9357,-1.0228,-1.188,-1.188,-1.1036,-0.9678,-1.1198,-0.9933,-0.7256,-0.8692,-1.0454,-1.2119,-1.219,-1.2568,-1.3029,0.0,0.0,0.0,0.0,0.0,0.0,0.0,0.0,0.0,0.0,0.0,-0.0742,-0.2806,-0.3043,-0.303,-0.3031,-0.3136,-0.3179,-0.3208,-0.3278,-0.421,-0.6307,-0.6307,-0.6277,-0.6294,-0.6277,-0.6321,-0.6339,-0.6336,-0.6213,-0.6042,-0.621,-0.637,-0.6496,-0.8961,-1.0092,-1.0299,-1.2756,-1.3749,-1.3648,-1.3953,-1.4163,-1.4292,-1.4306,-1.4306,-1.4306,-1.4312,-1.4306,-1.3938,-1.1616,-1.0806,-1.0446,-0.8037,-0.718,-0.6579,-0.4429,-0.3612,-0.2895,-0.0675,-0.0085,0.0,0.0,0.0,0.0,0.0,0.0,0.0,0.0,0.0,0.0,0.0,0.0,0.0,0.0,-0.008,0.0,0.0,0.0,0.0,0.0,0.0,0.0,0.0,-0.4406,-0.4159,-0.6304,-0.4568,-0.4346,-0.6581,-0.6673,-0.6708,-0.67,-0.67,-0.6703,-0.6787,-0.694,-0.6944,-0.6794,-0.6944,-0.694,-0.6794,-0.6791,-0.6913,-0.7152,-0.7152,-0.7195,-0.7173,-0.7181,-0.711,-0.708,-0.693,-0.6919,-0.7174,-0.724,-0.8703,-1.0297,0.0,0.0,0.0,0.0,0.0,0.0,0.0,0.0,0.0,0.0,0.0,-0.0266,-0.0933,-0.1032,-0.1039,-0.1056,-0.2447,-0.3215,-0.3137,-0.3223,-0.3576,-0.4195,-0.2853,-0.2172,-0.2148,-0.2156,-0.2136,-0.2167,-0.215,-0.2075,-0.2017,-0.2074,-0.2976,-0.4454,-0.5316,-0.7342,0.0,0.0,0.0,-1.3654,-1.3953,-1.4163,-1.4299,-1.4299,-1.4299,-1.4122,-1.2503,-1.1882,-1.1522,-0.9108,-0.8308,-0.8118,-0.7265,-0.591,-0.4569,-0.3738,-0.2325,-0.0942,-0.0172,0.0,0.0,0.0,0.0,0.0,0.0,0.0,0.0,0.0,0.0,0.0,0.0,0.0,0.0,0.0,0.0,0.0,0.0,0.0,0.0,0.0,0.0,0.0,0.0,0.0,0.0,-0.2141,-0.1503,-0.1435,-0.2202,-0.2304,-0.2242,-0.2267,-0.2268,-0.3023,-0.4528,-0.4544,-0.4544,-0.4528,-0.4544,-0.4544,-0.4528,-0.4444,-0.5292,-0.6738,-0.6738,-0.5993,-0.4748,-0.6159,-0.5069,-0.2546,-0.3956,-0.4476,-0.4781,-0.6407,-0.7479,-0.8023,0.0,0.0,0.0,0.0,0.0,0.0,0.0,0.0,0.0,0.0,0.0,0.0,0.0,0.0,0.0,0.0,-0.1374,-0.2104,-0.2021,-0.2162,-0.2117,-0.1978,-0.0688,0.0,0.0,0.0,0.0,0.0,0.0,0.0,0.0,0.0,-0.0816,-0.2258,-0.3114,-0.5454,-0.893,-0.9212,-1.0478,0.0,-1.183,-1.1627,-1.1699,-1.1699,-1.2237,-1.2686,-1.0268,-0.938,-0.9019,-0.67,-0.5811,-0.5714,-0.4702,-0.3456,-0.2301,-0.2188,-0.1127,0.0,0.0,0.0,0.0,0.0,0.0,0.0,0.0,0.0,0.0,0.0,0.0,0.0,0.0,0.0,0.0,0.0,0.0,0.0,0.0,0.0,0.0,0.0,0.0,0.0,0.0,0.0,0.0,0.0,0.0,0.0,0.0,0.0,0.0,0.0,0.0,-0.0673,-0.2184,-0.2184,-0.2184,-0.2184,-0.2184,-0.2184,-0.2184,-0.2184,-0.2945,-0.4303,-0.4303,-0.3546,-0.2282,-0.373,-0.2628,-0.017,-0.1529,-0.2135,-0.2407,-0.3889,-0.444,-0.4477,0.0,0.0,0.0,0.0,0.0,0.0,0.0,0.0,0.0,0.0,0.0,0.0,0.0,0.0,0.0,0.0,0.0,0.0,0.0,0.0,0.0,0.0,0.0,0.0,0.0,0.0,0.0,0.0,0.0,0.0,0.0,0.0,0.0,-0.0086,-0.2391,-0.4549,-0.6536,-0.6812,-0.8201,-0.9965,-0.7883,-0.7057,-0.7054,-0.6968,-0.8389,-1.0076,-0.777,-0.6968,-0.6525,-0.4206,-0.3401,-0.3045,-0.0718,0.0,0.0,0.0,0.0,0.0,0.0,0.0,0.0,0.0,0.0,0.0,0.0,0.0,0.0,0.0,0.0,0.0,0.0,0.0,0.0,0.0,0.0,0.0,0.0,0.0,0.0,0.0,0.0,0.0,0.0,0.0,0.0,0.0,0.0,0.0,0.0,0.0,0.0,0.0,0.0,0.0,0.0,0.0,0.0,0.0,0.0,0.0,0.0,0.0,0.0,0.0,0.0,0.0,0.0,0.0,0.0,0.0,0.0,0.0,0.0,0.0,0.0,0.0,0.0,0.0,0.0,0.0,0.0,0.0,0.0,0.0,0.0,0.0,0.0,0.0,0.0,0.0,0.0,0.0,0.0,0.0,0.0,0.0,0.0,0.0,0.0,0.0,0.0,0.0,0.0,0.0,0.0,0.0,0.0,0.0,0.0,0.0,-0.0687,-0.2135,-0.4187,-0.4437,-0.5811,-0.7887,-0.7286,-0.7112,-0.6895,-0.5172,-0.4872,-0.5337,-0.4713,-0.4472,-0.4116,-0.1703,-0.0897,-0.0807,-0.0179,0.0,0.0,0.0,0.0,0.0,0.0,0.0,0.0,0.0,0.0,0.0,0.0,0.0,0.0,0.0,0.0,0.0,0.0,0.0,0.0,0.0,0.0,0.0,0.0,0.0,0.0,0.0,0.0,0.0,0.0,0.0,0.0,0.0,0.0,0.0,0.0,0.0,0.0,0.0,0.0,0.0,0.0,0.0,0.0,0.0,0.0,0.0,0.0,0.0,0.0,0.0,0.0,0.0,0.0,0.0,0.0,0.0,0.0,0.0,0.0,0.0,0.0,0.0,0.0,0.0,0.0,0.0,0.0,0.0,0.0,0.0,0.0,0.0,0.0,0.0,0.0,0.0,0.0,0.0,0.0,0.0,0.0,0.0,0.0,0.0,0.0,0.0,0.0,0.0,0.0,0.0,0.0,0.0,0.0,0.0,0.0,0.0,0.0,-0.1287,-0.3363,-0.3459,-0.3694,-0.3991,-0.3996,-0.3985,0.0,-0.2485,-0.2026,-0.1999,-0.2024,-0.2032,-0.1857,-0.0445,0.0,0.0,0.0,0.0,0.0,0.0,0.0,0.0,0.0,0.0,0.0,0.0,0.0,0.0,0.0,0.0,0.0,0.0,0.0,0.0,0.0,0.0,0.0,0.0,0.0,0.0,0.0,0.0,0.0,0.0,0.0,0.0,0.0,0.0,0.0,0.0,0.0,0.0,0.0,0.0,0.0,0.0,0.0,0.0,0.0,0.0,0.0,0.0,0.0,0.0,0.0,0.0,0.0,0.0,0.0,0.0,0.0,0.0,0.0,0.0,0.0,0.0,0.0,0.0,0.0,0.0,0.0,0.0,0.0,0.0,0.0,0.0,0.0,0.0,0.0,0.0,0.0,0.0,0.0,0.0,0.0,0.0,0.0,0.0,0.0,0.0,0.0,0.0,0.0,0.0,0.0,0.0,0.0,0.0,0.0,0.0,0.0,0.0,0.0,0.0,0.0,0.0,0.0,-0.2924,-0.1842,0.0,0.0,0.0,0.0,0.0,0.0,0.0,0.0,0.0,0.0,0.0,0.0,0.0,0.0,0.0,0.0,0.0,0.0,0.0,0.0,0.0,0.0,0.0,0.0,0.0,0.0,0.0,0.0,0.0,0.0,0.0,0.0,0.0,0.0,0.0,0.0,0.0,0.0,0.0,0.0,0.0,0.0,0.0,0.0,0.0,0.0,0.0,0.0,0.0,0.0,0.0,0.0,0.0,0.0,0.0,0.0,0.0,0.0,0.0,0.0,0.0,0.0,0.0,0.0,0.0,0.0,0.0,0.0,0.0,0.0,0.0,0.0,0.0,0.0,0.0,0.0,0.0,0.0,0.0,0.0,0.0,0.0,0.0,0.0,0.0,0.0,0.0,0.0,0.0,0.0,0.0,0.0,0.0,0.0,0.0,0.0,0.0,0.0,0.0,0.0,0.0,0.0,0.0,0.0,0.0,0.0,0.0,0.0,0.0,0.0,0.0,0.0,0.0,-0.0605,-0.0607,-0.0348,0.0,0.0,0.0,0.0,0.0,0.0,0.0,0.0,0.0,0.0,0.0,0.0,0.0,0.0,0.0,0.0,0.0,0.0,0.0,0.0,0.0,0.0,0.0,0.0,0.0,0.0,0.0,0.0,0.0,0.0,0.0,0.0,0.0,0.0,0.0,0.0,0.0,0.0,0.0,0.0,0.0,0.0,0.0,0.0,0.0,0.0,0.0,0.0,0.0,0.0,0.0,0.0,0.0,0.0,0.0,0.0,0.0,0.0,0.0,0.0,0.0,0.0,0.0,0.0,0.0,0.0,0.0,0.0,0.0,0.0,0.0,0.0,0.0,0.0,0.0,0.0,0.0,0.0,0.0,0.0,0.0,0.0,0.0,0.0,0.0,0.0,0.0,0.0,0.0,0.0,0.0,0.0,0.0,0.0,0.0,0.0,0.0,0.0,0.0,0.0,0.0,0.0,0.0,0.0,0.0,0.0,0.0,0.0,0.0,0.0,0.0,0.0,0.0,0.0,0.0,0.0,0.0,0.0,0.0,0.0,0.0,0.0,0.0,0.0,0.0,0.0,0.0,0.0,0.0,0.0,0.0,0.0,0.0,0.0,0.0,0.0,0.0,0.0,0.0,0.0,0.0,0.0,0.0,0.0,0.0,0.0,0.0,0.0,0.0,0.0,0.0,0.0,0.0,0.0,0.0,0.0,0.0,0.0,0.0,0.0,0.0,0.0,0.0,0.0,0.0,0.0,0.0,0.0,0.0,0.0,0.0,0.0,0.0,0.0,0.0,0.0,0.0,0.0,0.0,0.0,0.0,0.0,0.0,0.0,0.0,0.0,0.0,0.0,0.0,0.0,0.0,0.0,0.0,0.0,0.0,0.0,0.0,0.0,0.0,0.0,0.0,0.0,0.0,0.0,0.0,0.0,0.0,0.0,0.0,0.0,0.0,0.0,0.0,0.0,0.0,0.0,0.0,0.0,0.0,0.0,0.0,0.0,0.0,0.0,0.0,0.0,0.0,0.0,0.0,0.0,0.0,0.0,0.0,0.0,0.0,0.0,0.0,0.0,0.0,0.0,0.0,0.0,0.0,0.0,0.0,0.0,0.0,0.0,0.0,0.0,0.0,0.0,0.0,0.0,0.0,0.0,0.0,0.0,0.0,0.0,0.0,0.0,0.0,0.0,0.0,0.0,0.0,0.0,0.0,0.0,0.0,0.0,0.0,0.0,0.0,0.0,0.0,0.0,0.0,0.0,0.0,0.0,0.0,0.0,0.0,0.0,0.0,0.0,0.0,0.0,0.0,0.0,0.0,0.0,0.0,0.0,0.0,0.0,0.0,0.0,0.0,0.0,0.0,0.0,0.0,0.0,0.0,0.0,0.0,0.0,0.0,0.0,0.0,0.0,0.0,0.0,0.0,0.0,0.0,0.0,0.0,0.0,0.0,0.0,0.0,0.0,0.0,0.0,0.0,0.0,0.0,0.0,0.0,0.0,0.0,0.0,0.0,0.0,0.0,0.0,0.0,0.0,0.0,0.0,0.0,0.0,0.0,0.0,0.0,0.0,0.0,0.0,0.0,0.0,0.0,0.0,0.0,0.0,0.0,0.0,0.0,0.0,0.0,0.0,0.0,0.0,0.0,0.0,0.0,0.0,0.0,0.0,0.0,0.0,0.0,0.0,0.0,0.0,0.0,0.0,0.0,0.0,0.0,0.0,0.0,0.0,0.0,0.0,0.0,0.0,0.0,0.0,0.0,0.0,0.0,0.0,0.0,0.0,0.0,0.0,0.0,0.0,0.0,0.0,0.0,0.0,0.0,0.0,0.0,0.0,0.0,0.0,0.0,0.0,0.0,0.0,0.0,0.0,0.0,0.0,0.0,0.0,0.0,0.0,0.0,0.0,0.0,0.0,0.0,0.0,0.0,0.0,0.0,0.0,0.0,0.0,0.0,0.0,0.0,0.0,0.0,0.0,0.0,0.0,0.0,0.0,0.0,0.0,0.0,0.0,0.0,0.0,0.0,0.0,0.0,0.0,0.0,0.0,0.0,0.0,0.0,0.0,0.0,0.0,0.0,0.0,0.0,0.0,0.0,0.0,0.0,0.0,0.0,0.0,0.0,0.0,0.0,0.0,0.0,0.0,0.0,0.0,0.0,0.0,0.0,0.0,0.0,0.0,0.0,0.0,0.0,0.0,0.0,0.0,0.0,0.0,0.0,0.0,0.0,0.0,0.0,0.0,0.0,0.0,0.0,0.0,0.0,0.0,0.0,0.0,0.0,0.0,0.0,0.0,0.0,0.0,0.0,0.0,0.0,0.0,0.0,0.0,0.0,0.0,0.0,0.0,0.0,0.0,0.0,0.0,0.0,0.0,0.0,0.0,0.0,0.0,0.0,0.0,0.0,0.0,0.0,0.0,0.0,0.0,0.0,0.0,0.0,0.0,0.0,0.0,0.0,0.0,0.0,0.0,0.0,0.0,0.0,0.0,0.0,0.0,0.0,0.0,0.0,0.0,0.0,0.0,0.0,0.0,0.0,0.0,0.0,0.0,0.0,0.0,0.0,0.0,0.0,0.0,0.0,0.0,0.0,0.0,0.0,0.0,0.0,0.0,0.0,0.0,0.0,0.0,0.0,0.0,0.0,0.0,0.0,0.0,0.0,0.0,0.0,0.0,0.0,0.0,0.0,0.0,0.0,0.0,0.0,0.0,0.0,0.0,0.0,0.0,0.0,0.0,0.0,0.0,0.0,0.0,0.0,0.0,0.0,0.0,0.0,0.0,0.0,0.0,0.0,0.0,0.0,0.0,0.0,0.0,0.0,0.0,0.0,0.0,0.0,0.0,0.0,0.0,0.0,0.0,0.0,0.0,0.0,0.0,0.0,0.0,0.0,0.0,0.0,0.0,0.0,0.0,0.0,0.0,0.0,0.0,0.0,0.0,0.0,0.0,0.0,0.0,0.0,0.0,0.0,0.0,0.0,0.0,0.0,0.0,0.0,0.0,0.0,0.0,0.0,0.0,0.0,0.0,0.0,0.0,0.0,0.0,0.0,0.0,0.0,0.0,0.0,0.0,0.0,0.0,0.0,0.0,0.0,0.0,0.0,0.0,0.0,0.0,0.0,0.0,0.0,0.0,0.0,0.0,0.0,0.0,0.0,0.0,0.0,0.0,0.0,0.0,0.0,0.0,0.0,0.0,0.0,0.0,0.0,0.0,0.0,0.0,0.0,0.0,0.0,0.0,0.0,0.0,0.0,0.0,0.0,0.0,0.0,0.0,0.0,0.0,0.0,0.0,0.0,0.0,0.0,0.0,0.0,0.0,0.0,0.0,0.0,0.0,0.0,0.0,0.0,0.0,0.0,0.0,0.0,0.0,0.0,0.0,0.0,0.0,0.0,0.0,0.0,0.0,0.0,0.0,0.0,0.0,0.0,0.0,0.0,0.0,0.0,0.0,0.0,0.0,0.0,0.0,0.0,0.0,0.0,0.0,0.0,0.0,0.0,0.0,0.0,0.0,0.0,0.0,0.0,0.0,0.0,0.0,0.0,0.0,0.0,0.0,0.0,0.0,0.0,0.0,0.0,0.0,0.0,0.0,0.0,0.0,0.0,0.0,0.0,0.0,0.0,0.0,0.0,0.0,0.0,0.0,0.0,0.0,0.0,0.0,0.0,0.0,0.0,0.0,0.0,0.0,0.0,0.0,0.0,0.0,0.0,0.0,0.0,0.0,0.0,0.0,0.0,0.0,0.0,0.0,0.0,0.0,0.0,0.0,0.0,0.0,0.0,0.0,0.0,0.0,0.0,0.0,0.0,0.0,0.0,0.0,0.0,0.0,0.0,0.0,0.0,0.0,0.0,0.0,0.0,0.0,0.0,0.0,0.0,0.0,0.0,0.0,0.0,0.0,0.0,0.0,0.0,0.0,0.0,0.0,0.0,0.0,0.0,0.0,0.0,0.0,0.0,0.0,0.0,0.0,0.0,0.0,0.0,0.0,0.0,0.0,0.0,0.0,0.0,0.0,0.0,0.0,0.0,0.0,0.0,0.0,0.0,0.0,0.0,0.0,0.0,0.0,0.0,0.0,0.0,0.0,0.0,0.0,0.0,0.0,0.0,0.0,0.0,0.0,0.0,0.0,0.0,0.0,0.0,0.0,0.0,0.0,0.0,0.0,0.0,0.0,0.0,0.0,0.0,0.0,0.0,0.0,0.0,0.0,0.0,0.0,0.0,0.0,0.0,0.0,0.0,0.0,0.0,0.0,0.0,0.0,0.0,0.0,0.0,0.0,0.0,0.0,0.0,0.0,0.0,0.0,0.0,0.0,0.0,0.0,0.0,0.0,0.0,0.0,0.0,0.0,0.0,0.0,0.0,0.0,0.0,0.0,0.0,0.0,0.0,0.0,0.0,0.0,0.0,0.0,0.0,0.0,0.0,0.0,0.0,0.0,0.0,0.0,0.0,0.0,0.0,0.0,0.0,0.0,0.0,0.0,0.0,0.0,0.0,0.0,0.0,0.0,0.0,0.0,0.0,0.0,0.0,0.0,0.0,0.0,0.0,0.0,0.0,0.0,0.0,0.0,0.0,0.0,0.0,0.0,0.0,0.0,0.0,0.0,0.0,0.0,0.0,0.0,0.0,0.0,0.0,0.0,0.0,0.0,0.0,0.0,0.0,0.0,0.0,0.0,0.0,0.0,0.0,0.0,0.0,0.0,0.0,0.0,0.0,0.0,0.0,0.0,0.0,0.0,0.0,0.0,0.0,0.0,0.0,0.0,0.0,0.0,0.0,0.0,0.0,0.0,0.0,0.0,0.0,0.0,0.0,0.0,0.0,0.0,0.0,0.0,0.0,0.0,0.0,0.0,0.0,0.0,0.0,0.0,0.0,0.0,0.0,0.0,0.0,0.0,0.0,0.0,0.0,0.0,0.0,0.0,0.0,0.0,0.0,0.0,0.0,0.0,0.0,0.0,0.0,0.0,0.0,0.0,0.0,0.0,0.0,0.0,0.0,0.0,0.0,0.0,0.0,0.0,0.0,0.0,0.0,0.0,0.0,0.0,0.0,0.0,0.0,0.0,0.0,0.0,0.0,0.0,0.0,0.0,0.0,0.0,0.0,0.0,0.0,0.0,0.0,0.0,0.0,0.0,0.0,0.0,0.0,0.0,0.0,0.0,0.0,0.0,0.0,0.0,0.0,0.0,0.0,0.0,0.0,0.0,0.0,0.0,0.0,0.0,0.0,0.0,0.0,0.0,0.0,0.0,0.0,0.0,0.0,0.0,0.0,0.0,0.0,0.0,0.0,0.0,0.0,0.0,0.0,0.0,0.0,0.0,0.0,0.0,0.0,0.0,0.0,0.0,0.0,0.0,0.0,0.0,0.0,0.0,0.0,0.0,0.0,0.0,0.0,0.0,0.0,0.0,0.0,0.0,0.0,0.0,0.0,0.0,0.0,0.0,0.0,0.0,0.0,0.0,0.0,0.0,0.0,0.0,0.0,0.0,0.0,0.0,0.0,0.0,0.0,0.0,0.0,0.0,0.0,0.0,0.0,0.0,0.0,0.0,0.0,0.0,0.0,0.0,0.0,0.0,0.0,0.0,0.0,0.0,0.0,0.0,0.0,0.0,0.0,0.0,0.0,0.0,0.0,0.0,0.0,0.0,0.0,0.0,0.0,0.0,0.0,0.0,0.0,0.0,0.0,0.0,0.0,0.0,0.0,0.0,0.0,0.0,0.0,0.0,0.0,0.0,0.0,0.0,0.0,0.0,0.0,0.0,0.0,0.0,0.0,0.0,0.0,0.0,0.0,0.0,0.0,0.0,0.0,0.0,0.0,0.0,0.0,0.0,0.0,0.0,0.0,0.0,0.0,0.0,0.0,0.0,0.0,0.0,0.0,0.0,0.0,0.0,0.0,0.0,0.0,0.0,0.0,0.0,0.0,0.0,0.0,0.0,0.0,0.0,0.0,0.0,0.0,0.0,0.0,0.0,0.0,0.0,0.0,0.0,0.0,0.0,0.0,0.0,0.0,0.0,0.0,0.0,0.0,0.0,0.0,0.0,0.0,0.0,0.0,0.0,0.0,0.0,0.0,0.0,0.0,0.0,0.0,0.0,0.0,0.0,0.0,0.0,0.0,0.0,0.0,0.0,0.0,0.0,0.0,0.0,0.0,0.0,0.0,0.0,0.0,0.0,0.0,0.0,0.0,0.0,0.0,0.0,0.0,0.0,0.0,0.0,0.0,0.0,0.0,0.0,0.0,0.0,0.0,0.0,0.0,0.0,0.0,0.0,0.0,0.0,0.0,0.0,0.0,0.0,0.0,0.0,0.0,0.0,0.0,0.0,0.0,0.0,0.0,0.0,0.0,0.0,0.0,0.0,0.0,0.0,0.0,0.0,0.0,0.0,0.0,0.0,0.0,0.0,0.0,0.0,0.0,0.0,0.0,0.0,0.0,0.0,0.0,0.0,0.0,0.0,0.0,0.0,0.0,0.0,0.0,0.0,0.0,0.0,0.0,0.0,0.0,0.0,0.0,0.0,0.0,0.0,0.0,0.0,0.0,0.0,0.0,0.0,0.0,0.0,0.0,0.0,0.0,0.0,0.0,0.0,0.0,0.0,0.0,0.0,0.0,0.0,0.0,0.0,0.0,0.0,0.0,0.0,0.0,0.0,0.0,0.0,0.0,0.0,0.0,0.0,0.0,0.0,0.0,0.0,0.0,0.0,0.0,0.0,0.0,0.0,0.0,0.0,0.0,0.0,0.0,0.0,0.0,0.0,0.0,0.0,0.0,0.0,0.0,0.0,0.0,0.0,0.0,0.0,0.0,0.0,0.0,0.0,0.0,0.0,0.0,0.0,0.0,0.0,0.0,0.0,0.0,0.0,0.0,0.0,0.0,0.0,0.0,0.0,0.0,0.0,0.0,0.0,0.0,0.0,0.0,0.0,0.0,0.0,0.0,0.0,0.0,0.0,0.0,0.0,0.0,0.0,0.0,0.0,0.0,0.0,0.0,0.0,0.0,0.0,0.0,0.0,0.0,0.0,0.0,0.0,0.0,0.0,0.0,0.0,0.0,0.0,0.0,0.0,0.0,0.0,0.0,0.0,0.0,0.0,0.0,0.0,0.0,0.0,0.0,0.0,0.0,0.0,0.0,0.0,0.0,0.0,0.0,0.0,0.0,0.0,0.0,0.0,0.0,0.0,0.0,0.0,0.0,0.0,0.0,0.0,0.0,0.0,0.0,0.0,0.0,0.0,0.0,0.0,0.0,0.0,0.0,0.0,0.0,0.0,0.0,0.0,0.0,0.0,0.0,0.0,0.0,0.0,0.0,0.0,0.0,0.0,0.0,0.0,0.0,0.0,0.0,0.0,0.0,0.0,0.0,0.0,0.0,0.0,0.0,0.0,0.0,0.0,0.0,0.0,0.0,0.0,0.0,0.0,0.0,0.0,0.0,0.0,0.0,0.0,0.0,0.0,0.0,0.0,0.0,0.0,0.0,0.0,0.0,0.0,0.0,0.0,0.0,0.0,0.0,0.0,0.0,0.0,0.0,0.0,0.0,0.0,0.0,0.0,0.0,0.0,0.0,0.0,0.0,0.0,0.0,0.0,0.0,0.0,0.0,0.0,0.0,0.0,0.0,0.0,0.0,0.0,0.0,0.0,0.0,0.0,0.0,0.0,0.0,0.0,0.0,0.0,0.0,0.0,0.0,0.0,0.0,0.0,0.0,0.0,0.0,0.0,0.0,0.0,0.0,0.0,0.0,0.0,0.0,0.0,0.0,0.0,0.0,0.0,0.0,0.0,0.0,0.0,0.0,0.0,0.0,0.0,0.0,0.0,0.0,0.0,0.0,0.0,0.0,0.0,0.0,0.0,0.0,0.0,0.0,0.0,0.0,0.0,0.0,0.0,0.0,0.0,0.0,0.0,0.0,0.0,0.0,0.0,0.0,0.0,0.0,0.0,0.0,0.0,0.0,0.0,0.0,0.0,0.0,0.0,0.0,0.0,0.0,0.0,0.0,0.0,0.0,0.0,0.0,0.0,0.0,0.0,0.0,0.0,0.0,0.0,0.0,0.0,0.0,0.0,0.0,0.0,0.0,0.0,0.0,0.0,0.0,0.0,0.0,0.0,0.0,0.0,0.0,0.0,0.0,0.0,0.0,0.0,0.0,0.0,0.0,0.0,0.0,0.0,0.0,0.0,0.0,0.0,0.0,0.0,0.0,0.0,0.0,0.0,0.0,0.0,0.0,0.0,0.0,0.0,0.0,0.0,0.0,0.0,0.0,0.0,0.0,0.0,0.0,0.0,0.0,0.0,0.0,0.0,0.0,0.0,0.0,0.0,0.0,0.0,0.0,0.0,0.0,0.0,0.0,0.0,0.0,0.0,0.0,0.0,0.0,0.0,0.0,0.0,0.0,0.0,0.0,0.0,0.0,0.0,0.0,0.0,0.0,0.0,0.0,0.0,0.0,0.0,0.0,0.0,0.0,0.0,0.0,0.0,0.0,0.0,0.0,0.0,0.0,0.0,0.0,0.0,0.0,0.0,0.0,0.0,0.0,0.0,0.0,0.0,0.0,0.0,0.0,0.0,0.0,0.0,0.0,0.0,0.0,0.0,0.0,0.0,0.0,0.0,0.0,0.0,0.0,0.0,0.0,0.0,0.0,0.0,0.0,0.0,0.0,0.0,0.0,0.0,0.0,0.0,0.0,0.0,0.0,0.0,0.0,0.0,0.0,0.0,0.0,0.0,0.0,0.0,0.0,0.0,0.0,0.0,0.0,0.0,0.0,0.0,0.0,0.0,0.0,0.0,0.0,0.0,0.0,0.0,0.0,0.0,0.0,0.0,0.0,0.0,0.0,0.0,0.0,0.0,0.0,0.0,0.0,0.0,0.0,0.0,0.0,0.0,0.0,0.0,0.0,0.0,0.0,0.0,0.0,0.0,0.0,0.0,0.0,0.0,0.0,0.0,0.0,0.0,0.0,0.0,0.0,0.0,0.0,0.0,0.0,0.0,0.0,0.0,0.0,0.0,0.0,0.0,0.0,0.0,0.0,0.0,0.0,0.0,0.0,0.0,0.0,0.0,0.0,0.0,0.0,0.0,0.0,0.0,0.0,0.0,0.0,0.0,0.0,0.0,0.0,0.0,0.0,0.0,0.0,0.0,0.0,0.0,0.0,0.0,0.0,0.0,0.0,0.0,0.0,0.0,0.0,0.0,0.0,0.0,0.0,0.0,0.0,0.0,0.0,0.0,0.0,0.0,0.0,0.0,0.0,0.0,0.0,0.0,0.0,0.0,0.0,0.0,0.0,0.0,0.0,0.0,0.0,0.0,0.0,0.0,0.0,0.0,0.0,0.0,0.0,0.0,0.0,0.0,0.0,0.0,0.0,0.0,0.0,0.0,0.0,0.0,0.0,0.0,0.0,0.0,0.0,0.0,0.0,0.0,0.0,0.0,0.0,0.0,0.0,0.0,0.0,0.0,0.0,0.0,0.0,0.0,0.0,0.0,0.0,0.0,0.0,0.0,0.0,0.0,0.0,0.0,0.0,0.0,0.0,0.0,0.0,0.0,0.0,0.0,0.0,0.0,0.0,0.0,0.0,0.0,0.0,0.0,0.0,0.0,0.0,0.0,0.0,0.0,0.0,0.0,0.0,0.0,0.0,0.0,0.0,0.0,0.0,0.0,0.0,0.0,0.0,0.0,0.0,0.0,0.0,0.0,0.0,0.0,0.0,0.0,0.0,0.0,0.0,0.0,0.0,0.0,0.0,0.0,0.0,0.0,0.0,0.0,0.0,0.0,0.0,0.0,0.0,0.0,0.0,0.0,0.0,0.0,0.0,0.0,0.0,0.0,0.0,0.0,0.0,0.0,0.0,0.0,0.0,0.0,0.0,0.0,0.0,0.0,0.0,0.0,0.0,0.0,0.0,0.0,0.0,0.0,0.0,0.0,0.0,0.0,0.0,0.0,0.0,0.0,0.0,0.0,0.0,0.0,0.0,0.0,0.0,0.0,0.0,0.0,0.0,0.0,0.0,0.0,0.0,0.0,0.0,0.0,0.0,0.0,0.0,0.0,0.0,0.0,0.0,0.0,0.0,0.0,0.0,0.0,0.0,0.0,0.0,0.0,0.0,0.0,0.0,0.0,0.0,0.0,0.0,0.0,0.0,0.0,0.0,0.0,0.0,0.0,0.0,0.0,0.0,0.0,0.0,0.0,0.0,0.0,0.0,0.0,0.0,0.0,0.0,0.0,0.0,0.0,0.0,0.0,0.0,0.0,0.0,0.0,0.0,0.0,0.0,0.0,0.0,0.0,0.0,0.0,0.0,0.0,0.0,0.0,0.0,0.0,0.0,0.0,0.0,0.0,0.0,0.0,0.0,0.0,0.0,0.0,0.0,0.0,0.0,0.0,0.0,0.0,0.0,0.0,0.0,0.0,0.0,0.0,0.0,0.0,0.0,0.0,0.0,0.0,0.0,0.0,0.0,0.0,0.0,0.0,0.0,0.0,0.0,0.0,0.0,0.0,0.0,0.0,0.0,0.0,0.0,0.0,0.0,0.0,0.0,0.0,0.0,0.0,0.0,0.0,0.0,0.0,0.0,0.0,0.0,0.0,0.0,0.0,0.0,0.0,0.0,0.0,0.0,0.0,0.0,0.0,0.0,0.0,0.0,0.0,0.0,0.0,0.0,0.0,0.0,0.0,0.0,0.0,0.0,0.0,0.0,0.0,0.0,0.0,0.0,0.0,0.0,0.0,0.0,0.0,0.0,0.0,0.0,0.0,0.0,0.0,0.0,0.0,0.0,0.0,0.0,0.0,0.0,0.0,0.0,0.0,0.0,0.0,0.0,0.0,0.0,0.0,0.0,0.0,0.0,0.0,0.0,0.0,0.0,0.0,0.0,0.0,0.0,0.0,0.0,0.0,0.0,0.0,0.0,0.0,0.0,0.0,0.0,0.0,0.0,0.0,0.0,0.0,0.0,0.0,0.0,0.0,0.0,0.0,0.0,0.0,0.0,0.0,0.0,0.0,0.0,0.0,0.0,0.0,0.0,0.0,0.0,0.0,0.0,0.0,0.0,0.0,0.0,0.0,0.0,0.0,0.0,0.0,0.0,0.0,0.0,0.0,0.0,0.0,0.0,0.0,0.0,0.0,0.0,0.0,0.0,0.0,0.0,0.0,0.0,0.0,0.0,0.0,0.0,0.0,0.0,0.0,0.0,0.0,0.0,0.0,0.0,0.0,0.0,0.0,0.0,0.0,0.0,0.0,0.0,0.0,0.0,0.0,0.0,0.0,0.0,0.0,0.0,0.0,0.0,0.0,0.0,0.0,0.0,0.0,0.0,0.0,0.0,0.0,0.0,0.0,0.0,0.0,0.0,0.0,0.0,0.0,0.0,0.0,0.0,0.0,0.0,0.0,0.0,0.0,0.0,0.0,0.0,0.0,0.0,0.0,0.0,0.0,0.0,0.0,0.0,0.0,0.0,0.0,0.0,0.0,0.0,0.0,0.0,0.0,0.0,0.0,0.0,0.0,0.0,0.0,0.0,0.0,0.0,0.0,0.0,0.0,0.0,0.0,0.0,0.0,0.0,0.0,0.0,0.0,0.0,0.0,0.0,0.0,0.0,0.0,0.0,0.0,0.0,0.0,0.0,0.0,0.0,0.0,0.0,0.0,0.0,0.0,0.0,0.0,0.0,0.0,0.0,0.0,0.0,0.0,0.0,0.0,0.0,0.0,0.0,0.0,0.0,0.0,0.0,0.0,0.0,0.0,0.0,0.0,0.0,0.0,0.0,0.0,0.0,0.0,0.0,0.0,0.0,0.0,0.0,0.0,0.0,0.0,0.0,0.0,0.0,0.0,0.0,0.0,0.0,0.0,0.0,0.0,0.0,0.0,0.0,0.0,0.0,0.0,0.0,0.0,0.0,0.0,0.0,0.0,0.0,0.0,0.0,0.0,0.0,0.0,0.0,0.0,0.0,0.0,0.0,0.0,0.0,0.0,0.0,0.0,0.0,0.0,0.0,0.0,0.0,0.0,0.0,0.0,0.0,0.0,0.0,0.0,0.0,0.0,0.0,0.0,0.0,0.0,0.0,0.0,0.0,0.0,0.0,0.0,0.0,0.0,0.0,0.0,0.0,0.0,0.0,0.0,0.0,0.0,0.0,0.0,0.0,0.0,0.0,0.0,0.0,0.0,0.0,0.0,0.0,0.0,0.0,0.0,0.0,0.0,0.0,0.0,0.0,0.0,0.0,0.0,0.0,0.0,0.0,0.0,0.0,0.0,0.0,0.0,0.0,0.0,0.0,0.0,0.0,0.0,0.0,0.0,0.0,0.0,0.0,0.0,0.0,0.0,0.0,0.0,0.0,0.0,0.0,0.0,0.0,0.0,0.0,0.0,0.0,0.0,0.0,0.0,0.0,0.0,0.0,0.0,0.0,0.0,0.0,0.0,0.0,0.0,0.0,0.0,0.0,0.0,0.0,0.0,0.0,0.0,0.0,0.0,0.0,0.0,0.0,0.0,0.0,0.0,0.0,0.0,0.0,0.0,0.0,0.0,0.0,0.0,0.0,0.0,0.0,0.0,0.0,0.0,0.0,0.0,0.0,0.0,0.0,0.0,0.0,0.0,0.0,0.0,0.0,0.0,0.0,0.0,0.0,0.0,0.0,0.0,0.0,0.0,0.0,0.0,0.0,0.0,0.0,0.0,0.0,0.0,0.0,0.0,0.0,0.0,0.0,0.0,0.0,0.0,0.0,0.0,0.0,0.0,0.0,0.0,0.0,0.0,0.0,0.0,0.0,0.0,0.0,0.0,0.0,0.0,0.0,0.0,0.0,0.0,0.0,0.0,0.0,0.0,0.0,0.0,0.0,0.0,0.0,0.0,0.0,0.0,0.0,0.0,0.0,0.0,0.0,0.0,0.0,0.0,0.0,0.0,0.0,0.0,0.0,0.0,0.0,0.0,0.0,0.0,0.0,0.0,0.0,0.0,0.0,0.0,0.0,0.0,0.0,0.0,0.0,0.0,0.0,0.0,0.0,0.0,0.0,0.0,0.0,0.0,0.0,0.0,0.0,0.0,0.0,0.0,0.0,0.0,0.0,0.0,0.0,0.0,0.0,0.0,0.0,0.0,0.0,0.0,0.0,0.0,0.0,0.0,0.0,0.0,0.0,0.0,0.0,0.0,0.0,0.0,0.0,0.0,0.0,0.0,0.0,0.0,0.0,0.0,0.0,0.0,0.0,0.0,0.0,0.0,0.0,0.0,0.0,0.0,0.0,0.0,0.0,0.0,0.0,0.0,0.0,0.0,0.0,0.0,0.0,0.0,0.0,0.0,0.0,0.0,0.0,0.0,0.0,0.0,0.0,0.0,0.0,0.0,0.0,0.0,0.0,0.0,0.0,0.0,0.0,0.0,0.0,0.0,0.0,0.0,0.0,0.0,0.0,0.0,0.0,0.0,0.0,0.0,0.0,0.0,0.0,0.0,0.0,0.0,0.0,0.0,0.0,0.0,0.0,0.0,0.0,0.0,0.0,0.0,0.0,0.0,0.0,0.0,0.0,0.0,0.0,0.0,0.0,0.0,0.0,0.0,0.0,0.0,0.0,0.0,0.0,0.0,0.0,0.0,0.0,0.0,0.0,0.0,0.0,0.0,0.0,0.0,0.0,0.0,0.0,0.0,0.0,0.0,0.0,0.0,0.0,0.0,0.0,0.0,0.0,0.0,0.0,0.0,0.0,0.0,0.0,0.0,0.0,0.0,0.0,0.0,0.0,0.0,0.0,0.0,0.0,0.0,0.0,0.0,0.0,0.0,0.0,0.0,0.0,0.0,0.0,0.0,0.0,0.0,0.0,0.0,0.0,0.0,0.0,0.0,0.0,0.0,0.0,0.0,0.0,0.0,0.0,0.0,0.0,0.0,0.0,0.0,0.0,0.0,0.0,0.0,0.0,0.0,0.0,0.0,0.0,0.0,0.0,0.0,0.0,0.0,0.0,0.0,0.0,0.0,0.0,0.0,0.0,0.0,0.0,0.0,0.0,0.0,0.0,0.0,0.0,0.0,0.0,0.0,0.0,0.0,0.0,0.0,0.0,0.0,0.0,0.0,0.0,0.0,0.0,0.0,0.0,0.0,0.0,0.0,0.0,0.0,0.0,0.0,0.0,0.0,0.0,0.0,0.0,0.0,0.0,0.0,0.0,0.0,0.0,0.0,0.0]}]]